[[{"header":{"parameterUnit":"m.s-1","parameterCategory":1,"la1":31.0,"la2":29.5877,"lo1":-88.7671,"lo2":-86.6584,"dy":0.0162,"dx":0.0185,"nx":115,"ny":88,"refTime":"2024-06-18T06:00:00:Z","depth":0,"parameterNumber":2,"parameterNumberName":"U-component_of_WINDS"},"data":[0.0,0.0,0.0,0.0,0.0,0.0,0.0,0.0,0.0,0.0,0.0,0.0,0.0,0.0,0.0,0.0,0.0,0.0,0.0,0.0,0.0,0.0,0.0,0.0,0.0,0.0,0.0,0.0,0.0,0.0,0.0,0.0,0.0,0.0,0.0,0.0,0.0,0.0,0.0,0.0,0.0,0.0,0.0,0.0,0.0,0.0,0.0,0.0,0.0,0.0,0.0,0.0,0.0,0.0,0.0,0.0,0.0,0.0,0.0,0.0,0.0,0.0,0.0,0.0,0.0,0.0,0.0,0.0,0.0,0.0,0.0,0.0,0.0,0.0,0.0,0.0,0.0,0.0,0.0,0.0,0.0,0.0,0.0,0.0,0.0,0.0,0.0,0.0,0.0,0.0,0.0,0.0,0.0,0.0,0.0,0.0,0.0,0.0,0.0,0.0,0.0,0.0,0.0,0.0,0.0,0.0,0.0,0.0,0.0,0.0,0.0,0.0,0.0,0.0,0.0,0.0,0.0,0.0,0.0,0.0,0.0,0.0,0.0,0.0,0.0,0.0,0.0,0.0,0.0,0.0,0.0,0.0,0.0,0.0,0.0,0.0,0.0,0.0,0.0,0.0,0.0,0.0,0.0,0.0,0.0,0.0,0.0,0.0,0.0,0.0,0.0,0.0,0.0,0.0,0.0,0.0,0.0,0.0,0.0,0.0,0.0,0.0,0.0,0.0,0.0,0.0,0.0,0.0,0.0,0.0,0.0,0.0,0.0,0.0,0.0,0.0,0.0,0.0,0.0,0.0,0.0,0.0,0.0,0.0,0.0,0.0,0.0,0.0,0.0,0.0,0.0,0.0,0.0,0.0,0.0,0.0,0.0,0.0,0.0,0.0,0.0,0.0,0.0,0.0,0.0,0.0,0.0,0.0,0.0,0.0,0.0,0.0,0.0,0.0,0.0,0.0,0.0,0.0,0.0,0.0,0.0,0.0,0.0,0.0,0.0,0.0,0.0,0.0,0.0,0.0,0.0,0.0,0.0,0.0,0.0,0.0,0.0,0.0,0.0,0.0,0.0,0.0,0.0,0.0,0.0,0.0,0.0,0.0,0.0,0.0,0.0,0.0,0.0,0.0,0.0,0.0,0.0,0.0,0.0,0.0,0.0,0.0,0.0,0.0,0.0,0.0,0.0,0.0,0.0,0.0,0.0,0.0,0.0,0.0,0.0,0.0,0.0,0.0,0.0,0.0,0.0,0.0,0.0,0.0,0.0,0.0,0.0,0.0,0.0,0.0,0.0,0.0,0.0,0.0,0.0,0.0,0.0,0.0,0.0,0.0,0.0,0.0,0.0,0.0,0.0,0.0,0.0,0.0,0.0,0.0,0.0,0.0,0.0,0.0,0.0,0.0,0.0,0.0,0.0,0.0,0.0,0.0,0.0,0.0,0.0,0.0,0.0,0.0,0.0,0.0,0.0,0.0,0.0,0.0,0.0,0.0,0.0,0.0,0.0,0.0,0.0,0.0,0.0,0.0,0.0,0.0,0.0,0.0,0.0,0.0,0.0,0.0,0.0,0.0,0.0,0.0,0.0,0.0,0.0,0.0,0.0,0.0,0.0,0.0,0.0,0.0,0.0,0.0,0.0,0.0,0.0,0.0,0.0,0.0,0.0,0.0,0.0,0.0,0.0,0.0,0.0,0.0,0.0,0.0,0.0,0.0,0.0,0.0,0.0,0.0,0.0,0.0,0.0,0.0,0.0,0.0,0.0,0.0,0.0,0.0,0.0,0.0,0.0,0.0,0.0,0.0,0.0,0.0,0.0,0.0,0.0,0.0,0.0,0.0,0.0,0.0,0.0,0.0,0.0,0.0,0.0,0.0,0.0,0.0,0.0,0.0,0.0,0.0,0.0,0.0,0.0,0.0,0.0,0.0,0.0,0.0,0.0,0.0,0.0,0.0,0.0,0.0,0.0,0.0,0.0,0.0,0.0,0.0,0.0,0.0,0.0,0.0,0.0,0.0,0.0,0.0,0.0,0.0,0.0,0.0,0.0,0.0,0.0,0.0,0.0,0.0,0.0,0.0,0.0,0.0,0.0,0.0,0.0,0.0,0.0,0.0,0.0,0.0,0.0,0.0,0.0,0.0,0.0,0.0,0.0,0.0,0.0,0.0,0.0,0.0,0.0,0.0,0.0,0.0,0.0,0.0,0.0,0.0,0.0,0.0,0.0,0.0,0.0,0.0,0.0,0.0,0.0,0.0,0.0,0.0,0.0,0.0,0.0,0.0,0.0,0.0,0.0,0.0,0.0,0.0,0.0,0.0,0.0,0.0,0.0,0.0,0.0,0.0,0.0,0.0,0.0,0.0,0.0,0.0,0.0,0.0,0.0,0.0,0.0,0.0,0.0,0.0,0.0,0.0,0.0,0.0,0.0,0.0,0.0,0.0,0.0,0.0,0.0,0.0,0.0,0.0,0.0,0.0,0.0,0.0,0.0,0.0,0.0,0.0,0.0,0.0,0.0,0.0,0.0,0.0,0.0,0.0,0.0,0.0,0.0,0.0,0.0,0.0,0.0,0.0,0.0,0.0,0.0,0.0,0.0,0.0,0.0,0.0,0.0,0.0,0.0,0.0,0.0,0.0,0.0,0.0,0.0,0.0,0.0,0.0,0.0,0.0,0.0,0.0,0.0,0.0,0.0,0.0,0.0,0.0,0.0,0.0,0.0,0.0,0.0,0.0,0.0,0.0,0.0,0.0,0.0,0.0,0.0,0.0,0.0,0.0,0.0,0.0,0.0,0.0,0.0,0.0,0.0,0.0,0.0,0.0,0.0,0.0,0.0,0.0,0.0,0.0,0.0,0.0,0.0,0.0,0.0,0.0,0.0,0.0,0.0,0.0,0.0,0.0,0.0,0.0,0.0,0.0,0.0,0.0,0.0,0.0,0.0,0.0,0.0,0.0,0.0,0.0,0.0,0.0,0.0,0.0,0.0,0.0,0.0,0.0,0.0,0.0,0.0,0.0,0.0,0.0,0.0,0.0,0.0,0.0,0.0,0.0,0.0,0.0,0.0,0.0,0.0,0.0,0.0,0.0,0.0,0.0,0.0,0.0,0.0,0.0,0.0,0.0,0.0,0.0,0.0,0.0,0.0,0.0,0.0,0.0,0.0,0.0,0.0,0.0,0.0,0.0,0.0,0.0,0.0,0.0,0.0,0.0,0.0,0.0,0.0,0.0,0.0,0.0,0.0,0.0,0.0,0.0,0.0,0.0,0.0,0.0,0.0,0.0,0.0,0.0,0.0,0.0,0.0,0.0,0.0,0.0,0.0,0.0,0.0,0.0,0.0,0.0,0.0,0.0,0.0,0.0,0.0,0.0,0.0,0.0,0.0,0.0,0.0,0.0,0.0,0.0,0.0,0.0,0.0,0.0,0.0,0.0,0.0,0.0,0.0,0.0,0.0,0.0,0.0,0.0,0.0,0.0,0.0,0.0,0.0,0.0,0.0,0.0,0.0,0.0,0.0,0.0,0.0,0.0,0.0,0.0,0.0,0.0,0.0,0.0,0.0,0.0,0.0,0.0,0.0,0.0,0.0,0.0,0.0,0.0,0.0,0.0,0.0,0.0,0.0,0.0,0.0,0.0,0.0,0.0,0.0,0.0,0.0,0.0,0.0,0.0,0.0,0.0,0.0,0.0,0.0,0.0,0.0,0.0,0.0,0.0,0.0,0.0,0.0,0.0,0.0,0.0,0.0,0.0,0.0,0.0,0.0,0.0,0.0,0.0,0.0,0.0,0.0,0.0,0.0,0.0,0.0,0.0,0.0,0.0,0.0,0.0,0.0,0.0,0.0,0.0,0.0,0.0,0.0,0.0,0.0,0.0,0.0,0.0,0.0,0.0,0.0,0.0,0.0,0.0,0.0,0.0,0.0,0.0,0.0,0.0,0.0,0.0,0.0,0.0,0.0,0.0,0.0,0.0,0.0,0.0,0.0,0.0,0.0,0.0,0.0,0.0,0.0,0.0,0.0,0.0,0.0,0.0,0.0,0.0,0.0,0.0,0.0,0.0,0.0,0.0,0.0,0.0,0.0,0.0,0.0,0.0,0.0,0.0,0.0,0.0,0.0,0.0,0.0,0.0,0.0,0.0,0.0,0.0,0.0,0.0,0.0,0.0,0.0,0.0,0.0,0.0,0.0,0.0,0.0,0.0,0.0,0.0,0.0,0.0,0.0,0.0,0.0,0.0,0.0,0.0,0.0,0.0,0.0,0.0,0.0,0.0,0.0,0.0,-3.8161,0.0,0.0,0.0,0.0,0.0,0.0,0.0,0.0,0.0,0.0,0.0,0.0,0.0,0.0,0.0,0.0,0.0,0.0,0.0,0.0,0.0,0.0,0.0,0.0,0.0,0.0,0.0,0.0,0.0,0.0,0.0,0.0,0.0,0.0,0.0,0.0,0.0,0.0,0.0,0.0,0.0,0.0,0.0,0.0,0.0,0.0,0.0,0.0,0.0,0.0,0.0,0.0,0.0,0.0,0.0,0.0,0.0,0.0,0.0,0.0,0.0,0.0,0.0,0.0,0.0,0.0,0.0,0.0,0.0,0.0,0.0,0.0,0.0,0.0,0.0,0.0,0.0,0.0,0.0,0.0,0.0,0.0,0.0,0.0,0.0,0.0,0.0,0.0,0.0,0.0,0.0,0.0,0.0,0.0,0.0,0.0,0.0,0.0,0.0,0.0,0.0,0.0,0.0,0.0,0.0,0.0,0.0,0.0,0.0,0.0,-4.1107,-4.111,-4.0697,-3.9831,-3.8515,0.0,0.0,0.0,0.0,0.0,0.0,0.0,0.0,0.0,0.0,0.0,0.0,0.0,0.0,0.0,0.0,0.0,0.0,0.0,0.0,0.0,0.0,0.0,0.0,0.0,0.0,0.0,0.0,0.0,0.0,0.0,0.0,0.0,0.0,0.0,0.0,0.0,0.0,0.0,0.0,0.0,0.0,0.0,0.0,0.0,0.0,0.0,0.0,0.0,0.0,0.0,0.0,0.0,0.0,0.0,0.0,0.0,0.0,0.0,0.0,0.0,0.0,0.0,0.0,0.0,0.0,0.0,0.0,0.0,0.0,0.0,0.0,0.0,0.0,0.0,0.0,0.0,0.0,0.0,0.0,0.0,0.0,0.0,0.0,0.0,0.0,0.0,0.0,0.0,0.0,0.0,0.0,0.0,0.0,0.0,0.0,0.0,0.0,0.0,0.0,0.0,0.0,0.0,0.0,0.0,0.0,0.0,0.0,0.0,0.0,0.0,0.0,-4.1301,-4.0311,-3.824,0.0,0.0,0.0,0.0,0.0,0.0,0.0,0.0,0.0,0.0,0.0,0.0,0.0,0.0,0.0,0.0,0.0,0.0,0.0,0.0,0.0,0.0,0.0,0.0,0.0,0.0,0.0,0.0,0.0,0.0,0.0,0.0,0.0,0.0,0.0,0.0,0.0,0.0,0.0,0.0,0.0,0.0,0.0,0.0,0.0,0.0,0.0,0.0,0.0,0.0,0.0,0.0,0.0,0.0,0.0,0.0,0.0,0.0,0.0,0.0,0.0,0.0,0.0,0.0,0.0,0.0,0.0,0.0,0.0,0.0,0.0,0.0,0.0,0.0,0.0,0.0,0.0,0.0,0.0,0.0,0.0,0.0,0.0,0.0,0.0,0.0,0.0,0.0,0.0,0.0,0.0,0.0,0.0,0.0,0.0,0.0,0.0,0.0,0.0,0.0,0.0,0.0,0.0,0.0,0.0,0.0,0.0,0.0,0.0,0.0,-4.1482,-4.2265,-4.2182,0.0,-3.7588,0.0,0.0,0.0,0.0,0.0,0.0,0.0,0.0,0.0,0.0,0.0,0.0,0.0,0.0,0.0,0.0,0.0,0.0,0.0,0.0,0.0,0.0,0.0,0.0,0.0,0.0,0.0,0.0,0.0,0.0,0.0,0.0,0.0,0.0,0.0,0.0,0.0,0.0,0.0,0.0,0.0,0.0,0.0,0.0,0.0,0.0,0.0,0.0,0.0,0.0,0.0,0.0,0.0,0.0,0.0,0.0,0.0,0.0,0.0,0.0,0.0,0.0,0.0,0.0,0.0,0.0,0.0,0.0,0.0,0.0,0.0,0.0,0.0,0.0,0.0,0.0,0.0,0.0,0.0,0.0,0.0,0.0,0.0,0.0,0.0,0.0,0.0,0.0,0.0,0.0,0.0,0.0,0.0,0.0,0.0,0.0,0.0,0.0,0.0,0.0,0.0,0.0,0.0,0.0,0.0,0.0,0.0,0.0,0.0,0.0,-4.2522,-4.2358,-4.1324,-3.9862,0.0,0.0,0.0,0.0,0.0,0.0,0.0,0.0,0.0,0.0,0.0,0.0,0.0,0.0,0.0,0.0,0.0,0.0,0.0,0.0,0.0,0.0,0.0,0.0,0.0,0.0,0.0,0.0,0.0,0.0,0.0,0.0,0.0,0.0,0.0,0.0,0.0,0.0,0.0,0.0,0.0,0.0,0.0,0.0,0.0,0.0,0.0,0.0,0.0,0.0,0.0,0.0,0.0,0.0,0.0,0.0,0.0,0.0,0.0,0.0,0.0,0.0,0.0,0.0,0.0,0.0,0.0,0.0,0.0,0.0,0.0,0.0,0.0,0.0,0.0,0.0,0.0,0.0,0.0,0.0,0.0,0.0,0.0,0.0,0.0,0.0,0.0,0.0,0.0,0.0,0.0,0.0,0.0,0.0,0.0,0.0,0.0,0.0,0.0,0.0,0.0,0.0,0.0,0.0,0.0,0.0,0.0,0.0,0.0,0.0,-4.3112,-4.3304,-4.2615,-4.1406,-3.9805,-3.7765,0.0,0.0,0.0,0.0,0.0,0.0,0.0,0.0,0.0,0.0,0.0,0.0,0.0,0.0,0.0,0.0,0.0,0.0,0.0,0.0,0.0,0.0,0.0,0.0,0.0,0.0,0.0,0.0,0.0,0.0,0.0,0.0,0.0,0.0,0.0,0.0,0.0,0.0,0.0,0.0,0.0,0.0,0.0,0.0,0.0,0.0,0.0,0.0,0.0,0.0,0.0,0.0,0.0,0.0,0.0,0.0,0.0,0.0,0.0,0.0,0.0,0.0,0.0,0.0,0.0,0.0,0.0,0.0,0.0,0.0,0.0,0.0,0.0,0.0,0.0,0.0,0.0,0.0,0.0,0.0,0.0,0.0,0.0,0.0,0.0,0.0,0.0,0.0,0.0,0.0,0.0,0.0,0.0,0.0,0.0,0.0,0.0,0.0,0.0,0.0,0.0,0.0,0.0,0.0,0.0,0.0,0.0,0.0,-4.4493,-4.3972,-4.3547,-4.3464,-4.3371,-4.0999,0.0,0.0,0.0,0.0,0.0,0.0,0.0,0.0,0.0,0.0,0.0,0.0,0.0,0.0,0.0,0.0,0.0,0.0,0.0,0.0,0.0,0.0,0.0,0.0,0.0,0.0,0.0,0.0,0.0,0.0,0.0,0.0,0.0,0.0,0.0,0.0,0.0,0.0,0.0,0.0,0.0,0.0,0.0,0.0,0.0,0.0,0.0,0.0,0.0,0.0,0.0,0.0,0.0,0.0,0.0,0.0,0.0,0.0,0.0,0.0,0.0,0.0,0.0,0.0,0.0,0.0,0.0,0.0,0.0,0.0,0.0,0.0,0.0,0.0,0.0,0.0,0.0,0.0,0.0,0.0,0.0,0.0,0.0,0.0,0.0,0.0,0.0,0.0,0.0,0.0,0.0,0.0,0.0,0.0,0.0,0.0,0.0,0.0,0.0,0.0,0.0,0.0,0.0,0.0,0.0,0.0,0.0,0.0,0.0,-4.1579,-4.2414,-4.3582,-4.4985,-4.1971,-3.9367,0.0,0.0,0.0,0.0,0.0,0.0,0.0,0.0,0.0,0.0,0.0,0.0,0.0,0.0,0.0,0.0,0.0,0.0,0.0,0.0,0.0,0.0,0.0,0.0,0.0,0.0,0.0,0.0,0.0,0.0,0.0,0.0,0.0,0.0,0.0,0.0,0.0,0.0,0.0,0.0,0.0,0.0,0.0,0.0,0.0,0.0,0.0,0.0,0.0,0.0,0.0,0.0,0.0,0.0,0.0,0.0,0.0,0.0,0.0,0.0,0.0,0.0,0.0,0.0,0.0,0.0,0.0,0.0,0.0,0.0,0.0,0.0,0.0,0.0,0.0,0.0,0.0,0.0,0.0,0.0,0.0,0.0,0.0,0.0,0.0,0.0,0.0,0.0,0.0,0.0,0.0,0.0,0.0,0.0,0.0,0.0,0.0,0.0,0.0,0.0,0.0,0.0,0.0,0.0,0.0,0.0,0.0,0.0,0.0,-4.1423,0.0,-4.4759,0.0,-4.1911,-3.903,0.0,0.0,0.0,0.0,0.0,0.0,0.0,0.0,0.0,0.0,0.0,0.0,0.0,0.0,0.0,0.0,0.0,0.0,0.0,0.0,0.0,0.0,0.0,0.0,0.0,0.0,0.0,0.0,0.0,0.0,0.0,0.0,0.0,0.0,0.0,0.0,0.0,0.0,0.0,0.0,0.0,0.0,0.0,0.0,0.0,0.0,0.0,0.0,0.0,0.0,0.0,0.0,0.0,0.0,0.0,0.0,0.0,0.0,0.0,0.0,0.0,0.0,0.0,0.0,0.0,0.0,0.0,0.0,0.0,0.0,0.0,0.0,0.0,0.0,0.0,0.0,0.0,0.0,0.0,0.0,0.0,0.0,0.0,0.0,0.0,0.0,0.0,0.0,0.0,0.0,0.0,0.0,0.0,0.0,0.0,0.0,0.0,0.0,0.0,0.0,0.0,0.0,0.0,0.0,0.0,0.0,0.0,0.0,-4.0605,-4.4648,-4.7226,-4.6913,-4.3803,-4.3453,-4.0262,0.0,0.0,0.0,0.0,0.0,0.0,0.0,0.0,0.0,0.0,0.0,0.0,0.0,0.0,0.0,0.0,0.0,0.0,0.0,0.0,0.0,0.0,0.0,0.0,0.0,0.0,0.0,0.0,0.0,0.0,0.0,0.0,0.0,0.0,0.0,0.0,0.0,0.0,0.0,0.0,0.0,0.0,0.0,0.0,0.0,0.0,0.0,0.0,0.0,0.0,0.0,0.0,0.0,0.0,0.0,0.0,0.0,0.0,0.0,0.0,0.0,0.0,0.0,0.0,0.0,0.0,0.0,0.0,0.0,0.0,0.0,0.0,0.0,0.0,0.0,0.0,0.0,0.0,0.0,0.0,0.0,0.0,0.0,0.0,0.0,0.0,0.0,0.0,0.0,0.0,0.0,0.0,0.0,0.0,0.0,0.0,0.0,0.0,0.0,0.0,0.0,0.0,0.0,0.0,0.0,0.0,0.0,0.0,0.0,-4.3164,-4.515,-4.6209,-4.6153,-4.2194,-3.9594,0.0,0.0,0.0,0.0,0.0,0.0,0.0,0.0,0.0,0.0,0.0,0.0,0.0,0.0,0.0,0.0,0.0,0.0,0.0,0.0,0.0,0.0,0.0,0.0,0.0,0.0,0.0,0.0,0.0,0.0,0.0,0.0,0.0,0.0,0.0,0.0,0.0,0.0,0.0,0.0,0.0,0.0,0.0,0.0,0.0,0.0,0.0,0.0,0.0,0.0,0.0,0.0,0.0,0.0,0.0,0.0,0.0,0.0,0.0,0.0,0.0,0.0,0.0,0.0,0.0,0.0,0.0,0.0,0.0,0.0,0.0,0.0,0.0,0.0,0.0,0.0,0.0,0.0,0.0,0.0,0.0,0.0,0.0,0.0,0.0,0.0,0.0,0.0,0.0,0.0,0.0,0.0,0.0,0.0,0.0,0.0,0.0,0.0,0.0,0.0,0.0,0.0,0.0,0.0,0.0,0.0,0.0,0.0,0.0,-4.5306,-4.6973,-4.7879,-4.7968,-4.3937,-4.1064,-3.9502,0.0,0.0,0.0,0.0,0.0,0.0,0.0,0.0,0.0,0.0,0.0,0.0,0.0,0.0,0.0,0.0,0.0,0.0,0.0,0.0,0.0,0.0,0.0,0.0,0.0,0.0,0.0,0.0,0.0,0.0,0.0,0.0,0.0,0.0,0.0,0.0,0.0,0.0,0.0,0.0,0.0,0.0,0.0,0.0,0.0,0.0,0.0,0.0,0.0,0.0,0.0,0.0,0.0,0.0,0.0,0.0,0.0,0.0,0.0,0.0,0.0,0.0,0.0,0.0,0.0,0.0,0.0,0.0,0.0,0.0,0.0,0.0,0.0,0.0,0.0,0.0,0.0,0.0,0.0,0.0,0.0,0.0,0.0,0.0,0.0,0.0,0.0,0.0,0.0,0.0,0.0,0.0,0.0,0.0,0.0,0.0,0.0,0.0,0.0,0.0,0.0,0.0,0.0,0.0,0.0,0.0,0.0,0.0,-5.0202,-5.2078,-5.1804,-4.9308,-4.7969,-4.4319,0.0,0.0,0.0,0.0,0.0,0.0,0.0,0.0,0.0,0.0,0.0,0.0,0.0,0.0,0.0,0.0,0.0,0.0,0.0,0.0,0.0,0.0,0.0,0.0,0.0,0.0,0.0,0.0,0.0,0.0,0.0,0.0,0.0,0.0,0.0,0.0,0.0,0.0,0.0,0.0,0.0,0.0,0.0,0.0,0.0,0.0,0.0,0.0,0.0,0.0,0.0,0.0,0.0,0.0,0.0,0.0,0.0,0.0,0.0,0.0,0.0,0.0,0.0,0.0,0.0,0.0,0.0,0.0,0.0,0.0,0.0,0.0,0.0,0.0,0.0,0.0,0.0,0.0,0.0,0.0,0.0,0.0,0.0,0.0,0.0,0.0,0.0,0.0,0.0,0.0,0.0,0.0,0.0,0.0,0.0,0.0,0.0,0.0,0.0,0.0,0.0,0.0,0.0,0.0,0.0,0.0,0.0,0.0,0.0,-5.1999,-5.5552,-5.6216,-5.3602,-4.8984,-4.533,0.0,0.0,0.0,0.0,0.0,0.0,0.0,0.0,0.0,0.0,0.0,0.0,0.0,0.0,0.0,0.0,0.0,0.0,0.0,0.0,0.0,0.0,0.0,0.0,0.0,0.0,0.0,0.0,0.0,0.0,0.0,0.0,0.0,0.0,0.0,0.0,0.0,0.0,0.0,0.0,0.0,0.0,0.0,0.0,0.0,0.0,0.0,0.0,0.0,0.0,0.0,0.0,0.0,0.0,0.0,0.0,0.0,0.0,0.0,0.0,0.0,0.0,0.0,0.0,0.0,0.0,0.0,0.0,0.0,0.0,0.0,0.0,0.0,0.0,0.0,0.0,0.0,0.0,0.0,0.0,0.0,0.0,0.0,0.0,0.0,0.0,0.0,0.0,0.0,0.0,0.0,0.0,0.0,0.0,0.0,0.0,0.0,0.0,0.0,0.0,0.0,0.0,0.0,0.0,0.0,0.0,0.0,0.0,-5.0321,-5.3758,-5.7621,-5.8753,-5.6918,-5.203,-4.7765,0.0,0.0,0.0,0.0,0.0,0.0,0.0,0.0,0.0,0.0,0.0,0.0,0.0,0.0,0.0,0.0,0.0,0.0,0.0,0.0,0.0,0.0,0.0,0.0,0.0,0.0,0.0,0.0,0.0,0.0,0.0,0.0,0.0,0.0,0.0,0.0,0.0,0.0,0.0,0.0,0.0,0.0,0.0,0.0,0.0,0.0,0.0,0.0,0.0,0.0,0.0,0.0,0.0,0.0,0.0,0.0,0.0,0.0,0.0,0.0,0.0,0.0,0.0,0.0,0.0,0.0,0.0,0.0,0.0,0.0,0.0,0.0,0.0,0.0,0.0,0.0,0.0,0.0,0.0,0.0,0.0,0.0,0.0,0.0,0.0,0.0,0.0,0.0,0.0,0.0,0.0,0.0,0.0,0.0,0.0,0.0,0.0,0.0,0.0,0.0,0.0,0.0,0.0,0.0,0.0,0.0,0.0,0.0,-5.196,-5.5242,-5.8636,-6.0002,-5.9183,-5.5693,-5.0703,0.0,0.0,0.0,0.0,0.0,0.0,0.0,0.0,0.0,0.0,0.0,0.0,0.0,0.0,0.0,0.0,0.0,0.0,0.0,0.0,0.0,0.0,0.0,0.0,0.0,0.0,0.0,0.0,0.0,0.0,0.0,0.0,0.0,0.0,0.0,0.0,0.0,0.0,0.0,0.0,0.0,0.0,0.0,0.0,0.0,0.0,0.0,0.0,0.0,0.0,0.0,0.0,0.0,0.0,0.0,0.0,0.0,0.0,0.0,0.0,0.0,0.0,0.0,0.0,0.0,0.0,0.0,0.0,0.0,0.0,0.0,0.0,0.0,0.0,0.0,0.0,0.0,0.0,0.0,0.0,0.0,0.0,0.0,0.0,0.0,0.0,0.0,0.0,0.0,0.0,0.0,0.0,0.0,0.0,0.0,0.0,0.0,0.0,0.0,0.0,0.0,0.0,0.0,0.0,0.0,0.0,0.0,0.0,-5.3171,-5.5281,-5.8636,-6.0315,-6.008,-5.542,-5.0898,0.0,0.0,0.0,0.0,0.0,0.0,0.0,0.0,0.0,0.0,0.0,0.0,0.0,0.0,0.0,0.0,0.0,0.0,0.0,0.0,0.0,0.0,0.0,0.0,0.0,0.0,0.0,0.0,0.0,0.0,0.0,0.0,0.0,0.0,0.0,0.0,0.0,0.0,0.0,0.0,0.0,0.0,0.0,0.0,0.0,0.0,0.0,0.0,-3.9688,0.0,0.0,0.0,0.0,0.0,0.0,0.0,0.0,0.0,0.0,0.0,0.0,0.0,0.0,0.0,0.0,0.0,0.0,0.0,0.0,0.0,0.0,0.0,0.0,0.0,0.0,0.0,0.0,0.0,0.0,0.0,0.0,0.0,0.0,0.0,0.0,0.0,0.0,0.0,0.0,0.0,0.0,0.0,0.0,0.0,0.0,0.0,0.0,0.0,0.0,0.0,0.0,0.0,0.0,0.0,0.0,0.0,0.0,0.0,-5.3327,-5.5864,-5.8441,-5.9573,-5.9065,-5.5723,-5.1834,0.0,0.0,0.0,0.0,0.0,0.0,0.0,0.0,0.0,0.0,0.0,0.0,0.0,0.0,0.0,0.0,0.0,0.0,0.0,0.0,0.0,0.0,0.0,0.0,0.0,0.0,0.0,0.0,0.0,0.0,0.0,0.0,0.0,0.0,0.0,0.0,0.0,0.0,0.0,0.0,0.0,0.0,0.0,0.0,0.0,0.0,0.0,0.0,0.0,0.0,0.0,0.0,0.0,0.0,0.0,0.0,0.0,0.0,0.0,0.0,0.0,0.0,0.0,0.0,0.0,0.0,0.0,0.0,0.0,0.0,0.0,0.0,0.0,0.0,0.0,0.0,0.0,0.0,0.0,0.0,0.0,0.0,0.0,0.0,0.0,0.0,0.0,0.0,0.0,0.0,0.0,0.0,0.0,0.0,0.0,0.0,0.0,0.0,0.0,0.0,0.0,0.0,0.0,0.0,0.0,0.0,0.0,-4.9228,-5.2897,-5.6645,-5.805,-5.8478,-5.7972,-5.6098,-5.2723,-4.7691,0.0,0.0,0.0,0.0,0.0,0.0,0.0,0.0,0.0,0.0,0.0,0.0,0.0,0.0,0.0,0.0,0.0,0.0,0.0,0.0,0.0,0.0,0.0,0.0,0.0,0.0,0.0,0.0,0.0,0.0,0.0,0.0,0.0,0.0,0.0,0.0,0.0,0.0,-3.5702,-3.8227,0.0,0.0,0.0,0.0,0.0,0.0,0.0,0.0,-4.255,0.0,0.0,0.0,0.0,0.0,0.0,0.0,0.0,0.0,0.0,0.0,0.0,0.0,0.0,0.0,0.0,0.0,0.0,0.0,0.0,0.0,0.0,0.0,0.0,0.0,0.0,0.0,0.0,0.0,0.0,0.0,0.0,0.0,0.0,0.0,0.0,0.0,0.0,0.0,0.0,0.0,0.0,0.0,0.0,0.0,0.0,0.0,0.0,0.0,0.0,0.0,0.0,0.0,0.0,0.0,0.0,-4.9109,-4.9267,-5.1921,-5.7426,-5.7192,-5.7621,-5.8753,-5.5864,-5.2091,-4.7655,0.0,0.0,0.0,0.0,0.0,0.0,0.0,0.0,0.0,0.0,0.0,0.0,0.0,0.0,0.0,0.0,0.0,0.0,0.0,0.0,0.0,0.0,0.0,0.0,0.0,0.0,0.0,0.0,0.0,0.0,0.0,0.0,0.0,0.0,0.0,0.0,0.0,0.0,0.0,-4.1417,-4.2757,0.0,0.0,0.0,0.0,0.0,0.0,0.0,0.0,-4.4059,0.0,0.0,0.0,0.0,0.0,0.0,0.0,0.0,0.0,0.0,0.0,0.0,0.0,0.0,0.0,0.0,0.0,0.0,0.0,0.0,0.0,0.0,0.0,0.0,0.0,0.0,0.0,0.0,0.0,0.0,0.0,0.0,0.0,0.0,0.0,0.0,0.0,0.0,0.0,0.0,0.0,0.0,0.0,0.0,0.0,0.0,0.0,0.0,0.0,0.0,0.0,0.0,0.0,0.0,0.0,-4.7822,-4.9891,-5.2897,-5.6996,-5.6801,-5.6996,-5.7699,-5.4459,-5.0836,0.0,0.0,0.0,0.0,0.0,0.0,0.0,0.0,0.0,0.0,0.0,0.0,0.0,0.0,0.0,0.0,0.0,0.0,0.0,0.0,0.0,0.0,0.0,0.0,0.0,0.0,0.0,0.0,0.0,0.0,0.0,0.0,0.0,0.0,0.0,0.0,0.0,0.0,0.0,0.0,-4.3627,-4.5093,-4.761,0.0,0.0,0.0,0.0,0.0,0.0,-4.5684,-4.5142,0.0,0.0,0.0,0.0,0.0,0.0,0.0,0.0,0.0,0.0,0.0,0.0,0.0,0.0,0.0,0.0,0.0,0.0,0.0,0.0,0.0,0.0,0.0,0.0,0.0,0.0,0.0,0.0,0.0,0.0,0.0,0.0,0.0,0.0,0.0,0.0,0.0,0.0,0.0,0.0,0.0,0.0,0.0,0.0,0.0,0.0,0.0,0.0,0.0,0.0,0.0,0.0,0.0,0.0,0.0,-4.5987,-5.0087,-5.3639,-5.645,-5.6604,-5.6604,-5.6526,-5.321,-4.9696,0.0,0.0,0.0,0.0,0.0,0.0,0.0,0.0,0.0,0.0,0.0,0.0,0.0,0.0,0.0,0.0,0.0,0.0,0.0,0.0,0.0,0.0,0.0,0.0,0.0,0.0,0.0,0.0,0.0,0.0,0.0,0.0,0.0,0.0,0.0,0.0,0.0,0.0,0.0,0.0,0.0,-4.7545,-4.9497,-4.792,0.0,0.0,0.0,0.0,-4.7192,-4.7509,0.0,0.0,0.0,0.0,0.0,0.0,0.0,0.0,0.0,0.0,0.0,0.0,0.0,0.0,0.0,0.0,0.0,0.0,0.0,0.0,0.0,0.0,0.0,0.0,0.0,0.0,0.0,0.0,0.0,0.0,0.0,0.0,0.0,0.0,0.0,0.0,0.0,0.0,0.0,0.0,0.0,0.0,0.0,0.0,0.0,0.0,0.0,0.0,0.0,0.0,0.0,0.0,0.0,0.0,0.0,0.0,-4.5049,-4.8601,-5.2427,-5.637,-5.6604,-5.6604,-5.6565,-5.321,-4.9423,0.0,0.0,0.0,0.0,0.0,0.0,0.0,0.0,0.0,0.0,0.0,0.0,0.0,0.0,0.0,0.0,0.0,0.0,0.0,0.0,0.0,0.0,0.0,0.0,0.0,0.0,0.0,0.0,0.0,0.0,0.0,0.0,0.0,0.0,0.0,0.0,0.0,0.0,0.0,0.0,0.0,-4.9526,-4.9768,-4.8884,-4.8186,0.0,0.0,-5.0743,-5.2376,-5.3265,0.0,0.0,0.0,0.0,0.0,0.0,0.0,0.0,0.0,0.0,0.0,0.0,0.0,0.0,0.0,0.0,0.0,0.0,0.0,0.0,0.0,0.0,0.0,0.0,0.0,0.0,0.0,0.0,0.0,0.0,0.0,0.0,0.0,0.0,0.0,0.0,0.0,0.0,0.0,0.0,0.0,0.0,0.0,0.0,0.0,0.0,0.0,0.0,0.0,0.0,0.0,0.0,0.0,0.0,0.0,-4.1794,-4.5045,-5.0274,-5.4177,-5.6487,-5.6604,-5.6604,-5.6604,-5.1843,-4.79,0.0,0.0,0.0,0.0,0.0,0.0,0.0,0.0,0.0,0.0,0.0,0.0,0.0,0.0,0.0,0.0,0.0,0.0,0.0,0.0,0.0,0.0,0.0,0.0,0.0,0.0,0.0,0.0,0.0,0.0,0.0,0.0,0.0,0.0,0.0,0.0,0.0,0.0,0.0,0.0,0.0,0.0,-5.0602,-5.1069,0.0,0.0,0.0,-5.2298,-5.2066,0.0,0.0,0.0,0.0,0.0,0.0,0.0,0.0,0.0,0.0,0.0,0.0,0.0,0.0,0.0,0.0,0.0,0.0,0.0,0.0,0.0,0.0,0.0,0.0,0.0,0.0,0.0,0.0,0.0,0.0,0.0,0.0,0.0,0.0,0.0,0.0,0.0,0.0,0.0,0.0,0.0,0.0,0.0,0.0,0.0,0.0,0.0,0.0,0.0,0.0,0.0,0.0,0.0,0.0,0.0,0.0,0.0,-4.4762,-5.1628,-5.565,-5.6519,-5.6597,-5.6597,-5.6482,-5.1523,0.0,0.0,0.0,0.0,0.0,0.0,0.0,0.0,0.0,0.0,0.0,0.0,0.0,0.0,0.0,0.0,0.0,0.0,0.0,0.0,0.0,0.0,0.0,0.0,0.0,0.0,0.0,-3.1075,0.0,0.0,0.0,0.0,0.0,0.0,0.0,0.0,0.0,0.0,0.0,0.0,0.0,0.0,-5.1202,-5.1202,-5.2596,-5.3532,0.0,0.0,-5.3506,-5.2647,-5.4503,-5.4116,0.0,0.0,0.0,0.0,0.0,0.0,0.0,0.0,0.0,0.0,0.0,0.0,0.0,0.0,0.0,0.0,0.0,0.0,0.0,0.0,0.0,0.0,0.0,0.0,0.0,0.0,0.0,0.0,0.0,0.0,0.0,0.0,0.0,0.0,0.0,0.0,0.0,0.0,0.0,0.0,0.0,0.0,0.0,0.0,0.0,0.0,0.0,0.0,0.0,0.0,0.0,0.0,0.0,0.0,0.0,-4.4002,-5.1336,-5.5627,-5.6485,-5.6488,-5.6494,-5.647,-5.3763,-4.9594,0.0,0.0,0.0,0.0,0.0,0.0,0.0,0.0,0.0,0.0,0.0,0.0,0.0,0.0,0.0,0.0,0.0,0.0,0.0,0.0,0.0,0.0,0.0,0.0,0.0,0.0,0.0,0.0,0.0,0.0,0.0,0.0,0.0,0.0,0.0,0.0,0.0,0.0,0.0,0.0,0.0,-5.1202,-5.1202,-5.2615,-5.4251,0.0,0.0,-5.5194,-5.6631,-5.8333,-5.6979,-4.9513,0.0,0.0,0.0,0.0,0.0,0.0,0.0,0.0,0.0,0.0,0.0,0.0,0.0,0.0,0.0,0.0,0.0,0.0,0.0,0.0,0.0,0.0,0.0,0.0,0.0,0.0,0.0,0.0,0.0,0.0,0.0,0.0,0.0,0.0,0.0,0.0,0.0,0.0,0.0,0.0,0.0,0.0,0.0,0.0,0.0,0.0,0.0,0.0,0.0,0.0,0.0,0.0,0.0,-4.3312,-4.3758,-5.1788,-5.6159,-5.6482,-5.6485,-5.6485,-5.6491,-5.3481,-4.9544,0.0,0.0,0.0,0.0,0.0,0.0,0.0,0.0,0.0,0.0,0.0,0.0,0.0,0.0,0.0,0.0,0.0,0.0,0.0,0.0,0.0,0.0,0.0,0.0,0.0,0.0,0.0,0.0,-3.2714,-3.2675,-3.2169,0.0,0.0,0.0,0.0,0.0,0.0,0.0,0.0,0.0,0.0,-5.1591,-5.2601,-5.4168,0.0,0.0,-5.6296,-5.6402,-5.6476,-5.7056,-5.5432,-4.9397,-4.7695,0.0,0.0,0.0,0.0,0.0,0.0,0.0,0.0,0.0,0.0,0.0,0.0,0.0,0.0,0.0,0.0,0.0,0.0,0.0,0.0,0.0,0.0,0.0,0.0,0.0,0.0,0.0,0.0,0.0,0.0,0.0,0.0,0.0,0.0,0.0,0.0,0.0,0.0,0.0,0.0,0.0,0.0,0.0,0.0,0.0,0.0,0.0,0.0,0.0,0.0,0.0,0.0,-4.3725,-4.4016,-5.2239,-5.6492,-5.6507,-5.6234,-5.6234,-5.6397,-5.3663,-5.0231,0.0,0.0,0.0,0.0,0.0,0.0,0.0,0.0,0.0,0.0,0.0,0.0,0.0,0.0,0.0,0.0,0.0,0.0,0.0,0.0,0.0,0.0,0.0,0.0,0.0,0.0,0.0,0.0,-3.2871,-3.2792,-3.2169,0.0,0.0,0.0,0.0,0.0,0.0,0.0,0.0,0.0,0.0,-5.2096,-5.35,-5.4718,-5.5539,-5.5799,-5.6071,-5.6117,-5.5711,-5.5432,-5.3846,-4.9823,0.0,0.0,0.0,0.0,0.0,0.0,0.0,0.0,0.0,0.0,0.0,0.0,0.0,0.0,0.0,0.0,0.0,0.0,0.0,0.0,0.0,0.0,0.0,0.0,0.0,0.0,0.0,0.0,0.0,0.0,0.0,0.0,0.0,0.0,0.0,0.0,0.0,0.0,0.0,0.0,0.0,0.0,0.0,0.0,0.0,0.0,0.0,0.0,0.0,0.0,0.0,0.0,0.0,-4.3994,-4.4933,-5.2493,-5.6468,-5.6429,-5.5684,-5.5654,-5.6414,-5.4761,-5.2232,-4.8719,0.0,0.0,0.0,0.0,0.0,0.0,0.0,0.0,0.0,0.0,0.0,0.0,0.0,0.0,0.0,0.0,0.0,0.0,0.0,0.0,0.0,0.0,0.0,0.0,0.0,0.0,-3.1036,-3.1621,-3.213,0.0,0.0,0.0,0.0,0.0,0.0,0.0,0.0,0.0,0.0,-5.0192,-5.2678,-5.3578,-5.3733,-5.4091,-5.4869,-5.4272,-5.3979,-5.4713,-5.4078,-5.2917,0.0,0.0,0.0,0.0,0.0,0.0,0.0,0.0,0.0,0.0,0.0,0.0,0.0,0.0,0.0,0.0,0.0,0.0,0.0,0.0,0.0,0.0,0.0,0.0,0.0,0.0,0.0,-3.5674,-3.4609,0.0,0.0,0.0,0.0,0.0,0.0,0.0,0.0,0.0,0.0,0.0,-4.243,-4.4326,0.0,0.0,0.0,0.0,0.0,0.0,0.0,0.0,0.0,0.0,0.0,0.0,-4.3757,-4.4384,-5.1671,-5.5333,-5.4788,-5.5061,-5.5333,-5.5615,-5.5061,-5.2614,-4.8032,0.0,0.0,0.0,0.0,0.0,0.0,0.0,0.0,0.0,0.0,0.0,0.0,0.0,0.0,0.0,0.0,0.0,0.0,0.0,0.0,0.0,0.0,0.0,0.0,0.0,-3.1974,0.0,0.0,0.0,0.0,0.0,0.0,0.0,0.0,0.0,0.0,0.0,-4.6513,-4.8721,-5.0503,-5.2096,-5.35,-5.3695,-5.4181,0.0,0.0,0.0,0.0,0.0,0.0,0.0,0.0,0.0,0.0,0.0,0.0,0.0,0.0,-4.4949,-4.2125,-4.0462,-3.9578,-3.9881,0.0,0.0,0.0,0.0,0.0,0.0,0.0,0.0,0.0,0.0,0.0,0.0,0.0,0.0,0.0,0.0,-3.7759,0.0,0.0,0.0,0.0,0.0,0.0,0.0,0.0,-4.4583,-4.6718,-4.6603,-4.8424,-4.8102,0.0,-4.49,-4.1869,0.0,0.0,0.0,0.0,0.0,0.0,0.0,0.0,-4.3757,-4.4341,-5.1082,-5.4472,-5.3966,-5.4472,-5.4901,-5.5173,-5.4901,-5.2879,-4.8954,-4.3887,-4.0106,0.0,0.0,0.0,0.0,0.0,0.0,0.0,0.0,0.0,0.0,0.0,0.0,0.0,0.0,0.0,0.0,0.0,0.0,0.0,0.0,0.0,0.0,0.0,-3.2334,0.0,0.0,0.0,0.0,0.0,0.0,0.0,0.0,0.0,-4.207,-4.6156,-4.9693,-5.1092,-5.1997,-5.2678,-5.319,0.0,0.0,0.0,0.0,0.0,0.0,0.0,-4.9114,-4.8537,-4.7988,-4.7594,-4.7579,-4.8043,-4.8237,-4.7657,0.0,0.0,-4.522,-4.375,-4.3099,-4.3401,-4.3634,-4.3711,-4.342,-4.3757,-4.3983,0.0,0.0,0.0,0.0,0.0,0.0,0.0,0.0,-4.2284,-4.1386,0.0,-4.0849,0.0,0.0,0.0,0.0,0.0,0.0,0.0,0.0,-5.1168,-5.3518,-5.1357,-5.204,-5.204,-5.1168,-4.8821,-4.6487,-4.4041,-4.0982,0.0,0.0,0.0,0.0,0.0,0.0,-4.4065,-4.5199,-5.0887,-5.3849,-5.3771,-5.3892,-5.4316,-5.5134,-5.4355,-5.3069,-5.132,-4.8008,-4.4695,-4.1341,-3.7136,0.0,0.0,0.0,0.0,0.0,0.0,0.0,0.0,0.0,0.0,0.0,0.0,0.0,0.0,0.0,0.0,0.0,0.0,0.0,0.0,-3.2226,0.0,0.0,0.0,0.0,0.0,0.0,0.0,0.0,0.0,0.0,-4.6134,-4.9823,-5.2787,-5.3594,0.0,0.0,0.0,0.0,-5.2983,-5.1438,-5.1121,-5.1108,-5.1146,-4.9666,-4.9078,-5.0632,0.0,0.0,-5.0828,-5.0782,-5.0202,-4.874,-4.9745,-5.0666,-4.9815,-4.8159,-4.7347,-4.8082,-4.7502,-4.7424,-4.8113,-4.7828,-4.7965,-4.6352,0.0,0.0,0.0,0.0,-4.4405,-4.5976,-4.81,-4.7656,-4.6689,-4.5456,-4.5472,0.0,0.0,0.0,0.0,0.0,0.0,-4.6316,-4.7416,-5.0751,-5.2532,-5.3025,-5.3821,-5.3745,-5.2949,-5.2243,-5.1247,-4.9922,-4.7832,-4.3455,-3.6985,0.0,0.0,0.0,0.0,-4.5361,-4.7543,-5.1087,-5.2684,-5.2056,-5.3268,-5.432,-5.5173,-5.4355,-5.3385,-5.2251,-4.9527,-4.6722,-4.3919,-4.0877,0.0,0.0,0.0,0.0,0.0,0.0,0.0,0.0,0.0,0.0,0.0,0.0,0.0,0.0,0.0,0.0,0.0,0.0,0.0,-3.3896,-3.4492,-3.4842,0.0,0.0,0.0,0.0,0.0,0.0,0.0,0.0,0.0,-4.8808,-5.1001,-5.259,0.0,0.0,-5.2135,-5.163,-5.122,-5.1231,-5.1958,0.0,0.0,0.0,-4.9698,-4.8943,-4.9976,-5.0118,-5.0076,-5.0061,-4.9528,-4.9165,-4.9281,-5.0171,-5.0983,-5.1331,-5.0094,-4.9126,-4.9243,-4.8624,-4.8121,-4.8345,-4.8369,-4.8351,-5.0467,-4.8325,-4.692,-4.6456,-4.6762,-4.7259,-4.8808,-5.0899,-5.0605,-4.986,-4.8933,-4.9285,-4.7175,-4.3301,-4.2949,0.0,0.0,0.0,-4.9083,-5.0751,-5.204,-5.3215,-5.4162,-5.4693,-5.4655,-5.4162,-5.3888,-5.3471,-5.2873,-5.0589,-4.6668,-4.1309,0.0,0.0,-4.0913,-4.3937,-4.6235,-4.7875,-5.0536,-5.1686,-5.118,-5.2942,-5.4299,-5.5134,-5.4355,-5.3498,-5.2606,-5.0758,-4.8569,-4.5998,-4.3448,-4.0007,0.0,0.0,0.0,0.0,0.0,0.0,0.0,0.0,0.0,0.0,0.0,-3.0416,-2.8573,0.0,0.0,0.0,-3.4344,-3.5621,-3.6172,-3.6984,0.0,0.0,0.0,0.0,0.0,0.0,0.0,-4.2644,-4.5624,-4.789,-4.8982,-5.0809,-5.2149,-5.2501,-5.1765,-5.1208,-5.1197,0.0,-5.1185,-5.1885,-5.1118,-5.0661,-5.1113,-5.0062,-4.9308,-4.9753,-5.0397,-5.0745,-5.0724,-5.0548,-5.0642,-5.113,-5.1633,-5.2129,-5.2616,-5.1873,-5.1215,-5.1177,-5.079,-5.0442,-5.0442,-5.0339,-5.028,-5.3856,-5.336,-4.8766,-4.7905,-4.9521,-4.9557,-5.0684,-5.2408,-5.1706,-5.1344,-5.138,-5.214,-5.0729,-4.7713,-4.7061,0.0,0.0,-5.0737,-5.2305,-5.3821,-5.4579,-5.492,-5.492,-5.492,-5.492,-5.4882,-5.4197,-5.3855,-5.3631,-5.0629,-4.8656,-4.7858,-4.6178,-4.4584,-4.3299,-4.5475,-4.6771,-4.7011,-4.9413,-5.0804,-5.1129,-5.2801,-5.41,-5.4927,-5.4152,-5.3217,-5.2282,-5.1463,-4.9883,-4.747,-4.5012,-4.2136,-3.8627,0.0,0.0,0.0,0.0,0.0,0.0,0.0,0.0,0.0,0.0,0.0,0.0,0.0,0.0,0.0,-3.7345,0.0,-3.8672,-3.9371,0.0,0.0,0.0,-4.0076,-4.0273,-4.164,-4.3007,-4.3983,0.0,0.0,0.0,0.0,-5.1521,-5.2305,-5.1775,-5.1282,-5.122,-5.1765,-5.2038,-5.1337,-5.1142,-5.1142,-5.1346,-5.0836,-5.0471,-5.0503,-5.1501,-5.2395,-5.2401,-5.2891,-5.3497,-5.3421,-5.3615,-5.3677,-5.3638,-5.363,-5.3699,-5.3669,-5.3506,-5.3382,-5.3265,-5.3121,-5.2991,-5.5124,-5.4436,-5.2663,-5.1849,-5.1746,-5.1746,-5.2028,-5.2444,-5.2299,-5.2218,-5.2215,-5.2419,-5.1857,-5.0768,-5.1258,-5.1651,-5.2118,-5.3437,-5.4238,-5.4617,-5.4806,-5.492,-5.492,-5.492,-5.492,-5.4882,-5.4708,-5.4632,-5.4541,-5.2547,-5.0792,-4.9365,-4.7694,-4.6176,-4.4796,-4.5343,-4.6638,-4.8548,-4.8673,-5.0078,-5.267,-5.2683,-5.2719,-5.303,-5.2219,-5.1097,-4.9619,-4.9337,-4.8627,-4.7383,-4.6085,-4.379,-4.0306,-3.6777,0.0,0.0,0.0,0.0,0.0,0.0,0.0,0.0,0.0,-3.4074,-3.0024,0.0,-3.5998,0.0,-3.691,-3.8906,-4.0361,-4.0083,0.0,0.0,-4.1624,-4.2299,-4.358,-4.4099,-4.5234,-4.7344,-4.8115,-4.8768,-4.9408,-5.0027,-5.0459,-5.0664,-5.1058,-5.131,-5.1292,-5.0874,-5.08,-5.1179,-5.0835,-5.0846,-5.209,-5.2734,-5.2905,-5.2931,-5.3208,-5.3372,-5.3359,-5.3469,-5.3589,-5.3621,-5.4156,-5.4536,-5.4568,-5.511,-5.549,-5.5451,-5.4475,-5.3498,-5.3498,-5.3456,-5.3403,-5.541,-5.4701,-5.3942,-5.3193,-5.248,-5.248,-5.248,-5.248,-5.248,-5.2595,-5.2783,-5.2944,-5.2884,-5.2685,-5.3144,-5.3362,-5.3417,-5.4074,-5.4484,-5.4613,-5.4629,-5.473,-5.492,-5.492,-5.492,-5.492,-5.492,-5.492,-5.4806,-5.3215,-5.1722,-5.0448,-4.878,-4.7023,-4.5208,-4.5115,-4.5824,-4.7193,-4.7701,-4.947,-5.2533,-5.2271,-5.1548,-5.0629,-5.008,-4.869,-4.6385,-4.6224,-4.5613,-4.4411,-4.3574,-4.2028,-3.9625,-3.6725,-3.4836,0.0,0.0,0.0,0.0,0.0,0.0,0.0,0.0,0.0,0.0,0.0,-3.7229,0.0,-3.9207,0.0,-4.1627,-4.2543,-4.3266,-4.3428,-4.4517,-4.5432,-4.5978,-4.6425,-4.7254,-4.8621,-4.9153,-4.9727,-5.0557,-5.1023,-5.1419,-5.1784,-5.2226,-5.2365,-5.1947,-5.1513,-5.155,-5.2325,-5.2135,-5.2096,-5.3144,-5.3946,-5.4316,-5.4056,-5.4475,-5.478,-5.4441,-5.4639,-5.4841,-5.4847,-5.519,-5.5486,-5.5496,-5.5831,-5.618,-5.6094,-5.5413,-5.48,-5.4676,-5.4628,-5.4529,-5.5317,-5.4661,-5.3904,-5.3243,-5.2578,-5.247,-5.2493,-5.248,-5.248,-5.2694,-5.3036,-5.337,-5.3528,-5.3548,-5.3606,-5.3625,-5.3625,-5.3683,-5.387,-5.421,-5.4245,-5.4468,-5.4807,-5.486,-5.4875,-5.489,-5.489,-5.489,-5.4814,-5.3185,-5.1883,-5.0974,-4.9208,-4.7137,-4.4814,-4.4624,-4.4636,-4.4762,-4.6599,-4.8745,-5.1231,-5.1087,-5.0032,-4.8141,-4.768,-4.6134,-4.333,-4.2963,-4.224,-4.0881,-4.017,-3.9405,-3.8474,-3.6222,-3.5129,0.0,-3.4173,0.0,0.0,0.0,0.0,0.0,0.0,0.0,0.0,-3.8598,-3.8814,-3.8883,-4.2477,-4.4253,-4.2893,-4.5589,-4.6861,-4.5613,-4.7334,-4.8486,-4.8056,-4.8652,-4.9201,-4.9393,-5.0137,-5.0876,-5.1648,-5.2408,-5.3162,-5.3674,-5.3769,-5.3629,-5.32,-5.2916,-5.3066,-5.3923,-5.4117,-5.3998,-5.4144,-5.4799,-5.5134,-5.4589,-5.5342,-5.6104,-5.5395,-5.5852,-5.6336,-5.6284,-5.6233,-5.6246,-5.6262,-5.6216,-5.6255,-5.6223,-5.6139,-5.6093,-5.6056,-5.597,-5.6029,-5.6119,-5.5328,-5.4536,-5.3806,-5.311,-5.2462,-5.2293,-5.248,-5.248,-5.2526,-5.2618,-5.2672,-5.2717,-5.2761,-5.3057,-5.3203,-5.3244,-5.3548,-5.3739,-5.3814,-5.3961,-5.4158,-5.4334,-5.4522,-5.4657,-5.4736,-5.4736,-5.4736,-5.4698,-5.3059,-5.1458,-4.9948,-4.7659,-4.5581,-4.3832,0.0,0.0,0.0,-4.5726,-4.7292,-4.8537,-4.7319,-4.6453,-4.6121,-4.4705,0.0,-4.1986,-4.1277,-4.1099,-4.1399,-4.1393,0.0,0.0,0.0,0.0,0.0,0.0,0.0,0.0,0.0,0.0,0.0,-3.875,-3.851,-3.8437,-4.0198,-4.1427,-4.1595,-4.3544,-4.4963,-4.5351,-4.6571,-4.7543,-4.7884,-4.8383,-4.9188,-5.0369,-5.0711,-5.131,-5.2696,-5.3046,-5.321,-5.3373,-5.3607,-5.3731,-5.3952,-5.393,-5.4183,-5.4709,-5.4177,-5.3828,-5.4023,-5.4646,-5.5035,-5.5033,-5.5682,-5.6135,-5.6082,-5.6166,-5.6367,-5.6186,-5.6242,-5.6417,-5.6381,-5.6414,-5.637,-5.6353,-5.6353,-5.6353,-5.6353,-5.6353,-5.6323,-5.6209,-5.6203,-5.6133,-5.6187,0.0,-5.4625,-5.3922,0.0,-5.2426,-5.2174,-5.2293,-5.2364,-5.241,-5.248,-5.248,-5.248,-5.2539,-5.2717,-5.2806,-5.2791,-5.303,-5.3203,-5.3427,-5.3585,-5.3795,-5.4034,-5.4248,-5.4388,-5.4439,-5.4576,-5.4608,-5.4511,-5.2959,-5.1541,-5.0281,-4.8221,-4.6561,-4.534,-4.451,-4.4109,-4.4259,-4.5176,-4.613,-4.7018,-4.6304,-4.51,-4.3576,0.0,0.0,0.0,0.0,0.0,0.0,0.0,0.0,0.0,0.0,0.0,-3.8878,-3.861,-3.8669,-3.9115,-3.9673,-4.0372,-4.1313,-4.2181,-4.1984,-4.0372,-4.2554,-4.4056,-4.4181,-4.5691,-4.6857,-4.7295,-4.8476,-4.9453,-4.9847,-5.0685,-5.16,-5.2354,-5.2528,-5.2849,-5.358,-5.3852,-5.4013,-5.4416,-5.4507,-5.4714,-5.505,-5.5155,-5.5327,-5.5689,-5.5171,-5.4758,-5.5192,-5.5623,-5.5937,-5.5976,-5.6247,-5.6549,-5.6499,-5.6475,-5.6491,-5.6475,-5.6457,-5.6433,-5.645,-5.6446,-5.6441,-5.6393,-5.6393,-5.6388,-5.6393,-5.6393,-5.6373,-5.6329,-5.6278,-5.6231,-5.6071,-5.5508,-5.4685,-5.401,-5.3358,-5.2568,-5.2197,-5.2078,0.0,0.0,0.0,-5.2434,-5.241,-5.241,-5.241,-5.2434,-5.247,-5.2434,-5.2627,-5.3008,-5.3115,-5.3383,-5.3739,-5.3981,-5.4072,-5.4125,-5.43,-5.4368,-5.4347,-5.2983,-5.1902,-5.0945,-4.9378,-4.806,-4.7156,-4.6454,-4.5817,-4.5204,-4.4877,-4.5088,-4.5858,-4.5718,-4.4341,-4.1666,-4.1266,-4.0165,-3.8213,-3.7915,-3.7591,-3.71,-3.7266,-3.7364,-3.7497,-3.8135,-3.9052,-4.037,-4.1254,-4.2049,-4.2757,-4.3111,-4.3528,-4.3909,-4.5286,-4.5164,-4.2911,-4.5025,-4.6451,-4.6451,-4.7988,-4.901,-4.9054,-5.0614,-5.1635,-5.1669,-5.2914,-5.3775,-5.3986,-5.3997,-5.4035,-5.4225,-5.4308,-5.4508,-5.5213,-5.5366,-5.5628,-5.623,-5.6293,-5.6471,-5.6404,-5.5928,-5.5716,-5.6273,-5.6393,-5.6554,-5.6561,-5.6562,-5.6601,-5.6553,-5.6502,-5.6491,-5.6477,-5.6506,-5.6491,-5.6471,-5.6471,-5.6464,-5.6453,-5.6414,-5.641,-5.641,-5.6406,-5.6398,-5.6416,-5.6397,-5.6335,-5.6374,-5.6196,-5.541,-5.4625,-5.384,-5.308,-5.2441,-5.1932,-5.2078,-5.215,-5.215,-5.215,-5.2174,-5.2174,-5.2174,-5.2222,-5.2293,-5.2198,-5.2317,0.0,-5.2672,-5.29,-5.3203,-5.3501,-5.3678,-5.3851,-5.3926,-5.3981,-5.3887,-5.3192,-5.2367,-5.1395,-4.9898,-4.8327,-4.6869,-4.672,-4.6682,-4.6642,-4.4877,-4.4064,-4.4233,-4.352,-4.2889,-4.2362,-4.1541,-4.0934,-4.0533,-3.9754,-3.9702,-4.0363,-4.0539,-4.0916,-4.1586,-4.1746,-4.1996,-4.2237,-4.2415,-4.2611,-4.2814,-4.3623,-4.4829,-4.6298,-4.67,-4.6414,-4.5531,-4.7062,-4.816,-4.8199,-4.9673,-5.0662,-5.0843,-5.2285,-5.3308,-5.3345,-5.3584,-5.4012,-5.475,-5.4852,-5.5091,-5.5728,-5.594,-5.588,-5.6003,-5.6086,-5.6114,-5.6344,-5.6407,-5.642,-5.6457,-5.64,-5.6383,-5.6475,-5.6487,-5.6536,-5.6588,-5.6599,-5.6601,-5.6562,-5.6597,-5.6549,-5.6502,-5.6497,-5.6491,-5.6482,-5.6516,-5.6516,-5.6516,-5.6477,-5.6475,-5.6475,-5.6467,-5.6497,-5.6491,-5.6457,-5.6441,-5.6383,-5.6311,-5.5526,-5.4741,-5.3894,-5.2743,-5.208,-5.1808,-5.1858,-5.198,-5.2102,-5.2102,-5.2102,-5.2102,-5.2102,-5.2126,-5.2174,-5.2126,-5.2174,-5.2293,-5.248,-5.2627,-5.2806,-5.3088,-5.3318,-5.3461,-5.362,-5.3699,-5.3683,-5.3051,-5.2287,-5.1393,-4.9864,-4.8518,-4.7378,-4.7404,-4.7273,-4.6862,-4.5593,-4.475,-4.4355,-4.357,-4.2902,-4.234,-4.1881,-4.1606,-4.1544,-4.1155,-4.1142,-4.1631,-4.1716,-4.1938,-4.2363,-4.2864,-4.3164,-4.3213,-4.3688,-4.4005,-4.4111,-4.5083,-4.6219,-4.7486,-4.8077,-4.8213,-4.7897,-4.8646,-4.934,-4.9826,-5.1009,-5.1922,-5.2401,-5.3603,-5.4361,-5.4356,-5.4751,-5.5223,-5.5592,-5.5721,-5.5844,-5.622,-5.6304,-5.6317,-5.6317,-5.629,-5.6314,-5.6347,-5.6368,-5.6441,-5.6476,-5.6488,-5.6503,-5.6491,-5.65,-5.6514,-5.6532,-5.6545,-5.6554,-5.6598,-5.6601,-5.6599,-5.6558,-5.6555,-5.6549,-5.6545,-5.6543,-5.6543,-5.6545,-5.6545,-5.6543,-5.6543,-5.6541,-5.6534,-5.6521,-5.6494,-5.6449,-5.6355,-5.6292,-5.5713,-5.492,-5.3859,-5.235,-5.1708,-5.1708,-5.1708,-5.1797,-5.2005,-5.2029,-5.2005,-5.2029,-5.2029,-5.2029,-5.2054,-5.2029,-5.2054,-5.2126,-5.2269,-5.241,-5.2503,-5.2775,-5.2974,-5.3124,-5.3297,-5.342,-5.339,-5.2934,-5.2177,-5.1176,-4.9838,-4.8776,-4.7995,-4.8112,-4.7895,-4.7286,-4.6674,-4.6053,-4.5342,-4.455,-4.3769,-4.3051,-4.2812,-4.2647,-4.2567,-4.2567,-4.2607,-4.2635,-4.2686,-4.2737,-4.2875,-4.3643,-4.4172,-4.4321,-4.5064,-4.5627,-4.5824,-4.6549,-4.7405,-4.8279,-4.8999,-4.9507,-4.9717,-5.0019,-5.048,-5.1231,-5.2222,-5.3143,-5.3778,-5.4638,-5.5157,-5.5201,-5.5797,-5.6121,-5.6233,-5.6278,-5.6285,-5.6291,-5.6291,-5.6298,-5.6298,-5.6317,-5.6296,-5.6314,-5.6358,-5.6437,-5.6455,-5.6503,-5.648,-5.65,-5.6475,-5.6488,-5.6475,-5.6482,-5.6532,-5.6587,-5.6597,-5.66,-5.6601,-5.6601,-5.6599,-5.6599,-5.6599,-5.6599,-5.6599,-5.6599,-5.6599,-5.6599,-5.6599,-5.6595,-5.6543,-5.6519,-5.6482,-5.6225,-5.6253,-5.6221,-5.5419,-5.3859,-5.235,-5.1708,-5.1708,-5.1708,-5.1697,-5.1722,-5.1722,-5.1758,-5.1758,-5.1758,-5.1833,-5.1907,-5.1808,-5.1882,-5.2078,-5.2005,-5.215,-5.2493,-5.2526,-5.2663,-5.2828,-5.298,-5.3045,-5.3088,-5.3025,-5.232,-5.102,-5.0138,-4.9307,-4.8641,-4.8709,-4.8776,-4.8702,-4.8087,-4.7522,-4.6902,-4.6156,-4.5666,-4.5485,-4.4756,-4.4339,-4.4257,-4.4257,-4.4298,-4.4366,-4.4366,-4.4406,-4.4548,-4.5291,-4.5808,-4.5873,-4.6657,-4.7289,-4.7525,-4.7657,-4.8105,-4.9005,-4.9179,-4.9632,-5.045,-5.1231,-5.1761,-5.223,-5.3454,-5.4318,-5.4619,-5.5363,-5.586,-5.5932,-5.6102,-5.6202,-5.6238,-5.6206,-5.6219,-5.6291,-5.6285,-5.6291,-5.6291,-5.6298,-5.631,-5.6302,-5.6347,-5.6388,-5.6437,-5.645,-5.6507,-5.6476,-5.6488,-5.6503,-5.6488,-5.65,-5.6514,-5.6528,-5.6501,-5.6549,-5.6593,-5.6595,-5.6596,-5.66,-5.6598,-5.6598,-5.6597,-5.6596,-5.6597,-5.656,-5.6562,-5.6523,-5.656,-5.6388,-5.6321,-5.6021,-5.6021,-5.6077,-5.5273,-5.3762,-5.2222,-5.1632,-5.1708,-5.1708,-5.1708,-5.1708,-5.1708,-5.1708,-5.1708,-5.1708,-5.1733,-5.1783,-5.1733,-5.1722,-5.1882,-5.1882,-5.198,-5.2126,-5.2293,-5.2457,-5.264,-5.2717,-5.2769,-5.2799,-5.2462,-5.1883,-5.1229,-5.0158,-4.9429,-4.9119,-4.8827,-4.8697,-4.8732,-4.8558,-4.836,-4.8061,-4.7005,-4.6405,-4.6344,-4.6081,-4.5946,-4.5983,-4.5998,-4.5998,-4.6026,-4.6041,-4.6003,-4.6045,-4.6426,-4.6656,-4.6736,-4.7135,-4.7694,-4.835,-4.8422,-4.8823,-4.9733,-4.9832,-5.0221,-5.113,-5.2006,-5.2741,-5.3392,-5.413,-5.4795,-5.5334,-5.573,-5.5998,-5.6046,-5.6062,-5.6086,-5.6194,-5.6202,-5.6209,-5.6231,-5.6245,-5.6219,-5.6226,-5.6278,-5.6304,-5.6296,-5.6331,-5.6347,-5.6383,-5.6441,-5.645,-5.6503,-5.6472,-5.6484,-5.6503,-5.6471,-5.6485,-5.65,-5.6475,-5.6528,-5.6538,-5.6545,-5.6549,-5.6592,-5.6592,-5.6592,-5.6594,-5.6593,-5.6593,-5.6476,-5.6051,-5.5819,-5.582,-5.5387,-5.5103,-5.5793,-5.5751,-5.5419,-5.4682,-5.3629,-5.2102,-5.1505,-5.1607,-5.1632,-5.1658,-5.1658,-5.1708,-5.1708,-5.1708,-5.1708,-5.1708,-5.1708,-5.1708,-5.1708,-5.1733,-5.1808,-5.1858,-5.1907,-5.2078,-5.2246,-5.2387,-5.2444,-5.2536,-5.2531,-5.2104,-5.1667,-5.1326,-5.0216,-4.9517,-4.9285,-4.8727,-4.8457,-4.8495,-4.8642,-4.8751,-4.8637,-4.7772,-4.7175,-4.713,-4.6884,-4.6817,-4.693,-4.693,-4.6945,-4.6997,-4.7012,-4.7012,-4.7012,-4.7243,-4.7513,-4.7782,-4.7923,-4.8323,-4.9009,-4.9125,-4.9466,-5.0062,-5.02,-5.0629,-5.1479,-5.2344,-5.326,-5.4061,-5.454,-5.5109,-5.5643,-5.5845,-5.5856,-5.5941,-5.5959,-5.6012,-5.6133,-5.6141,-5.6157,-5.6218,-5.6209,-5.6223,-5.6223,-5.6245,-5.6272,-5.6253,-5.6272,-5.6296,-5.6347,-5.6363,-5.6378,-5.645,-5.6455,-5.6507,-5.648,-5.6488,-5.6496,-5.651,-5.6488,-5.65,-5.6475,-5.6487,-5.6495,-5.6534,-5.658,-5.6585,-5.6623,-5.6624,-5.6354,-5.6121,-5.5577,-5.4996,-5.4958,-5.4375,-5.4101,-5.5507,-5.5355,-5.4204,-5.3714,-5.3458,-5.1971,-5.1324,-5.135,-5.1454,-5.1505,-5.1531,-5.1632,-5.1708,-5.1683,-5.1647,-5.1708,-5.1708,-5.1708,-5.1708,-5.1708,-5.1733,-5.1783,-5.1882,-5.1907,-5.2005,-5.2126,-5.2174,-5.2174,-5.2174,-5.2221,-5.1847,-5.1148,-5.0446,-4.9755,-4.9122,-4.849,-4.8207,-4.8246,-4.84,-4.8494,-4.8532,-4.8476,-4.8264,-4.7863,-4.718,-4.6838,-4.6877,-4.6855,-4.6922,-4.7034,-4.7109,-4.7072,-4.7124,-4.7763,-4.8521,-4.9288,-4.9475,-4.9584,-4.9707,-4.9752,-4.9857,-4.9986,-5.0038,-5.0469,-5.1434,-5.2247,-5.3086,-5.3976,-5.4779,-5.5324,-5.5554,-5.566,-5.5735,-5.5797,-5.5847,-5.5952,-5.6003,-5.6012,-5.6093,-5.6149,-5.6172,-5.618,-5.6226,-5.6218,-5.6233,-5.6209,-5.6223,-5.6226,-5.6265,-5.6296,-5.6331,-5.6412,-5.6432,-5.6441,-5.6464,-5.6472,-5.648,-5.6488,-5.65,-5.6503,-5.6475,-5.6488,-5.6497,-5.6467,-5.6358,-5.6365,-5.6526,-5.6374,-5.5946,-5.5482,-5.4667,-5.4165,-5.4053,-5.4019,-5.371,-5.5209,-5.5034,-5.3649,-5.3127,-5.312,-5.1641,-5.1105,-5.1298,-5.135,-5.1376,-5.1376,-5.1428,-5.1454,-5.1454,-5.1454,-5.1556,-5.1708,-5.1708,-5.1708,-5.1708,-5.1708,-5.1733,-5.1783,-5.1858,-5.1907,-5.198,-5.2054,-5.2102,-5.2102,-5.2174,-5.203,-5.1562,-5.0479,-4.9739,-4.9408,-4.8336,-4.7809,-4.7951,-4.8032,-4.8131,-4.8304,-4.8363,-4.8366,-4.8326,-4.8184,-4.8203,-4.8349,-4.8349,-4.8381,-4.8459,-4.8474,-4.849,-4.8611,-4.8852,-4.9198,-4.9537,-4.9619,-4.9663,-4.9721,-4.9764,-4.9792,-4.9807,-4.9835,-5.0496,-5.1661,-5.2309,-5.3034,-5.4296,-5.487,-5.5143,-5.5262,-5.5401,-5.5531,-5.5671,-5.5735,-5.5787,-5.5856,-5.5895,-5.5971,-5.6007,-5.602,-5.6117,-5.6157,-5.6218,-5.6218,-5.6218,-5.6233,-5.6216,-5.6213,-5.6253,-5.6284,-5.6325,-5.6352,-5.6407,-5.6417,-5.6489,-5.6507,-5.6472,-5.648,-5.6488,-5.6496,-5.6425,-5.6397,-5.6218,-5.6104,-5.5681,-5.5694,-5.5196,-5.4923,-5.4578,-5.3762,-5.3258,-5.3144,-5.2996,-5.2648,-5.4807,-5.4595,-5.3202,-5.2724,-5.2688,-5.1277,-5.0811,-5.1034,-5.1105,-5.1132,-5.1132,-5.1272,-5.1298,-5.1298,-5.1298,-5.1402,-5.1582,-5.1597,-5.1632,-5.1658,-5.1683,-5.1708,-5.1733,-5.1808,-5.1833,-5.1858,-5.1932,-5.198,-5.198,-5.198,-5.198,-5.1873,-5.0605,-4.9957,-4.9595,-4.8451,-4.7803,-4.7678,-4.7669,-4.7809,-4.8028,-4.8111,-4.8229,-4.84,-4.8587,-4.8838,-4.9098,-4.9115,-4.9144,-4.9241,-4.9257,-4.9311,-4.9396,-4.9412,-4.9406,-4.9452,-4.9468,-4.9498,-4.9544,-4.9574,-4.9574,-4.9589,-4.9671,-5.0409,-5.1964,-5.2258,-5.3164,-5.4413,-5.4897,-5.4927,-5.5014,-5.5154,-5.5326,-5.5449,-5.5581,-5.5649,-5.5735,-5.5787,-5.5865,-5.5905,-5.5961,-5.6025,-5.6084,-5.6093,-5.6093,-5.6101,-5.6093,-5.6117,-5.6133,-5.6163,-5.6251,-5.6259,-5.6302,-5.6358,-5.6381,-5.6412,-5.6432,-5.6437,-5.6338,-5.6386,-5.6277,-5.6242,-5.6059,-5.5922,-5.5545,-5.5048,-5.4552,-5.4055,-5.375,-5.3559,-5.2938,-5.2316,-5.2124,-5.1891,-5.1818,-5.4301,-5.4287,-5.2991,-5.2394,-5.2245,-5.0939,-5.0397,-5.0481,-5.0702,-5.0776,-5.0865,-5.1105,-5.1184,-5.1246,-5.1193,-5.1272,-5.1272,-5.1376,-5.1454,-5.1505,-5.1632,-5.1683,-5.1647,-5.1647,-5.1683,-5.1683,-5.1708,-5.1708,-5.1672,-5.1708,-5.1672,-5.159,-5.095,-5.0187,-4.9531,-4.8752,-4.8052,-4.7593,-4.7501,-4.7572,-4.7678,-4.7788,-4.7931,-4.8168,-4.8248,-4.8476,-4.8855,-4.8873,-4.8976,-4.9181,-4.916,-4.9197,-4.923,-4.923,-4.9214,-4.923,-4.923,-4.923,-4.9209,-4.9273,-4.9321,-4.9337,-4.9483,-5.0236,-5.1666,-5.2105,-5.2868,-5.4295,-5.4689,-5.472,-5.4799,-5.4867,-5.5028,-5.5236,-5.5351,-5.5488,-5.5581,-5.5671,-5.5745,-5.5817,-5.5847,-5.5895,-5.5895,-5.5914,-5.5924,-5.5924,-5.5933,-5.5961,-5.6003,-5.6029,-5.6078,-5.6163,-5.6219,-5.6246,-5.629,-5.6325,-5.6336,-5.6308,-5.6222,-5.6164,-5.5891,-5.5745,-5.5247,-5.503,-5.4418,-5.3923,-5.3439,-5.2986,-5.2804,-5.2537,-5.1876,-5.1607,-5.1572,-5.1537,-5.1496,-5.3915,-5.3809,-5.2498,-5.197,-5.192,-5.0568,-5.0028,-5.0257,-5.0341,-5.0425,-5.0537,-5.062,-5.0675,-5.0675,-5.0675,-5.0675,-5.0675,-5.0838,-5.1052,-5.1324,-5.1428,-5.1428,-5.1428,-5.1428,-5.1428,-5.1428,-5.1428,-5.1428,-5.1454,-5.1428,-5.1428,-5.1276,-5.0673,-5.02,-4.987,-4.8793,-4.7997,-4.7839,-4.7474,-4.7356,-4.7428,-4.7536,-4.7663,-4.7845,-4.7931,-4.8094,-4.8382,-4.8587,-4.8785,-4.8959,-4.9013,-4.9081,-4.9181,-4.9197,-4.9197,-4.9197,-4.9197,-4.9197,-4.9214,-4.923,-4.9209,-4.9262,-4.9311,-5.0113,-5.1445,-5.1778,-5.2578,-5.4091,-5.446,-5.4526,-5.4587,-5.4705,-5.4837,-5.5071,-5.5222,-5.5288,-5.5389,-5.5473,-5.5615,-5.5682,-5.5692,-5.5714,-5.5745,-5.5756,-5.5766,-5.5797,-5.5807,-5.5837,-5.5895,-5.5923,-5.5921,-5.5982,-5.6086,-5.6141,-5.6178,-5.6135,-5.6045,-5.5889,-5.5736,-5.5574,-5.5351,-5.486,-5.4441,-5.3905,-5.3329,-5.2879,-5.2398,-5.2142,-5.2002,-5.1901,-5.1594,-5.1445,-5.1412,-5.1373,-5.1412,-5.3416,-5.3247,-5.1989,-5.1471,-5.1427,-5.012,-4.9619,-4.9825,-4.9971,-5.0057,-5.0143,-5.02,-5.02,-5.0228,-5.02,-5.0257,-5.0313,-5.0425,-5.0647,-5.0981,-5.1167,-5.122,-5.1246,-5.1298,-5.1298,-5.1298,-5.1298,-5.1298,-5.1298,-5.1298,-5.1298,-5.1192,-5.0803,-5.0378,-5.0059,-4.8965,-4.8258,-4.7963,-4.7367,-4.7075,-4.7187,-4.7334,-4.7464,-4.7536,-4.7642,-4.7788,-4.8028,-4.8209,-4.8421,-4.8678,-4.8767,-4.8855,-4.8959,-4.8959,-4.8976,-4.8976,-4.8976,-4.8976,-4.9047,-4.9047,-4.9081,-4.9098,-4.9131,-4.9857,-5.1163,-5.1591,-5.237,-5.3843,-5.4233,-5.4303,-5.4371,-5.451,-5.4619,-5.4761,-5.4971,-5.5102,-5.5261,-5.5326,-5.5401,-5.5449,-5.5473,-5.5508,-5.5554,-5.5604,-5.5626,-5.5682,-5.5692,-5.5714,-5.5766,-5.5797,-5.5827,-5.5837,-5.5921,-5.6003,-5.6029,-5.5915,-5.5769,-5.5447,-5.512,-5.4885,-5.4641,-5.389,-5.3288,-5.2748,-5.2173,-5.2109,-5.1706,-5.1597,-5.1495,-5.1362,-5.138,-5.1389,-5.1391,-5.1403,-5.1406,-5.2868,-5.2702,-5.1497,-5.0991,-5.082,-4.9757,-4.9236,-4.926,-4.953,-4.9679,-4.9708,-4.9825,-4.9884,-4.9884,-4.9884,-4.9971,-5.0114,-5.0114,-5.0171,-5.0425,-5.0737,-5.0927,-5.1008,-5.1114,-5.1141,-5.1167,-5.122,-5.1246,-5.1158,-5.122,-5.1272,-5.1246,-5.114,-5.0918,-5.0185,-4.9361,-4.8643,-4.7995,-4.7275,-4.7025,-4.6998,-4.7088,-4.7223,-4.7298,-4.7443,-4.7515,-4.7699,-4.7809,-4.8072,-4.8438,-4.8569,-4.8642,-4.8587,-4.8624,-4.8623,-4.8641,-4.8642,-4.8696,-4.8787,-4.8822,-4.8803,-4.8873,-4.9165,-4.9792,-5.1152,-5.1672,-5.2359,-5.3813,-5.4073,-5.4109,-5.4145,-5.4268,-5.4371,-5.446,-5.4714,-5.4971,-5.513,-5.517,-5.5223,-5.5262,-5.5275,-5.5301,-5.5364,-5.5364,-5.5401,-5.5488,-5.5473,-5.5535,-5.5581,-5.5626,-5.5671,-5.5724,-5.5758,-5.5818,-5.5847,-5.5457,-5.523,-5.4591,-5.4234,-5.3902,-5.3682,-5.298,-5.238,-5.1802,-5.1463,-5.1327,-5.1264,-5.1269,-5.1252,-5.1285,-5.1303,-5.1356,-5.1372,-5.1386,-5.1394,-5.2449,-5.2385,-5.1797,-5.1263,-5.0693,-4.9851,-4.9207,-4.8861,-4.9077,-4.9229,-4.935,-4.953,-4.959,-4.959,-4.959,-4.9619,-4.9649,-4.9679,-4.9679,-4.9737,-4.9942,-5.0257,-5.0544,-5.062,-5.0647,-5.0647,-5.0784,-5.0776,-5.0811,-5.0954,-5.1008,-5.0981,-5.1008,-5.0937,-5.062,-4.9924,-4.9235,-4.8494,-4.784,-4.7228,-4.6814,-4.6824,-4.6975,-4.7053,-4.7223,-4.7334,-4.7407,-4.76,-4.7911,-4.8306,-4.8476,-4.8569,-4.855,-4.855,-4.855,-4.855,-4.8605,-4.8624,-4.8642,-4.8642,-4.866,-4.8715,-4.9232,-5.0084,-5.1083,-5.1844,-5.266,-5.3589,-5.3926,-5.4019,-5.4037,-5.4091,-5.418,-5.4285,-5.4554,-5.486,-5.4941,-5.5028,-5.5099,-5.5116,-5.5168,-5.5181,-5.5157,-5.517,-5.5197,-5.5249,-5.5288,-5.5301,-5.5364,-5.5376,-5.5425,-5.5473,-5.5543,-5.5632,-5.5553,-5.5123,-5.4564,-5.376,-5.321,-5.2694,-5.2482,-5.2072,-5.1613,-5.1186,-5.125,-5.119,-5.1169,-5.1142,-5.1152,-5.1234,-5.1256,-5.1308,-5.1303,-5.1323,-5.1369,-5.2056,-5.2059,-5.1545,-5.0955,-5.0325,-4.9626,-4.9024,-4.8616,-4.8704,-4.8829,-4.8923,-4.9015,-4.9077,-4.9077,-4.9077,-4.9107,-4.9168,-4.9168,-4.9199,-4.932,-4.9441,-4.9767,-5.0114,-5.0257,-5.0313,-5.0313,-5.0453,-5.0509,-5.0564,-5.0675,-5.0757,-5.0819,-5.0846,-5.0908,-5.083,-5.018,-4.9635,-4.9001,-4.8247,-4.7437,-4.7049,-4.6779,-4.6731,-4.6824,-4.6975,-4.7075,-4.7232,-4.7407,-4.7705,-4.8032,-4.8209,-4.8306,-4.8363,-4.8363,-4.8326,-4.8363,-4.8363,-4.8326,-4.842,-4.8458,-4.8513,-4.8698,-4.9344,-5.0175,-5.1062,-5.1877,-5.271,-5.3489,-5.3735,-5.3793,-5.3794,-5.3889,-5.4018,-5.4163,-5.4371,-5.4592,-5.4698,-5.4807,-5.4867,-5.4912,-5.4927,-5.4941,-5.4971,-5.5,-5.5057,-5.5088,-5.5143,-5.5157,-5.5197,-5.5197,-5.521,-5.5275,-5.5326,-5.5425,-5.5251,-5.4842,-5.3993,-5.3147,-5.2289,-5.1743,-5.1625,-5.1346,-5.1206,-5.102,-5.1027,-5.1041,-5.1069,-5.1056,-5.1107,-5.1192,-5.1219,-5.1215,-5.1248,-5.1277,-5.1328,-5.1758,-5.1729,-5.1074,-5.0427,-4.9879,-4.9323,-4.873,-4.823,-4.8324,-4.842,-4.842,-4.842,-4.8515,-4.8452,-4.8578,-4.8578,-4.8702,-4.8767,-4.8829,-4.8923,-4.9077,-4.9316,-4.9649,-4.9942,-5.0057,-5.0086,-5.0257,-5.0313,-5.0369,-5.0509,-5.0557,-5.0647,-5.0764,-5.0846,-5.0741,-5.0206,-4.9846,-4.9451,-4.8438,-4.7713,-4.7386,-4.6883,-4.659,-4.6613,-4.6731,-4.687,-4.7053,-4.7209,-4.7371,-4.7669,-4.787,-4.7951,-4.7972,-4.7972,-4.7972,-4.7992,-4.8032,-4.8072,-4.8168,-4.8229,-4.8416,-4.8694,-4.9415,-5.0228,-5.1111,-5.1959,-5.2736,-5.3404,-5.3461,-5.3501,-5.3561,-5.3678,-5.3813,-5.3963,-5.4055,-5.4198,-5.4388,-5.4554,-5.4657,-5.4673,-5.4689,-5.472,-5.4783,-5.4845,-5.492,-5.4927,-5.4971,-5.4985,-5.5014,-5.5014,-5.5057,-5.5127,-5.5195,-5.521,-5.4931,-5.4571,-5.3568,-5.256,-5.1557,-5.0981,-5.1073,-5.0949,-5.0943,-5.089,-5.0945,-5.0952,-5.0975,-5.1012,-5.1055,-5.1082,-5.1076,-5.1119,-5.1153,-5.1196,-5.1259,-5.1573,-5.154,-5.1594,-5.0815,-4.9768,-4.9508,-4.8787,-4.7737,-4.7836,-4.7902,-4.7902,-4.8033,-4.8196,-4.826,-4.826,-4.8356,-4.845,-4.8515,-4.8578,-4.8578,-4.861,-4.8673,-4.8954,-4.935,-4.9619,-4.9708,-4.9913,-4.9999,-5.0086,-5.0285,-5.0453,-5.0453,-5.0592,-5.0675,-5.0632,-5.0608,-5.0303,-4.9671,-4.8818,-4.808,-4.7473,-4.6868,-4.6482,-4.6471,-4.659,-4.6661,-4.6731,-4.6847,-4.6939,-4.7098,-4.7349,-4.76,-4.772,-4.7762,-4.7762,-4.7747,-4.7809,-4.7834,-4.7911,-4.8065,-4.8364,-4.9005,-4.9756,-5.0597,-5.1423,-5.2297,-5.2894,-5.3214,-5.3297,-5.3359,-5.344,-5.3538,-5.358,-5.3678,-5.3794,-5.3889,-5.4,-5.4251,-5.4476,-5.4522,-5.4625,-5.4689,-5.4705,-5.472,-5.4752,-5.4767,-5.4783,-5.4799,-5.4814,-5.4829,-5.4905,-5.4956,-5.4971,-5.5004,-5.4773,-5.4155,-5.2867,-5.197,-5.1004,-5.0483,-5.0586,-5.0664,-5.0701,-5.0756,-5.0846,-5.0863,-5.0855,-5.0897,-5.0937,-5.0968,-5.0998,-5.1009,-5.1056,-5.1101,-5.1175,-5.135,-5.1387,-5.1499,-5.0921,-5.0014,-4.9589,-4.8873,-4.8027,-4.7669,-4.7605,-4.7605,-4.7737,-4.7803,-4.7869,-4.7869,-4.7935,-4.8,-4.8,-4.8,-4.8033,-4.8065,-4.813,-4.8227,-4.8642,-4.8984,-4.9229,-4.9471,-4.9619,-4.9767,-4.9999,-5.0171,-5.02,-5.0397,-5.0509,-5.0509,-5.062,-5.0465,-5.0099,-4.9398,-4.8653,-4.7924,-4.7226,-4.6656,-4.6469,-4.6495,-4.6542,-4.6613,-4.6661,-4.6708,-4.6778,-4.6939,-4.7165,-4.7356,-4.7421,-4.7464,-4.7486,-4.7536,-4.7542,-4.7621,-4.8067,-4.8529,-4.9001,-5.0039,-5.0868,-5.1566,-5.2309,-5.2799,-5.298,-5.3045,-5.313,-5.3235,-5.3318,-5.3339,-5.342,-5.3541,-5.3639,-5.3717,-5.4,-5.4251,-5.432,-5.4426,-5.446,-5.4493,-5.4559,-5.4571,-5.4603,-5.4705,-5.472,-5.4736,-5.4752,-5.4752,-5.4799,-5.4799,-5.4746,-5.4562,-5.3674,-5.2158,-5.1294,-5.0541,-5.0294,-5.0363,-5.044,-5.0504,-5.0586,-5.0712,-5.0712,-5.0721,-5.0767,-5.0812,-5.0808,-5.085,-5.0937,-5.0983,-5.0981,-5.1023,-5.1124,-5.1124,-5.1124,-5.0816,-5.0249,-4.9534,-4.8893,-4.835,-4.7697,-4.7369,-4.7403,-4.7403,-4.7436,-4.747,-4.747,-4.747,-4.7504,-4.7537,-4.7604,-4.7637,-4.7704,-4.7737,-4.7803,-4.8033,-4.8356,-4.8767,-4.9046,-4.9229,-4.9441,-4.9679,-4.9796,-4.9884,-5.0171,-5.0285,-5.0313,-5.0397,-5.0446,-5.0382,-4.9719,-4.9151,-4.8566,-4.7882,-4.7197,-4.6674,-4.6312,-4.6326,-4.6374,-4.6423,-4.6447,-4.6471,-4.6471,-4.6661,-4.6955,-4.702,-4.7111,-4.7111,-4.7308,-4.7496,-4.772,-4.8241,-4.8848,-4.9014,-5.0186,-5.1167,-5.162,-5.2137,-5.2495,-5.2672,-5.2739,-5.2806,-5.2915,-5.3002,-5.313,-5.3214,-5.3339,-5.342,-5.3501,-5.3775,-5.3944,-5.4073,-5.418,-5.4306,-5.4323,-5.4337,-5.4405,-5.4455,-5.4576,-5.4625,-5.4625,-5.4625,-5.4592,-5.4625,-5.4641,-5.4343,-5.4148,-5.3518,-5.1947,-5.1051,-5.0253,-5.0126,-5.0175,-5.0248,-5.034,-5.0478,-5.0542,-5.0553,-5.0594,-5.0644,-5.0693,-5.0682,-5.071,-5.0794,-5.0838,-5.088,-5.0929,-5.0705,-5.0705,-5.0705,-5.0402,-4.9812,-4.9102,-4.8566,-4.7999,-4.7385,-4.6996,-4.6996,-4.6996,-4.7131,-4.7167,-4.7235,-4.7335,-4.7369,-4.7403,-4.7436,-4.7436,-4.7504,-4.7504,-4.7537,-4.7604,-4.777,-4.8033,-4.8418,-4.8829,-4.9046,-4.9229,-4.9411,-4.959,-4.9825,-4.9971,-5.0086,-5.0228,-5.0341,-5.0328,-4.9736,-4.9304,-4.8974,-4.8346,-4.7649,-4.6968,-4.6514,-4.6234,-4.6095,-4.6025,-4.5965,-4.593,-4.593,-4.6399,-4.6866,-4.693,-4.6873,-4.7051,-4.7536,-4.7855,-4.7986,-4.8698,-4.9543,-5.0175,-5.0689,-5.1227,-5.1754,-5.2054,-5.2233,-5.2351,-5.2444,-5.2499,-5.2635,-5.2717,-5.2783,-5.2872,-5.3002,-5.3109,-5.3214,-5.338,-5.358,-5.3756,-5.3944,-5.4109,-5.4127,-5.4163,-5.4216,-5.4268,-5.4303,-5.4375,-5.432,-5.4357,-5.4357,-5.4409,-5.4439,-5.4048,-5.367,-5.2953,-5.1945,-5.113,-5.0426,-5.0037,-5.005,-5.0089,-5.0214,-5.0321,-5.039,-5.0435,-5.0478,-5.0521,-5.0532,-5.0514,-5.0594,-5.0644,-5.0683,-5.0721,-5.0747,-5.0589,-5.0589,-5.0589,-5.0474,-5.0101,-4.9459,-4.879,-4.8224,-4.7484,-4.6936,-4.6676,-4.658,-4.6649,-4.6719,-4.6719,-4.6858,-4.6996,-4.703,-4.7098,-4.7132,-4.7167,-4.7199,-4.7233,-4.7301,-4.737,-4.7538,-4.7902,-4.8292,-4.8578,-4.8829,-4.9046,-4.9229,-4.9441,-4.959,-4.9708,-4.9825,-5.0028,-4.9982,-4.9762,-4.9465,-4.9256,-4.8526,-4.79,-4.7552,-4.7239,-4.703,-4.6995,-4.6995,-4.6995,-4.703,-4.6995,-4.7204,-4.7387,-4.7508,-4.7448,-4.7643,-4.8098,-4.8409,-4.854,-4.9217,-4.9906,-5.0275,-5.0727,-5.123,-5.1615,-5.1772,-5.1871,-5.2018,-5.2126,-5.2209,-5.2327,-5.2397,-5.2467,-5.2536,-5.2672,-5.2806,-5.2915,-5.3045,-5.3214,-5.342,-5.3602,-5.3776,-5.3944,-5.3981,-5.4055,-5.4073,-5.4091,-5.4073,-5.4055,-5.4091,-5.4164,-5.4198,-5.4231,-5.3962,-5.3478,-5.2806,-5.2092,-5.1246,-5.0525,-5.0155,-4.9906,-4.9971,-5.005,-5.0152,-5.0226,-5.0262,-5.0309,-5.0294,-5.0306,-5.034,-5.0446,-5.05,-5.0511,-5.0553,-5.0586,-5.0356,-5.0324,-5.0395,-5.0402,-5.0345,-4.9745,-4.9047,-4.8413,-4.7713,-4.6973,-4.6362,-4.6298,-4.6333,-4.6298,-4.6333,-4.6404,-4.6512,-4.6547,-4.6649,-4.6754,-4.6789,-4.6789,-4.6823,-4.6927,-4.703,-4.7098,-4.7302,-4.7637,-4.8098,-4.842,-4.8642,-4.8829,-4.8984,-4.9168,-4.932,-4.9441,-4.959,-4.9708,-4.9791,-4.9625,-4.9271,-4.866,-4.8209,-4.8174,-4.8132,-4.7931,-4.78,-4.7765,-4.78,-4.78,-4.7897,-4.8001,-4.8201,-4.8298,-4.8502,-4.8785,-4.8914,-4.8947,-4.9148,-4.9677,-5.0162,-5.0407,-5.0866,-5.1192,-5.1428,-5.1531,-5.1556,-5.1733,-5.1783,-5.1833,-5.198,-5.2042,-5.2174,-5.2269,-5.2351,-5.2477,-5.2604,-5.2717,-5.2828,-5.3008,-5.3261,-5.3444,-5.362,-5.3756,-5.3794,-5.3813,-5.3832,-5.3851,-5.3832,-5.3926,-5.3963,-5.4036,-5.3997,-5.3846,-5.3429,-5.2878,-5.2172,-5.1447,-5.0749,-5.0183,-4.9939,-4.9792,-4.989,-4.9971,-4.9984,-4.9999,-5.0038,-5.0114,-5.0175,-5.0236,-5.0309,-5.0333,-5.0344,-5.039,-5.0418,-4.9452,-4.9493,-4.9653,-4.9812,-4.9884,-4.9437,-4.8961,-4.8408,-4.7737,-4.6969,-4.6323,-4.6262,-4.6262,-4.6262,-4.6262,-4.6298,-4.6333,-4.6333,-4.6369,-4.6439,-4.6439,-4.6439,-4.6404,-4.6369,-4.658,-4.6719,-4.6892,-4.7268,-4.7638,-4.7935,-4.8196,-4.8356,-4.861,-4.8798,-4.8827,-4.9077,-4.9229,-4.932,-4.9441,-4.9551,-4.9521,-4.9016,-4.8763,-4.8556,-4.8273,-4.799,-4.8093,-4.8093,-4.8024,-4.7928,-4.7859,-4.8107,-4.8584,-4.8896,-4.9368,-4.9625,-4.9597,-4.9253,-4.942,-4.9928,-5.0395,-5.0522,-5.0795,-5.1026,-5.1132,-5.1246,-5.1272,-5.135,-5.1376,-5.1479,-5.1582,-5.1607,-5.1733,-5.1858,-5.2005,-5.215,-5.2233,-5.2351,-5.249,-5.2604,-5.2813,-5.303,-5.3219,-5.34,-5.3541,-5.3561,-5.358,-5.358,-5.3639,-5.3717,-5.3794,-5.3851,-5.3889,-5.3702,-5.3423,-5.288,-5.237,-5.1707,-5.1078,-5.0385,-5.0101,-4.9935,-4.9768,-4.984,-4.9816,-4.9862,-4.9971,-5.0063,-5.0076,-5.0101,-5.0114,-5.0152,-5.0152,-5.0175,-5.0259,-4.8852,-4.9331,-4.9381,-4.9493,-4.951,-4.9347,-4.8922,-4.8338,-4.7725,-4.7067,-4.6439,-4.6099,-4.6008,-4.6008,-4.6008,-4.608,-4.6152,-4.6187,-4.6227,-4.6262,-4.6262,-4.6298,-4.6298,-4.6298,-4.6369,-4.6439,-4.6509,-4.6615,-4.703,-4.7437,-4.7803,-4.7935,-4.8163,-4.8356,-4.842,-4.8673,-4.8796,-4.8951,-4.9199,-4.9411,-4.9492,-4.9399,-4.9315,-4.9315,-4.9057,-4.8947,-4.8913,-4.901,-4.8919,-4.8862,-4.8833,-4.8936,-4.9246,-4.9436,-4.9631,-4.9953,-4.9872,-4.9777,-4.9952,-5.023,-5.0384,-5.0537,-5.0592,-5.0647,-5.0757,-5.0811,-5.0892,-5.1026,-5.1026,-5.1105,-5.1289,-5.1376,-5.1454,-5.1531,-5.1632,-5.1733,-5.1882,-5.2029,-5.215,-5.2233,-5.2351,-5.2604,-5.285,-5.3023,-5.3193,-5.3318,-5.3322,-5.34,-5.344,-5.3541,-5.36,-5.3639,-5.3659,-5.3641,-5.3327,-5.2939,-5.2624,-5.2045,-5.1611,-5.0983,-5.0456,-5.0159,-5.0093,-4.9845,-4.9768,-4.9816,-4.9876,-4.9903,-4.9917,-4.9944,-4.9984,-4.9997,-5.0037,-5.0114,-5.0177,-4.8385,-4.8975,-4.9087,-4.9097,-4.9138,-4.9219,-4.8925,-4.8301,-4.7668,-4.7025,-4.6404,-4.5924,-4.5719,-4.5719,-4.5792,-4.59,-4.604,-4.604,-4.608,-4.6152,-4.6187,-4.6152,-4.6152,-4.612,-4.6187,-4.6227,-4.6294,-4.6333,-4.6509,-4.689,-4.7235,-4.7504,-4.777,-4.7935,-4.8033,-4.8195,-4.8354,-4.8576,-4.8889,-4.9138,-4.932,-4.9466,-4.9555,-4.9615,-4.9772,-4.986,-4.986,-4.9791,-4.9669,-4.9576,-4.9512,-4.9478,-4.9546,-4.9576,-4.9639,-4.983,-4.9756,-4.9844,-4.9988,-5.0171,-5.0285,-5.0341,-5.0397,-5.0453,-5.0425,-5.0397,-5.0453,-5.0702,-5.0729,-5.0838,-5.0999,-5.1026,-5.1079,-5.1132,-5.1237,-5.135,-5.1454,-5.1632,-5.1783,-5.1907,-5.1993,-5.2174,-5.2374,-5.2604,-5.2806,-5.2987,-5.3093,-5.3136,-5.3198,-5.3277,-5.3318,-5.3339,-5.3359,-5.338,-5.3276,-5.2984,-5.2692,-5.2455,-5.1992,-5.1507,-5.0956,-5.0663,-5.0579,-5.0278,-4.9883,-4.9672,-4.9687,-4.9724,-4.9721,-4.9792,-4.9848,-4.9876,-4.9931,-5.0011,-5.0063,-4.8049,-4.8133,-4.851,-4.8604,-4.8687,-4.9097,-4.8916,-4.8235,-4.7536,-4.6889,-4.6247,-4.5771,-4.5499,-4.5568,-4.5646,-4.575,-4.5823,-4.5792,-4.5828,-4.5859,-4.5859,-4.5896,-4.59,-4.5936,-4.5936,-4.6044,-4.6112,-4.6152,-4.6262,-4.6401,-4.6684,-4.6961,-4.7335,-4.7504,-4.7604,-4.7737,-4.8,-4.826,-4.8547,-4.8765,-4.8984,-4.9138,-4.932,-4.9471,-4.9535,-4.9564,-4.95,-4.953,-4.95,-4.9471,-4.9441,-4.9471,-4.9441,-4.9475,-4.9505,-4.9624,-4.9624,-4.9683,-4.9772,-4.9918,-5.0063,-5.0171,-5.0257,-5.0285,-5.0257,-5.0341,-5.0397,-5.0425,-5.0453,-5.0481,-5.0509,-5.0481,-5.0702,-5.0811,-5.0919,-5.0999,-5.1105,-5.1237,-5.1428,-5.1531,-5.1683,-5.1833,-5.198,-5.2186,-5.2444,-5.2672,-5.2783,-5.285,-5.2835,-5.2879,-5.2959,-5.298,-5.3002,-5.303,-5.3136,-5.2941,-5.2762,-5.2662,-5.2355,-5.1898,-5.1398,-5.1246,-5.1183,-5.0637,-5.0235,-4.9845,-4.9503,-4.9518,-4.9567,-4.9686,-4.9721,-4.975,-4.9778,-4.9848,-4.9903,-4.7149,-4.7149,-4.7422,-4.7807,-4.826,-4.8427,-4.8357,-4.8091,-4.7648,-4.6967,-4.614,-4.5622,-4.5278,-4.5315,-4.5383,-4.5426,-4.5426,-4.5573,-4.5604,-4.5677,-4.5714,-4.5787,-4.5823,-4.5787,-4.5859,-4.5896,-4.5932,-4.5932,-4.5972,-4.6243,-4.6255,-4.6506,-4.6989,-4.7064,-4.7201,-4.7436,-4.7671,-4.7869,-4.813,-4.8356,-4.8515,-4.8798,-4.8984,-4.9168,-4.929,-4.9381,-4.9441,-4.9381,-4.929,-4.9168,-4.9107,-4.9107,-4.9202,-4.9202,-4.926,-4.9411,-4.9411,-4.9411,-4.9441,-4.9624,-4.9713,-4.9772,-4.9796,-4.9884,-4.9999,-4.9971,-5.0114,-5.0171,-5.0257,-5.0257,-5.0404,-5.0432,-5.0481,-5.0537,-5.0592,-5.0675,-5.0784,-5.0946,-5.1026,-5.1132,-5.135,-5.1531,-5.1658,-5.1808,-5.2078,-5.2317,-5.2434,-5.2549,-5.2559,-5.2581,-5.2627,-5.2649,-5.2672,-5.2717,-5.2791,-5.2784,-5.2812,-5.2758,-5.2684,-5.229,-5.1912,-5.1991,-5.1844,-5.1174,-5.0578,-5.0241,-4.9901,-4.9496,-4.9402,-4.9437,-4.9529,-4.9589,-4.9648,-4.9692,-4.9736,-4.6358,-4.6403,-4.6506,-4.6989,-4.7666,-4.7752,-4.7837,-4.7801,-4.7444,-4.681,-4.5904,-4.529,-4.5055,-4.5092,-4.5167,-4.5204,-4.5241,-4.5352,-4.5389,-4.5426,-4.5499,-4.5641,-4.5609,-4.5609,-4.5604,-4.5672,-4.5966,-4.6066,-4.6097,-4.6439,-4.6734,-4.6884,-4.682,-4.6904,-4.6823,-4.7098,-4.737,-4.7504,-4.7737,-4.7902,-4.8098,-4.8324,-4.8578,-4.8736,-4.8892,-4.9015,-4.9077,-4.9015,-4.8923,-4.8829,-4.8767,-4.8736,-4.8798,-4.8861,-4.8984,-4.9107,-4.9199,-4.9199,-4.9229,-4.9411,-4.9471,-4.956,-4.953,-4.959,-4.9619,-4.9649,-4.9796,-4.9913,-4.9999,-5.0086,-5.02,-5.0206,-5.0291,-5.0341,-5.0369,-5.0425,-5.0509,-5.0647,-5.0675,-5.0757,-5.0946,-5.1105,-5.1289,-5.1444,-5.1833,-5.2078,-5.2246,-5.228,-5.2304,-5.2327,-5.2351,-5.2351,-5.2351,-5.2397,-5.2408,-5.2463,-5.2576,-5.2688,-5.2623,-5.27,-5.2516,-5.2532,-5.2299,-5.1653,-5.11,-5.0694,-5.0286,-4.9913,-4.9548,-4.9214,-4.9311,-4.9368,-4.9468,-4.9514,-4.9589,-4.5792,-4.5837,-4.5837,-4.624,-4.6887,-4.7193,-4.7396,-4.7448,-4.69,-4.6223,-4.5476,-4.4895,-4.4716,-4.4867,-4.4942,-4.498,-4.5017,-4.5092,-4.5167,-4.5167,-4.5434,-4.5335,-4.5397,-4.5466,-4.5753,-4.5528,-4.6016,-4.6473,-4.6504,-4.7063,-4.7524,-4.7504,-4.7215,-4.6861,-4.6429,-4.6719,-4.6927,-4.6996,-4.7335,-4.7504,-4.7671,-4.7902,-4.8098,-4.826,-4.842,-4.8547,-4.8578,-4.8547,-4.8483,-4.8452,-4.8388,-4.8388,-4.8452,-4.8452,-4.8515,-4.8578,-4.8578,-4.8547,-4.8578,-4.9138,-4.929,-4.932,-4.926,-4.935,-4.9441,-4.9471,-4.953,-4.9649,-4.9708,-4.9737,-4.9796,-4.9889,-5.0034,-5.0057,-5.0086,-5.0143,-5.0228,-5.0313,-5.0369,-5.0481,-5.0592,-5.0702,-5.0919,-5.1158,-5.1521,-5.1797,-5.2029,-5.2066,-5.2042,-5.1993,-5.1969,-5.1969,-5.1969,-5.2066,-5.2114,-5.2209,-5.2327,-5.248,-5.2581,-5.2593,-5.2689,-5.2709,-5.2391,-5.1977,-5.1597,-5.1163,-5.0743,-5.0302,-4.9991,-4.9635,-4.921,-4.9214,-4.9262,-4.9439,-4.9652,-4.5338,-4.5338,-4.5338,-4.5475,-4.5792,-4.6358,-4.6712,-4.6812,-4.6548,-4.6033,-4.5506,-4.5047,-4.4586,-4.4458,-4.4343,-4.445,-4.4488,-4.4754,-4.483,-4.4892,-4.5421,-4.5828,-4.5915,-4.6088,-4.6375,-4.6577,-4.6903,-4.6966,-4.6966,-4.7558,-4.7456,-4.7338,-4.7473,-4.6977,-4.651,-4.6474,-4.6509,-4.658,-4.6858,-4.7132,-4.7201,-4.7471,-4.7737,-4.7836,-4.7935,-4.8033,-4.813,-4.8065,-4.8,-4.7968,-4.7935,-4.7902,-4.7968,-4.7968,-4.8033,-4.8131,-4.8164,-4.813,-4.8196,-4.842,-4.8578,-4.8736,-4.8892,-4.8984,-4.9107,-4.9138,-4.9294,-4.9445,-4.9471,-4.953,-4.959,-4.9619,-4.9679,-4.9679,-4.9708,-4.9767,-4.9854,-4.9999,-5.0114,-5.0257,-5.0397,-5.0564,-5.0757,-5.0838,-5.1184,-5.1393,-5.1546,-5.1622,-5.1597,-5.1546,-5.1521,-5.1521,-5.1556,-5.1647,-5.1772,-5.1871,-5.2018,-5.2198,-5.2317,-5.2384,-5.2536,-5.2649,-5.2593,-5.2186,-5.1944,-5.1663,-5.1197,-5.0802,-5.0495,-5.0135,-4.9639,-4.9334,-4.9399,-4.9711,-5.0077,-4.4862,-4.4862,-4.4862,-4.4908,-4.5092,-4.5566,-4.6046,-4.6241,-4.6032,-4.5722,-4.5327,-4.486,-4.4357,-4.3953,-4.384,-4.3949,-4.4026,-4.4258,-4.4688,-4.4788,-4.538,-4.5758,-4.6136,-4.6554,-4.6397,-4.6832,-4.7207,-4.7339,-4.737,-4.7746,-4.7856,-4.7809,-4.7692,-4.7404,-4.6951,-4.6752,-4.6642,-4.6685,-4.6802,-4.6684,-4.6823,-4.703,-4.7335,-4.7437,-4.7538,-4.7704,-4.7704,-4.7605,-4.7471,-4.7437,-4.737,-4.7335,-4.7404,-4.7437,-4.7504,-4.7571,-4.7704,-4.7671,-4.7737,-4.7836,-4.7968,-4.8098,-4.826,-4.8515,-4.8736,-4.8798,-4.8923,-4.9046,-4.9199,-4.926,-4.929,-4.932,-4.9381,-4.9381,-4.9471,-4.953,-4.959,-4.9737,-4.9796,-4.9971,-5.0114,-5.0341,-5.0564,-5.0647,-5.0811,-5.0946,-5.1052,-5.1132,-5.1211,-5.1272,-5.1272,-5.1272,-5.1298,-5.1428,-5.1495,-5.1546,-5.1672,-5.1846,-5.2005,-5.2126,-5.2222,-5.2304,-5.2374,-5.2431,-5.2204,-5.1952,-5.1624,-5.125,-5.0911,-5.0517,-4.9978,-4.9768,-4.9657,-5.0061,-5.0578,-4.4425,-4.4425,-4.4425,-4.4565,-4.4815,-4.5046,-4.5413,-4.5837,-4.5449,-4.5183,-4.4917,-4.4365,-4.3945,-4.3668,-4.3626,-4.3765,-4.4004,-4.4122,-4.4486,-4.4889,-4.5333,-4.5637,-4.5941,-4.6184,-4.6508,-4.6651,-4.6997,-4.765,-4.7711,-4.8192,-4.8395,-4.8337,-4.8204,-4.7973,-4.768,-4.7372,-4.7241,-4.7066,-4.6769,-4.6689,-4.6696,-4.6749,-4.6858,-4.6996,-4.7132,-4.7201,-4.7167,-4.7098,-4.703,-4.6961,-4.6892,-4.6892,-4.6892,-4.6892,-4.6892,-4.6927,-4.7098,-4.7132,-4.7167,-4.7301,-4.7403,-4.7504,-4.7803,-4.8163,-4.8388,-4.842,-4.8515,-4.861,-4.8736,-4.8861,-4.8923,-4.9077,-4.9199,-4.9229,-4.932,-4.9381,-4.9411,-4.9471,-4.95,-4.959,-4.9708,-4.9913,-5.02,-5.0341,-5.0453,-5.0647,-5.0784,-5.0892,-5.0999,-5.1167,-5.1193,-5.1193,-5.122,-5.1246,-5.1298,-5.135,-5.1428,-5.1632,-5.1683,-5.1783,-5.1882,-5.2005,-5.2066,-5.2186,-5.2364,-5.219,-5.1846,-5.1573,-5.1348,-5.0924,-5.0654,-5.0371,-5.0335,-5.0767,-5.1231,-4.4425,-4.4425,-4.4425,-4.4472,-4.449,-4.4583,-4.4908,-4.5264,-4.5364,-4.5138,-4.4632,-4.4366,-4.3931,-4.3425,-4.356,-4.3682,-4.3983,-4.4333,-4.4672,-4.5053,-4.5406,-4.5848,-4.6251,-4.6605,-4.693,-4.7178,-4.7509,-4.7737,-4.7871,-4.8385,-4.8604,-4.8481,-4.8399,-4.8416,-4.8417,-4.8177,-4.7907,-4.7567,-4.7151,-4.6943,-4.6761,-4.6753,-4.6699,-4.6708,-4.6746,-4.6781,-4.6615,-4.658,-4.6509,-4.6474,-4.6474,-4.6474,-4.6474,-4.6474,-4.6474,-4.6474,-4.6545,-4.6545,-4.658,-4.6615,-4.6754,-4.6892,-4.7066,-4.7404,-4.7671,-4.7968,-4.8033,-4.8163,-4.826,-4.842,-4.8515,-4.8673,-4.8767,-4.8829,-4.8892,-4.8984,-4.9015,-4.9138,-4.9168,-4.9381,-4.9471,-4.9619,-4.9884,-4.9999,-5.0143,-5.0341,-5.0509,-5.062,-5.0784,-5.0919,-5.1061,-5.1088,-5.1088,-5.1114,-5.1141,-5.1167,-5.1246,-5.135,-5.1402,-5.1479,-5.1556,-5.1658,-5.1783,-5.1932,-5.2102,-5.2126,-5.2053,-5.1821,-5.1647,-5.1855,-5.1683,-5.1297,-5.1093,-5.1499,-5.1772,-4.4068,-4.404,-4.4115,-4.4162,-4.4209,-4.4284,-4.449,-4.4815,-4.5092,-4.4886,-4.4419,-4.4282,-4.3936,-4.3499,-4.3611,-4.3696,-4.3851,-4.417,-4.4536,-4.502,-4.5559,-4.5868,-4.6353,-4.6824,-4.703,-4.7279,-4.7409,-4.7448,-4.7624,-4.7837,-4.8019,-4.8282,-4.8355,-4.8604,-4.8707,-4.8559,-4.848,-4.8161,-4.7801,-4.7447,-4.721,-4.7103,-4.6952,-4.6638,-4.6642,-4.6546,-4.618,-4.618,-4.6076,-4.5936,-4.5832,-4.5832,-4.5864,-4.5864,-4.5864,-4.59,-4.6012,-4.6116,-4.6187,-4.6294,-4.6369,-4.6471,-4.6506,-4.6687,-4.7064,-4.7336,-4.7538,-4.7704,-4.7836,-4.7968,-4.8098,-4.8195,-4.826,-4.8325,-4.8388,-4.8483,-4.861,-4.8736,-4.8954,-4.9199,-4.935,-4.9471,-4.959,-4.9679,-4.9825,-5.0057,-5.0228,-5.0341,-5.0509,-5.0702,-5.0873,-5.0954,-5.0954,-5.0954,-5.1016,-5.1043,-5.1061,-5.1141,-5.1193,-5.1246,-5.1246,-5.1376,-5.1556,-5.1708,-5.1858,-5.1884,-5.1946,-5.2054,-5.2018,-5.2174,-5.2174,-5.1845,-5.1659,-5.1988,-5.2249,-4.3614,-4.3614,-4.3614,-4.3757,-4.3926,-4.3974,-4.4115,-4.4378,-4.4658,-4.4549,-4.4248,-4.415,-4.3957,-4.3659,-4.3733,-4.382,-4.3965,-4.4226,-4.4603,-4.4906,-4.5215,-4.5565,-4.5946,-4.6358,-4.6491,-4.658,-4.6712,-4.6858,-4.7019,-4.7236,-4.7538,-4.7922,-4.7922,-4.8133,-4.8366,-4.846,-4.8491,-4.864,-4.8192,-4.7746,-4.7826,-4.7858,-4.7786,-4.7215,-4.7061,-4.6971,-4.6271,-4.5903,-4.5761,-4.5503,-4.546,-4.5591,-4.5622,-4.569,-4.5622,-4.5696,-4.6082,-4.6155,-4.6297,-4.6407,-4.6457,-4.647,-4.6383,-4.657,-4.6877,-4.6918,-4.7097,-4.7235,-4.7336,-4.7471,-4.7571,-4.7737,-4.7836,-4.8101,-4.8332,-4.8597,-4.8927,-4.9057,-4.9248,-4.9403,-4.9359,-4.9416,-4.932,-4.9441,-4.956,-4.9767,-4.9971,-5.0086,-5.0228,-5.0453,-5.0592,-5.0737,-5.0764,-5.0764,-5.0846,-5.0873,-5.09,-5.0954,-5.1008,-5.1061,-5.1088,-5.122,-5.1376,-5.1505,-5.1658,-5.1758,-5.1846,-5.1907,-5.1932,-5.1956,-5.2005,-5.2078,-5.2161,-5.2309,-5.2453,-4.3614,-4.3614,-4.3614,-4.3662,-4.3709,-4.3709,-4.3879,-4.4068,-4.4162,-4.4266,-4.4301,-4.4061,-4.3868,-4.3816,-4.3967,-4.4056,-4.4158,-4.4416,-4.4846,-4.4932,-4.5051,-4.5171,-4.5401,-4.573,-4.5821,-4.5821,-4.5972,-4.6195,-4.6403,-4.6712,-4.6931,-4.7193,-4.7322,-4.7581,-4.788,-4.8007,-4.8313,-4.8625,-4.844,-4.8124,-4.8153,-4.7668,-4.7307,-4.7213,-4.7226,-4.7164,-4.6761,-4.6754,-4.6778,-4.6764,-4.6764,-4.6764,-4.6733,-4.6701,-4.6663,-4.6733,-4.6653,-4.6698,-4.6705,-4.6787,-4.6862,-4.6919,-4.695,-4.7007,-4.6943,-4.667,-4.6609,-4.6749,-4.6955,-4.7059,-4.7194,-4.7396,-4.7564,-4.796,-4.8324,-4.8789,-4.9255,-4.9393,-4.9593,-4.9524,-4.942,-4.9342,-4.9221,-4.9236,-4.932,-4.9471,-4.9679,-4.9825,-4.9971,-5.0143,-5.0257,-5.0369,-5.0481,-5.0509,-5.062,-5.0675,-5.0737,-5.0792,-5.0873,-5.09,-5.0962,-5.1034,-5.1132,-5.1298,-5.1428,-5.1531,-5.1607,-5.1582,-5.1632,-5.1708,-5.1808,-5.1882,-5.198,-5.209,-5.2291,-4.328,-4.3307,-4.328,-4.3375,-4.3423,-4.3471,-4.3566,-4.3757,-4.3804,-4.3926,-4.4087,-4.4031,-4.4075,-4.4047,-4.4213,-4.4248,-4.4333,-4.4571,-4.4656,-4.4759,-4.4908,-4.4972,-4.5046,-4.5184,-4.5321,-4.5384,-4.5429,-4.5611,-4.5911,-4.6001,-4.6225,-4.6535,-4.6756,-4.6975,-4.7236,-4.7538,-4.7837,-4.8145,-4.826,-4.8306,-4.8335,-4.8124,-4.7847,-4.7856,-4.7668,-4.7536,-4.7115,-4.7045,-4.6967,-4.6928,-4.6826,-4.6826,-4.6795,-4.6764,-4.6826,-4.6865,-4.6905,-4.7045,-4.7146,-4.7177,-4.7286,-4.7318,-4.7224,-4.7153,-4.7129,-4.6924,-4.7078,-4.7262,-4.7626,-4.7838,-4.7806,-4.7945,-4.7977,-4.8243,-4.8486,-4.8825,-4.9164,-4.9376,-4.9552,-4.9691,-4.9626,-4.9592,-4.9486,-4.9375,-4.9398,-4.9172,-4.9385,-4.9569,-4.9747,-4.9796,-4.9913,-5.0028,-5.0143,-5.0313,-5.0481,-5.0537,-5.0537,-5.062,-5.071,-5.0737,-5.0764,-5.0846,-5.0892,-5.1088,-5.1193,-5.1272,-5.1324,-5.1324,-5.1376,-5.1479,-5.1582,-5.1708,-5.1783,-5.1858,-5.2054,-4.2776,-4.2776,-4.2776,-4.2922,-4.3163,-4.3163,-4.3355,-4.3566,-4.3566,-4.3614,-4.3709,-4.4087,-4.4256,-4.4378,-4.4425,-4.4425,-4.4397,-4.4462,-4.4443,-4.449,-4.463,-4.4676,-4.4769,-4.4908,-4.4954,-4.5,-4.5064,-4.523,-4.5413,-4.5549,-4.573,-4.6016,-4.6151,-4.6329,-4.6712,-4.7019,-4.7279,-4.7538,-4.7752,-4.8007,-4.8355,-4.8811,-4.8581,-4.8422,-4.8275,-4.7876,-4.7353,-4.7119,-4.704,-4.7062,-4.7145,-4.7176,-4.7207,-4.7238,-4.7176,-4.7247,-4.7358,-4.7367,-4.7344,-4.7486,-4.7503,-4.7488,-4.7372,-4.7372,-4.7403,-4.752,-4.7683,-4.7813,-4.8193,-4.8158,-4.8196,-4.827,-4.8302,-4.86,-4.8785,-4.9066,-4.9317,-4.9534,-4.972,-4.9902,-4.9846,-4.9854,-4.9692,-4.9592,-4.9487,-4.9205,-4.9154,-4.9274,-4.9426,-4.9445,-4.953,-4.9649,-4.9796,-4.9999,-5.0257,-5.0313,-5.0313,-5.0453,-5.0537,-5.0537,-5.0564,-5.062,-5.0737,-5.0873,-5.0981,-5.0972,-5.1052,-5.1114,-5.1193,-5.122,-5.1402,-5.1531,-5.1556,-5.1632,-5.1758,-4.2262,-4.2289,-4.2213,-4.2435,-4.2631,-4.2631,-4.2873,-4.3307,-4.3355,-4.3423,-4.3519,-4.3662,-4.3851,-4.4096,-4.4331,-4.4378,-4.4256,-4.4303,-4.4378,-4.4472,-4.449,-4.4518,-4.4518,-4.463,-4.4537,-4.463,-4.4769,-4.4862,-4.5,-4.5138,-4.523,-4.5367,-4.5595,-4.5776,-4.6046,-4.6358,-4.6624,-4.6931,-4.7236,-4.7495,-4.7794,-4.8145,-4.849,-4.8492,-4.8543,-4.844,-4.8307,-4.8276,-4.8276,-4.8235,-4.8071,-4.805,-4.8019,-4.7958,-4.7958,-4.7865,-4.8009,-4.8009,-4.8018,-4.8059,-4.8069,-4.81,-4.81,-4.813,-4.8202,-4.8345,-4.8413,-4.8329,-4.8388,-4.7847,-4.7806,-4.8067,-4.8175,-4.8929,-4.9305,-4.9713,-5.0069,-5.0193,-5.0316,-5.0278,-5.0203,-5.0025,-4.9813,-4.9821,-4.9991,-4.9725,-4.9585,-4.9712,-4.9704,-4.9458,-4.9243,-4.9433,-4.9619,-4.9649,-4.9913,-4.9999,-5.0057,-5.0228,-5.0341,-5.0313,-5.0341,-5.0425,-5.0544,-5.0682,-5.0592,-5.0592,-5.0675,-5.0838,-5.0865,-5.0946,-5.122,-5.135,-5.135,-5.1428,-5.1556]},{"header":{"parameterUnit":"m.s-1","parameterCategory":1,"la1":31.0,"la2":29.5877,"lo1":-88.7671,"lo2":-86.6584,"dy":0.0162,"dx":0.0185,"nx":115,"ny":88,"refTime":"2024-06-18T06:00:00:Z","depth":0,"parameterNumber":3,"parameterNumberName":"V-component_of_WINDS"},"data":[0.0,0.0,0.0,0.0,0.0,0.0,0.0,0.0,0.0,0.0,0.0,0.0,0.0,0.0,0.0,0.0,0.0,0.0,0.0,0.0,0.0,0.0,0.0,0.0,0.0,0.0,0.0,0.0,0.0,0.0,0.0,0.0,0.0,0.0,0.0,0.0,0.0,0.0,0.0,0.0,0.0,0.0,0.0,0.0,0.0,0.0,0.0,0.0,0.0,0.0,0.0,0.0,0.0,0.0,0.0,0.0,0.0,0.0,0.0,0.0,0.0,0.0,0.0,0.0,0.0,0.0,0.0,0.0,0.0,0.0,0.0,0.0,0.0,0.0,0.0,0.0,0.0,0.0,0.0,0.0,0.0,0.0,0.0,0.0,0.0,0.0,0.0,0.0,0.0,0.0,0.0,0.0,0.0,0.0,0.0,0.0,0.0,0.0,0.0,0.0,0.0,0.0,0.0,0.0,0.0,0.0,0.0,0.0,0.0,0.0,0.0,0.0,0.0,0.0,0.0,0.0,0.0,0.0,0.0,0.0,0.0,0.0,0.0,0.0,0.0,0.0,0.0,0.0,0.0,0.0,0.0,0.0,0.0,0.0,0.0,0.0,0.0,0.0,0.0,0.0,0.0,0.0,0.0,0.0,0.0,0.0,0.0,0.0,0.0,0.0,0.0,0.0,0.0,0.0,0.0,0.0,0.0,0.0,0.0,0.0,0.0,0.0,0.0,0.0,0.0,0.0,0.0,0.0,0.0,0.0,0.0,0.0,0.0,0.0,0.0,0.0,0.0,0.0,0.0,0.0,0.0,0.0,0.0,0.0,0.0,0.0,0.0,0.0,0.0,0.0,0.0,0.0,0.0,0.0,0.0,0.0,0.0,0.0,0.0,0.0,0.0,0.0,0.0,0.0,0.0,0.0,0.0,0.0,0.0,0.0,0.0,0.0,0.0,0.0,0.0,0.0,0.0,0.0,0.0,0.0,0.0,0.0,0.0,0.0,0.0,0.0,0.0,0.0,0.0,0.0,0.0,0.0,0.0,0.0,0.0,0.0,0.0,0.0,0.0,0.0,0.0,0.0,0.0,0.0,0.0,0.0,0.0,0.0,0.0,0.0,0.0,0.0,0.0,0.0,0.0,0.0,0.0,0.0,0.0,0.0,0.0,0.0,0.0,0.0,0.0,0.0,0.0,0.0,0.0,0.0,0.0,0.0,0.0,0.0,0.0,0.0,0.0,0.0,0.0,0.0,0.0,0.0,0.0,0.0,0.0,0.0,0.0,0.0,0.0,0.0,0.0,0.0,0.0,0.0,0.0,0.0,0.0,0.0,0.0,0.0,0.0,0.0,0.0,0.0,0.0,0.0,0.0,0.0,0.0,0.0,0.0,0.0,0.0,0.0,0.0,0.0,0.0,0.0,0.0,0.0,0.0,0.0,0.0,0.0,0.0,0.0,0.0,0.0,0.0,0.0,0.0,0.0,0.0,0.0,0.0,0.0,0.0,0.0,0.0,0.0,0.0,0.0,0.0,0.0,0.0,0.0,0.0,0.0,0.0,0.0,0.0,0.0,0.0,0.0,0.0,0.0,0.0,0.0,0.0,0.0,0.0,0.0,0.0,0.0,0.0,0.0,0.0,0.0,0.0,0.0,0.0,0.0,0.0,0.0,0.0,0.0,0.0,0.0,0.0,0.0,0.0,0.0,0.0,0.0,0.0,0.0,0.0,0.0,0.0,0.0,0.0,0.0,0.0,0.0,0.0,0.0,0.0,0.0,0.0,0.0,0.0,0.0,0.0,0.0,0.0,0.0,0.0,0.0,0.0,0.0,0.0,0.0,0.0,0.0,0.0,0.0,0.0,0.0,0.0,0.0,0.0,0.0,0.0,0.0,0.0,0.0,0.0,0.0,0.0,0.0,0.0,0.0,0.0,0.0,0.0,0.0,0.0,0.0,0.0,0.0,0.0,0.0,0.0,0.0,0.0,0.0,0.0,0.0,0.0,0.0,0.0,0.0,0.0,0.0,0.0,0.0,0.0,0.0,0.0,0.0,0.0,0.0,0.0,0.0,0.0,0.0,0.0,0.0,0.0,0.0,0.0,0.0,0.0,0.0,0.0,0.0,0.0,0.0,0.0,0.0,0.0,0.0,0.0,0.0,0.0,0.0,0.0,0.0,0.0,0.0,0.0,0.0,0.0,0.0,0.0,0.0,0.0,0.0,0.0,0.0,0.0,0.0,0.0,0.0,0.0,0.0,0.0,0.0,0.0,0.0,0.0,0.0,0.0,0.0,0.0,0.0,0.0,0.0,0.0,0.0,0.0,0.0,0.0,0.0,0.0,0.0,0.0,0.0,0.0,0.0,0.0,0.0,0.0,0.0,0.0,0.0,0.0,0.0,0.0,0.0,0.0,0.0,0.0,0.0,0.0,0.0,0.0,0.0,0.0,0.0,0.0,0.0,0.0,0.0,0.0,0.0,0.0,0.0,0.0,0.0,0.0,0.0,0.0,0.0,0.0,0.0,0.0,0.0,0.0,0.0,0.0,0.0,0.0,0.0,0.0,0.0,0.0,0.0,0.0,0.0,0.0,0.0,0.0,0.0,0.0,0.0,0.0,0.0,0.0,0.0,0.0,0.0,0.0,0.0,0.0,0.0,0.0,0.0,0.0,0.0,0.0,0.0,0.0,0.0,0.0,0.0,0.0,0.0,0.0,0.0,0.0,0.0,0.0,0.0,0.0,0.0,0.0,0.0,0.0,0.0,0.0,0.0,0.0,0.0,0.0,0.0,0.0,0.0,0.0,0.0,0.0,0.0,0.0,0.0,0.0,0.0,0.0,0.0,0.0,0.0,0.0,0.0,0.0,0.0,0.0,0.0,0.0,0.0,0.0,0.0,0.0,0.0,0.0,0.0,0.0,0.0,0.0,0.0,0.0,0.0,0.0,0.0,0.0,0.0,0.0,0.0,0.0,0.0,0.0,0.0,0.0,0.0,0.0,0.0,0.0,0.0,0.0,0.0,0.0,0.0,0.0,0.0,0.0,0.0,0.0,0.0,0.0,0.0,0.0,0.0,0.0,0.0,0.0,0.0,0.0,0.0,0.0,0.0,0.0,0.0,0.0,0.0,0.0,0.0,0.0,0.0,0.0,0.0,0.0,0.0,0.0,0.0,0.0,0.0,0.0,0.0,0.0,0.0,0.0,0.0,0.0,0.0,0.0,0.0,0.0,0.0,0.0,0.0,0.0,0.0,0.0,0.0,0.0,0.0,0.0,0.0,0.0,0.0,0.0,0.0,0.0,0.0,0.0,0.0,0.0,0.0,0.0,0.0,0.0,0.0,0.0,0.0,0.0,0.0,0.0,0.0,0.0,0.0,0.0,0.0,0.0,0.0,0.0,0.0,0.0,0.0,0.0,0.0,0.0,0.0,0.0,0.0,0.0,0.0,0.0,0.0,0.0,0.0,0.0,0.0,0.0,0.0,0.0,0.0,0.0,0.0,0.0,0.0,0.0,0.0,0.0,0.0,0.0,0.0,0.0,0.0,0.0,0.0,0.0,0.0,0.0,0.0,0.0,0.0,0.0,0.0,0.0,0.0,0.0,0.0,0.0,0.0,0.0,0.0,0.0,0.0,0.0,0.0,0.0,0.0,0.0,0.0,0.0,0.0,0.0,0.0,0.0,0.0,0.0,0.0,0.0,0.0,0.0,0.0,0.0,0.0,0.0,0.0,0.0,0.0,0.0,0.0,0.0,0.0,0.0,0.0,0.0,0.0,0.0,0.0,0.0,0.0,0.0,0.0,0.0,0.0,0.0,0.0,0.0,0.0,0.0,0.0,0.0,0.0,0.0,0.0,0.0,0.0,0.0,0.0,0.0,0.0,0.0,0.0,0.0,0.0,0.0,0.0,0.0,0.0,0.0,0.0,0.0,0.0,0.0,0.0,0.0,0.0,0.0,0.0,0.0,0.0,0.0,0.0,0.0,0.0,0.0,0.0,0.0,0.0,0.0,0.0,0.0,0.0,0.0,0.0,0.0,0.0,0.0,0.0,0.0,0.0,0.0,0.0,0.0,0.0,0.0,0.0,0.0,0.0,0.0,0.0,0.0,0.0,0.0,0.0,0.0,0.0,0.0,0.0,0.0,0.0,0.0,0.0,0.0,0.0,0.0,0.0,0.0,0.0,0.0,0.0,0.0,0.0,0.0,0.0,0.0,0.0,0.0,0.0,0.0,0.0,0.0,0.0,0.0,0.0,0.0,0.0,0.0,0.0,0.0,0.0,0.0,0.0,0.0,0.0,0.0458,0.0,0.0,0.0,0.0,0.0,0.0,0.0,0.0,0.0,0.0,0.0,0.0,0.0,0.0,0.0,0.0,0.0,0.0,0.0,0.0,0.0,0.0,0.0,0.0,0.0,0.0,0.0,0.0,0.0,0.0,0.0,0.0,0.0,0.0,0.0,0.0,0.0,0.0,0.0,0.0,0.0,0.0,0.0,0.0,0.0,0.0,0.0,0.0,0.0,0.0,0.0,0.0,0.0,0.0,0.0,0.0,0.0,0.0,0.0,0.0,0.0,0.0,0.0,0.0,0.0,0.0,0.0,0.0,0.0,0.0,0.0,0.0,0.0,0.0,0.0,0.0,0.0,0.0,0.0,0.0,0.0,0.0,0.0,0.0,0.0,0.0,0.0,0.0,0.0,0.0,0.0,0.0,0.0,0.0,0.0,0.0,0.0,0.0,0.0,0.0,0.0,0.0,0.0,0.0,0.0,0.0,0.0,0.0,0.0,0.0,0.292,0.2875,0.191,0.1,0.021,0.0,0.0,0.0,0.0,0.0,0.0,0.0,0.0,0.0,0.0,0.0,0.0,0.0,0.0,0.0,0.0,0.0,0.0,0.0,0.0,0.0,0.0,0.0,0.0,0.0,0.0,0.0,0.0,0.0,0.0,0.0,0.0,0.0,0.0,0.0,0.0,0.0,0.0,0.0,0.0,0.0,0.0,0.0,0.0,0.0,0.0,0.0,0.0,0.0,0.0,0.0,0.0,0.0,0.0,0.0,0.0,0.0,0.0,0.0,0.0,0.0,0.0,0.0,0.0,0.0,0.0,0.0,0.0,0.0,0.0,0.0,0.0,0.0,0.0,0.0,0.0,0.0,0.0,0.0,0.0,0.0,0.0,0.0,0.0,0.0,0.0,0.0,0.0,0.0,0.0,0.0,0.0,0.0,0.0,0.0,0.0,0.0,0.0,0.0,0.0,0.0,0.0,0.0,0.0,0.0,0.0,0.0,0.0,0.0,0.0,0.0,0.0,0.1487,0.0352,-0.0417,0.0,0.0,0.0,0.0,0.0,0.0,0.0,0.0,0.0,0.0,0.0,0.0,0.0,0.0,0.0,0.0,0.0,0.0,0.0,0.0,0.0,0.0,0.0,0.0,0.0,0.0,0.0,0.0,0.0,0.0,0.0,0.0,0.0,0.0,0.0,0.0,0.0,0.0,0.0,0.0,0.0,0.0,0.0,0.0,0.0,0.0,0.0,0.0,0.0,0.0,0.0,0.0,0.0,0.0,0.0,0.0,0.0,0.0,0.0,0.0,0.0,0.0,0.0,0.0,0.0,0.0,0.0,0.0,0.0,0.0,0.0,0.0,0.0,0.0,0.0,0.0,0.0,0.0,0.0,0.0,0.0,0.0,0.0,0.0,0.0,0.0,0.0,0.0,0.0,0.0,0.0,0.0,0.0,0.0,0.0,0.0,0.0,0.0,0.0,0.0,0.0,0.0,0.0,0.0,0.0,0.0,0.0,0.0,0.0,0.0,0.2583,0.2585,0.069,0.0,-0.2258,0.0,0.0,0.0,0.0,0.0,0.0,0.0,0.0,0.0,0.0,0.0,0.0,0.0,0.0,0.0,0.0,0.0,0.0,0.0,0.0,0.0,0.0,0.0,0.0,0.0,0.0,0.0,0.0,0.0,0.0,0.0,0.0,0.0,0.0,0.0,0.0,0.0,0.0,0.0,0.0,0.0,0.0,0.0,0.0,0.0,0.0,0.0,0.0,0.0,0.0,0.0,0.0,0.0,0.0,0.0,0.0,0.0,0.0,0.0,0.0,0.0,0.0,0.0,0.0,0.0,0.0,0.0,0.0,0.0,0.0,0.0,0.0,0.0,0.0,0.0,0.0,0.0,0.0,0.0,0.0,0.0,0.0,0.0,0.0,0.0,0.0,0.0,0.0,0.0,0.0,0.0,0.0,0.0,0.0,0.0,0.0,0.0,0.0,0.0,0.0,0.0,0.0,0.0,0.0,0.0,0.0,0.0,0.0,0.0,0.0,0.2182,0.1433,-0.0541,-0.2176,0.0,0.0,0.0,0.0,0.0,0.0,0.0,0.0,0.0,0.0,0.0,0.0,0.0,0.0,0.0,0.0,0.0,0.0,0.0,0.0,0.0,0.0,0.0,0.0,0.0,0.0,0.0,0.0,0.0,0.0,0.0,0.0,0.0,0.0,0.0,0.0,0.0,0.0,0.0,0.0,0.0,0.0,0.0,0.0,0.0,0.0,0.0,0.0,0.0,0.0,0.0,0.0,0.0,0.0,0.0,0.0,0.0,0.0,0.0,0.0,0.0,0.0,0.0,0.0,0.0,0.0,0.0,0.0,0.0,0.0,0.0,0.0,0.0,0.0,0.0,0.0,0.0,0.0,0.0,0.0,0.0,0.0,0.0,0.0,0.0,0.0,0.0,0.0,0.0,0.0,0.0,0.0,0.0,0.0,0.0,0.0,0.0,0.0,0.0,0.0,0.0,0.0,0.0,0.0,0.0,0.0,0.0,0.0,0.0,0.0,0.2118,0.1181,-0.0372,-0.1808,-0.3045,-0.3928,0.0,0.0,0.0,0.0,0.0,0.0,0.0,0.0,0.0,0.0,0.0,0.0,0.0,0.0,0.0,0.0,0.0,0.0,0.0,0.0,0.0,0.0,0.0,0.0,0.0,0.0,0.0,0.0,0.0,0.0,0.0,0.0,0.0,0.0,0.0,0.0,0.0,0.0,0.0,0.0,0.0,0.0,0.0,0.0,0.0,0.0,0.0,0.0,0.0,0.0,0.0,0.0,0.0,0.0,0.0,0.0,0.0,0.0,0.0,0.0,0.0,0.0,0.0,0.0,0.0,0.0,0.0,0.0,0.0,0.0,0.0,0.0,0.0,0.0,0.0,0.0,0.0,0.0,0.0,0.0,0.0,0.0,0.0,0.0,0.0,0.0,0.0,0.0,0.0,0.0,0.0,0.0,0.0,0.0,0.0,0.0,0.0,0.0,0.0,0.0,0.0,0.0,0.0,0.0,0.0,0.0,0.0,0.0,0.2624,0.1055,-0.0808,-0.2801,-0.3033,-0.3317,0.0,0.0,0.0,0.0,0.0,0.0,0.0,0.0,0.0,0.0,0.0,0.0,0.0,0.0,0.0,0.0,0.0,0.0,0.0,0.0,0.0,0.0,0.0,0.0,0.0,0.0,0.0,0.0,0.0,0.0,0.0,0.0,0.0,0.0,0.0,0.0,0.0,0.0,0.0,0.0,0.0,0.0,0.0,0.0,0.0,0.0,0.0,0.0,0.0,0.0,0.0,0.0,0.0,0.0,0.0,0.0,0.0,0.0,0.0,0.0,0.0,0.0,0.0,0.0,0.0,0.0,0.0,0.0,0.0,0.0,0.0,0.0,0.0,0.0,0.0,0.0,0.0,0.0,0.0,0.0,0.0,0.0,0.0,0.0,0.0,0.0,0.0,0.0,0.0,0.0,0.0,0.0,0.0,0.0,0.0,0.0,0.0,0.0,0.0,0.0,0.0,0.0,0.0,0.0,0.0,0.0,0.0,0.0,0.0,0.227,0.0787,-0.0999,-0.2899,-0.2889,-0.3141,0.0,0.0,0.0,0.0,0.0,0.0,0.0,0.0,0.0,0.0,0.0,0.0,0.0,0.0,0.0,0.0,0.0,0.0,0.0,0.0,0.0,0.0,0.0,0.0,0.0,0.0,0.0,0.0,0.0,0.0,0.0,0.0,0.0,0.0,0.0,0.0,0.0,0.0,0.0,0.0,0.0,0.0,0.0,0.0,0.0,0.0,0.0,0.0,0.0,0.0,0.0,0.0,0.0,0.0,0.0,0.0,0.0,0.0,0.0,0.0,0.0,0.0,0.0,0.0,0.0,0.0,0.0,0.0,0.0,0.0,0.0,0.0,0.0,0.0,0.0,0.0,0.0,0.0,0.0,0.0,0.0,0.0,0.0,0.0,0.0,0.0,0.0,0.0,0.0,0.0,0.0,0.0,0.0,0.0,0.0,0.0,0.0,0.0,0.0,0.0,0.0,0.0,0.0,0.0,0.0,0.0,0.0,0.0,0.0,0.1356,0.0,-0.0781,0.0,-0.2609,-0.2943,0.0,0.0,0.0,0.0,0.0,0.0,0.0,0.0,0.0,0.0,0.0,0.0,0.0,0.0,0.0,0.0,0.0,0.0,0.0,0.0,0.0,0.0,0.0,0.0,0.0,0.0,0.0,0.0,0.0,0.0,0.0,0.0,0.0,0.0,0.0,0.0,0.0,0.0,0.0,0.0,0.0,0.0,0.0,0.0,0.0,0.0,0.0,0.0,0.0,0.0,0.0,0.0,0.0,0.0,0.0,0.0,0.0,0.0,0.0,0.0,0.0,0.0,0.0,0.0,0.0,0.0,0.0,0.0,0.0,0.0,0.0,0.0,0.0,0.0,0.0,0.0,0.0,0.0,0.0,0.0,0.0,0.0,0.0,0.0,0.0,0.0,0.0,0.0,0.0,0.0,0.0,0.0,0.0,0.0,0.0,0.0,0.0,0.0,0.0,0.0,0.0,0.0,0.0,0.0,0.0,0.0,0.0,0.0,0.1285,-0.0097,0.0155,-0.0256,-0.1482,-0.2325,-0.2683,0.0,0.0,0.0,0.0,0.0,0.0,0.0,0.0,0.0,0.0,0.0,0.0,0.0,0.0,0.0,0.0,0.0,0.0,0.0,0.0,0.0,0.0,0.0,0.0,0.0,0.0,0.0,0.0,0.0,0.0,0.0,0.0,0.0,0.0,0.0,0.0,0.0,0.0,0.0,0.0,0.0,0.0,0.0,0.0,0.0,0.0,0.0,0.0,0.0,0.0,0.0,0.0,0.0,0.0,0.0,0.0,0.0,0.0,0.0,0.0,0.0,0.0,0.0,0.0,0.0,0.0,0.0,0.0,0.0,0.0,0.0,0.0,0.0,0.0,0.0,0.0,0.0,0.0,0.0,0.0,0.0,0.0,0.0,0.0,0.0,0.0,0.0,0.0,0.0,0.0,0.0,0.0,0.0,0.0,0.0,0.0,0.0,0.0,0.0,0.0,0.0,0.0,0.0,0.0,0.0,0.0,0.0,0.0,0.0,0.0,0.0739,0.0353,-0.1309,-0.1658,-0.2075,0.0,0.0,0.0,0.0,0.0,0.0,0.0,0.0,0.0,0.0,0.0,0.0,0.0,0.0,0.0,0.0,0.0,0.0,0.0,0.0,0.0,0.0,0.0,0.0,0.0,0.0,0.0,0.0,0.0,0.0,0.0,0.0,0.0,0.0,0.0,0.0,0.0,0.0,0.0,0.0,0.0,0.0,0.0,0.0,0.0,0.0,0.0,0.0,0.0,0.0,0.0,0.0,0.0,0.0,0.0,0.0,0.0,0.0,0.0,0.0,0.0,0.0,0.0,0.0,0.0,0.0,0.0,0.0,0.0,0.0,0.0,0.0,0.0,0.0,0.0,0.0,0.0,0.0,0.0,0.0,0.0,0.0,0.0,0.0,0.0,0.0,0.0,0.0,0.0,0.0,0.0,0.0,0.0,0.0,0.0,0.0,0.0,0.0,0.0,0.0,0.0,0.0,0.0,0.0,0.0,0.0,0.0,0.0,0.0,0.0741,0.1333,0.1045,-0.0209,-0.0863,-0.1569,-0.233,0.0,0.0,0.0,0.0,0.0,0.0,0.0,0.0,0.0,0.0,0.0,0.0,0.0,0.0,0.0,0.0,0.0,0.0,0.0,0.0,0.0,0.0,0.0,0.0,0.0,0.0,0.0,0.0,0.0,0.0,0.0,0.0,0.0,0.0,0.0,0.0,0.0,0.0,0.0,0.0,0.0,0.0,0.0,0.0,0.0,0.0,0.0,0.0,0.0,0.0,0.0,0.0,0.0,0.0,0.0,0.0,0.0,0.0,0.0,0.0,0.0,0.0,0.0,0.0,0.0,0.0,0.0,0.0,0.0,0.0,0.0,0.0,0.0,0.0,0.0,0.0,0.0,0.0,0.0,0.0,0.0,0.0,0.0,0.0,0.0,0.0,0.0,0.0,0.0,0.0,0.0,0.0,0.0,0.0,0.0,0.0,0.0,0.0,0.0,0.0,0.0,0.0,0.0,0.0,0.0,0.0,0.0,0.0,0.1808,0.1819,0.1809,0.1668,-0.0052,-0.1209,0.0,0.0,0.0,0.0,0.0,0.0,0.0,0.0,0.0,0.0,0.0,0.0,0.0,0.0,0.0,0.0,0.0,0.0,0.0,0.0,0.0,0.0,0.0,0.0,0.0,0.0,0.0,0.0,0.0,0.0,0.0,0.0,0.0,0.0,0.0,0.0,0.0,0.0,0.0,0.0,0.0,0.0,0.0,0.0,0.0,0.0,0.0,0.0,0.0,0.0,0.0,0.0,0.0,0.0,0.0,0.0,0.0,0.0,0.0,0.0,0.0,0.0,0.0,0.0,0.0,0.0,0.0,0.0,0.0,0.0,0.0,0.0,0.0,0.0,0.0,0.0,0.0,0.0,0.0,0.0,0.0,0.0,0.0,0.0,0.0,0.0,0.0,0.0,0.0,0.0,0.0,0.0,0.0,0.0,0.0,0.0,0.0,0.0,0.0,0.0,0.0,0.0,0.0,0.0,0.0,0.0,0.0,0.0,0.0,0.1816,0.194,0.1963,0.1813,-0.0214,-0.1385,0.0,0.0,0.0,0.0,0.0,0.0,0.0,0.0,0.0,0.0,0.0,0.0,0.0,0.0,0.0,0.0,0.0,0.0,0.0,0.0,0.0,0.0,0.0,0.0,0.0,0.0,0.0,0.0,0.0,0.0,0.0,0.0,0.0,0.0,0.0,0.0,0.0,0.0,0.0,0.0,0.0,0.0,0.0,0.0,0.0,0.0,0.0,0.0,0.0,0.0,0.0,0.0,0.0,0.0,0.0,0.0,0.0,0.0,0.0,0.0,0.0,0.0,0.0,0.0,0.0,0.0,0.0,0.0,0.0,0.0,0.0,0.0,0.0,0.0,0.0,0.0,0.0,0.0,0.0,0.0,0.0,0.0,0.0,0.0,0.0,0.0,0.0,0.0,0.0,0.0,0.0,0.0,0.0,0.0,0.0,0.0,0.0,0.0,0.0,0.0,0.0,0.0,0.0,0.0,0.0,0.0,0.0,0.0,0.1757,0.1819,0.2012,0.2052,0.1988,0.0284,-0.0886,0.0,0.0,0.0,0.0,0.0,0.0,0.0,0.0,0.0,0.0,0.0,0.0,0.0,0.0,0.0,0.0,0.0,0.0,0.0,0.0,0.0,0.0,0.0,0.0,0.0,0.0,0.0,0.0,0.0,0.0,0.0,0.0,0.0,0.0,0.0,0.0,0.0,0.0,0.0,0.0,0.0,0.0,0.0,0.0,0.0,0.0,0.0,0.0,0.0,0.0,0.0,0.0,0.0,0.0,0.0,0.0,0.0,0.0,0.0,0.0,0.0,0.0,0.0,0.0,0.0,0.0,0.0,0.0,0.0,0.0,0.0,0.0,0.0,0.0,0.0,0.0,0.0,0.0,0.0,0.0,0.0,0.0,0.0,0.0,0.0,0.0,0.0,0.0,0.0,0.0,0.0,0.0,0.0,0.0,0.0,0.0,0.0,0.0,0.0,0.0,0.0,0.0,0.0,0.0,0.0,0.0,0.0,0.0,0.1814,0.1869,0.2048,0.2095,0.2067,0.1033,-0.0055,0.0,0.0,0.0,0.0,0.0,0.0,0.0,0.0,0.0,0.0,0.0,0.0,0.0,0.0,0.0,0.0,0.0,0.0,0.0,0.0,0.0,0.0,0.0,0.0,0.0,0.0,0.0,0.0,0.0,0.0,0.0,0.0,0.0,0.0,0.0,0.0,0.0,0.0,0.0,0.0,0.0,0.0,0.0,0.0,0.0,0.0,0.0,0.0,0.0,0.0,0.0,0.0,0.0,0.0,0.0,0.0,0.0,0.0,0.0,0.0,0.0,0.0,0.0,0.0,0.0,0.0,0.0,0.0,0.0,0.0,0.0,0.0,0.0,0.0,0.0,0.0,0.0,0.0,0.0,0.0,0.0,0.0,0.0,0.0,0.0,0.0,0.0,0.0,0.0,0.0,0.0,0.0,0.0,0.0,0.0,0.0,0.0,0.0,0.0,0.0,0.0,0.0,0.0,0.0,0.0,0.0,0.0,0.0,0.1857,0.187,0.2048,0.2106,0.2098,0.1028,-0.0111,0.0,0.0,0.0,0.0,0.0,0.0,0.0,0.0,0.0,0.0,0.0,0.0,0.0,0.0,0.0,0.0,0.0,0.0,0.0,0.0,0.0,0.0,0.0,0.0,0.0,0.0,0.0,0.0,0.0,0.0,0.0,0.0,0.0,0.0,0.0,0.0,0.0,0.0,0.0,0.0,0.0,0.0,0.0,0.0,0.0,0.0,0.0,0.0,-0.5578,0.0,0.0,0.0,0.0,0.0,0.0,0.0,0.0,0.0,0.0,0.0,0.0,0.0,0.0,0.0,0.0,0.0,0.0,0.0,0.0,0.0,0.0,0.0,0.0,0.0,0.0,0.0,0.0,0.0,0.0,0.0,0.0,0.0,0.0,0.0,0.0,0.0,0.0,0.0,0.0,0.0,0.0,0.0,0.0,0.0,0.0,0.0,0.0,0.0,0.0,0.0,0.0,0.0,0.0,0.0,0.0,0.0,0.0,0.0,0.1862,0.1951,0.2041,0.208,0.2063,0.1459,0.0396,0.0,0.0,0.0,0.0,0.0,0.0,0.0,0.0,0.0,0.0,0.0,0.0,0.0,0.0,0.0,0.0,0.0,0.0,0.0,0.0,0.0,0.0,0.0,0.0,0.0,0.0,0.0,0.0,0.0,0.0,0.0,0.0,0.0,0.0,0.0,0.0,0.0,0.0,0.0,0.0,0.0,0.0,0.0,0.0,0.0,0.0,0.0,0.0,0.0,0.0,0.0,0.0,0.0,0.0,0.0,0.0,0.0,0.0,0.0,0.0,0.0,0.0,0.0,0.0,0.0,0.0,0.0,0.0,0.0,0.0,0.0,0.0,0.0,0.0,0.0,0.0,0.0,0.0,0.0,0.0,0.0,0.0,0.0,0.0,0.0,0.0,0.0,0.0,0.0,0.0,0.0,0.0,0.0,0.0,0.0,0.0,0.0,0.0,0.0,0.0,0.0,0.0,0.0,0.0,0.0,0.0,0.0,0.1719,0.1847,0.1978,0.2027,0.2106,0.2024,0.1959,0.1093,-0.0624,0.0,0.0,0.0,0.0,0.0,0.0,0.0,0.0,0.0,0.0,0.0,0.0,0.0,0.0,0.0,0.0,0.0,0.0,0.0,0.0,0.0,0.0,0.0,0.0,0.0,0.0,0.0,0.0,0.0,0.0,0.0,0.0,0.0,0.0,0.0,0.0,0.0,0.0,-0.3752,-0.4018,0.0,0.0,0.0,0.0,0.0,0.0,0.0,0.0,-0.598,0.0,0.0,0.0,0.0,0.0,0.0,0.0,0.0,0.0,0.0,0.0,0.0,0.0,0.0,0.0,0.0,0.0,0.0,0.0,0.0,0.0,0.0,0.0,0.0,0.0,0.0,0.0,0.0,0.0,0.0,0.0,0.0,0.0,0.0,0.0,0.0,0.0,0.0,0.0,0.0,0.0,0.0,0.0,0.0,0.0,0.0,0.0,0.0,0.0,0.0,0.0,0.0,0.0,0.0,0.0,0.0,0.1769,0.172,0.1813,0.2005,0.1997,0.2012,0.2052,0.1951,0.1364,0.026,0.0,0.0,0.0,0.0,0.0,0.0,0.0,0.0,0.0,0.0,0.0,0.0,0.0,0.0,0.0,0.0,0.0,0.0,0.0,0.0,0.0,0.0,0.0,0.0,0.0,0.0,0.0,0.0,0.0,0.0,0.0,0.0,0.0,0.0,0.0,0.0,0.0,0.0,0.0,-0.4307,-0.4635,0.0,0.0,0.0,0.0,0.0,0.0,0.0,0.0,-0.6192,0.0,0.0,0.0,0.0,0.0,0.0,0.0,0.0,0.0,0.0,0.0,0.0,0.0,0.0,0.0,0.0,0.0,0.0,0.0,0.0,0.0,0.0,0.0,0.0,0.0,0.0,0.0,0.0,0.0,0.0,0.0,0.0,0.0,0.0,0.0,0.0,0.0,0.0,0.0,0.0,0.0,0.0,0.0,0.0,0.0,0.0,0.0,0.0,0.0,0.0,0.0,0.0,0.0,0.0,0.0,0.167,0.1742,0.1847,0.199,0.1984,0.199,0.2015,0.1902,0.1553,0.0,0.0,0.0,0.0,0.0,0.0,0.0,0.0,0.0,0.0,0.0,0.0,0.0,0.0,0.0,0.0,0.0,0.0,0.0,0.0,0.0,0.0,0.0,0.0,0.0,0.0,0.0,0.0,0.0,0.0,0.0,0.0,0.0,0.0,0.0,0.0,0.0,0.0,0.0,0.0,-0.4585,-0.4839,-0.553,0.0,0.0,0.0,0.0,0.0,0.0,-0.642,-0.6344,0.0,0.0,0.0,0.0,0.0,0.0,0.0,0.0,0.0,0.0,0.0,0.0,0.0,0.0,0.0,0.0,0.0,0.0,0.0,0.0,0.0,0.0,0.0,0.0,0.0,0.0,0.0,0.0,0.0,0.0,0.0,0.0,0.0,0.0,0.0,0.0,0.0,0.0,0.0,0.0,0.0,0.0,0.0,0.0,0.0,0.0,0.0,0.0,0.0,0.0,0.0,0.0,0.0,0.0,0.0,0.1606,0.1749,0.1873,0.1971,0.2038,0.2038,0.2036,0.1858,0.1735,0.0,0.0,0.0,0.0,0.0,0.0,0.0,0.0,0.0,0.0,0.0,0.0,0.0,0.0,0.0,0.0,0.0,0.0,0.0,0.0,0.0,0.0,0.0,0.0,0.0,0.0,0.0,0.0,0.0,0.0,0.0,0.0,0.0,0.0,0.0,0.0,0.0,0.0,0.0,0.0,0.0,-0.505,-0.553,-0.5566,0.0,0.0,0.0,0.0,-0.6632,-0.6624,0.0,0.0,0.0,0.0,0.0,0.0,0.0,0.0,0.0,0.0,0.0,0.0,0.0,0.0,0.0,0.0,0.0,0.0,0.0,0.0,0.0,0.0,0.0,0.0,0.0,0.0,0.0,0.0,0.0,0.0,0.0,0.0,0.0,0.0,0.0,0.0,0.0,0.0,0.0,0.0,0.0,0.0,0.0,0.0,0.0,0.0,0.0,0.0,0.0,0.0,0.0,0.0,0.0,0.0,0.0,0.0,0.1622,0.175,0.1888,0.203,0.2038,0.2038,0.2037,0.1858,0.1726,0.0,0.0,0.0,0.0,0.0,0.0,0.0,0.0,0.0,0.0,0.0,0.0,0.0,0.0,0.0,0.0,0.0,0.0,0.0,0.0,0.0,0.0,0.0,0.0,0.0,0.0,0.0,0.0,0.0,0.0,0.0,0.0,0.0,0.0,0.0,0.0,0.0,0.0,0.0,0.0,0.0,-0.526,-0.556,-0.5732,-0.597,0.0,0.0,-0.7188,-0.7361,-0.7486,0.0,0.0,0.0,0.0,0.0,0.0,0.0,0.0,0.0,0.0,0.0,0.0,0.0,0.0,0.0,0.0,0.0,0.0,0.0,0.0,0.0,0.0,0.0,0.0,0.0,0.0,0.0,0.0,0.0,0.0,0.0,0.0,0.0,0.0,0.0,0.0,0.0,0.0,0.0,0.0,0.0,0.0,0.0,0.0,0.0,0.0,0.0,0.0,0.0,0.0,0.0,0.0,0.0,0.0,0.0,0.187,0.1721,0.1975,0.2129,0.2034,0.2038,0.2038,0.2038,0.181,0.1673,0.0,0.0,0.0,0.0,0.0,0.0,0.0,0.0,0.0,0.0,0.0,0.0,0.0,0.0,0.0,0.0,0.0,0.0,0.0,0.0,0.0,0.0,0.0,0.0,0.0,0.0,0.0,0.0,0.0,0.0,0.0,0.0,0.0,0.0,0.0,0.0,0.0,0.0,0.0,0.0,0.0,0.0,-0.5486,-0.5875,0.0,0.0,0.0,-0.735,-0.7317,0.0,0.0,0.0,0.0,0.0,0.0,0.0,0.0,0.0,0.0,0.0,0.0,0.0,0.0,0.0,0.0,0.0,0.0,0.0,0.0,0.0,0.0,0.0,0.0,0.0,0.0,0.0,0.0,0.0,0.0,0.0,0.0,0.0,0.0,0.0,0.0,0.0,0.0,0.0,0.0,0.0,0.0,0.0,0.0,0.0,0.0,0.0,0.0,0.0,0.0,0.0,0.0,0.0,0.0,0.0,0.0,0.0,0.1954,0.2311,0.243,0.2221,0.2224,0.2224,0.2157,0.2024,0.0,0.0,0.0,0.0,0.0,0.0,0.0,0.0,0.0,0.0,0.0,0.0,0.0,0.0,0.0,0.0,0.0,0.0,0.0,0.0,0.0,0.0,0.0,0.0,0.0,0.0,0.0,-0.1085,0.0,0.0,0.0,0.0,0.0,0.0,0.0,0.0,0.0,0.0,0.0,0.0,0.0,0.0,-0.5382,-0.5382,-0.5934,-0.6336,0.0,0.0,-0.746,-0.7399,-0.766,-0.7606,0.0,0.0,0.0,0.0,0.0,0.0,0.0,0.0,0.0,0.0,0.0,0.0,0.0,0.0,0.0,0.0,0.0,0.0,0.0,0.0,0.0,0.0,0.0,0.0,0.0,0.0,0.0,0.0,0.0,0.0,0.0,0.0,0.0,0.0,0.0,0.0,0.0,0.0,0.0,0.0,0.0,0.0,0.0,0.0,0.0,0.0,0.0,0.0,0.0,0.0,0.0,0.0,0.0,0.0,0.0,0.2306,0.269,0.2915,0.296,0.2899,0.2775,0.2466,0.2641,0.2328,0.0,0.0,0.0,0.0,0.0,0.0,0.0,0.0,0.0,0.0,0.0,0.0,0.0,0.0,0.0,0.0,0.0,0.0,0.0,0.0,0.0,0.0,0.0,0.0,0.0,0.0,0.0,0.0,0.0,0.0,0.0,0.0,0.0,0.0,0.0,0.0,0.0,0.0,0.0,0.0,0.0,-0.5382,-0.5382,-0.5762,-0.6241,0.0,0.0,-0.7512,-0.7959,-0.8198,-0.8008,-0.6959,0.0,0.0,0.0,0.0,0.0,0.0,0.0,0.0,0.0,0.0,0.0,0.0,0.0,0.0,0.0,0.0,0.0,0.0,0.0,0.0,0.0,0.0,0.0,0.0,0.0,0.0,0.0,0.0,0.0,0.0,0.0,0.0,0.0,0.0,0.0,0.0,0.0,0.0,0.0,0.0,0.0,0.0,0.0,0.0,0.0,0.0,0.0,0.0,0.0,0.0,0.0,0.0,0.0,0.2744,0.2485,0.2997,0.3189,0.3022,0.296,0.296,0.2837,0.2803,0.2542,0.0,0.0,0.0,0.0,0.0,0.0,0.0,0.0,0.0,0.0,0.0,0.0,0.0,0.0,0.0,0.0,0.0,0.0,0.0,0.0,0.0,0.0,0.0,0.0,0.0,0.0,0.0,0.0,-0.1142,-0.1141,-0.1088,0.0,0.0,0.0,0.0,0.0,0.0,0.0,0.0,0.0,0.0,-0.5422,-0.5529,-0.5932,0.0,0.0,-0.7224,-0.7613,-0.7937,-0.8019,-0.779,-0.6942,-0.6703,0.0,0.0,0.0,0.0,0.0,0.0,0.0,0.0,0.0,0.0,0.0,0.0,0.0,0.0,0.0,0.0,0.0,0.0,0.0,0.0,0.0,0.0,0.0,0.0,0.0,0.0,0.0,0.0,0.0,0.0,0.0,0.0,0.0,0.0,0.0,0.0,0.0,0.0,0.0,0.0,0.0,0.0,0.0,0.0,0.0,0.0,0.0,0.0,0.0,0.0,0.0,0.0,0.301,0.274,0.3309,0.3517,0.3271,0.3255,0.3255,0.3141,0.3047,0.2852,0.0,0.0,0.0,0.0,0.0,0.0,0.0,0.0,0.0,0.0,0.0,0.0,0.0,0.0,0.0,0.0,0.0,0.0,0.0,0.0,0.0,0.0,0.0,0.0,0.0,0.0,0.0,0.0,-0.1148,-0.1145,-0.1088,0.0,0.0,0.0,0.0,0.0,0.0,0.0,0.0,0.0,0.0,-0.5475,-0.5564,-0.5932,-0.6328,-0.679,-0.7133,-0.7388,-0.7768,-0.779,-0.7568,-0.7002,0.0,0.0,0.0,0.0,0.0,0.0,0.0,0.0,0.0,0.0,0.0,0.0,0.0,0.0,0.0,0.0,0.0,0.0,0.0,0.0,0.0,0.0,0.0,0.0,0.0,0.0,0.0,0.0,0.0,0.0,0.0,0.0,0.0,0.0,0.0,0.0,0.0,0.0,0.0,0.0,0.0,0.0,0.0,0.0,0.0,0.0,0.0,0.0,0.0,0.0,0.0,0.0,0.0,0.3076,0.3093,0.3613,0.3887,0.3884,0.3894,0.377,0.3512,0.3649,0.3423,0.2607,0.0,0.0,0.0,0.0,0.0,0.0,0.0,0.0,0.0,0.0,0.0,0.0,0.0,0.0,0.0,0.0,0.0,0.0,0.0,0.0,0.0,0.0,0.0,0.0,0.0,0.0,-0.1084,-0.1104,-0.1087,0.0,0.0,0.0,0.0,0.0,0.0,0.0,0.0,0.0,0.0,-0.5275,-0.5537,-0.5572,-0.5588,-0.5924,-0.6676,-0.6724,-0.6867,-0.7568,-0.76,-0.7437,0.0,0.0,0.0,0.0,0.0,0.0,0.0,0.0,0.0,0.0,0.0,0.0,0.0,0.0,0.0,0.0,0.0,0.0,0.0,0.0,0.0,0.0,0.0,0.0,0.0,0.0,0.0,0.8359,0.811,0.0,0.0,0.0,0.0,0.0,0.0,0.0,0.0,0.0,0.0,0.0,0.8344,0.9018,0.0,0.0,0.0,0.0,0.0,0.0,0.0,0.0,0.0,0.0,0.0,0.0,0.3108,0.3104,0.3613,0.3869,0.3831,0.385,0.3869,0.3767,0.385,0.3564,0.299,0.0,0.0,0.0,0.0,0.0,0.0,0.0,0.0,0.0,0.0,0.0,0.0,0.0,0.0,0.0,0.0,0.0,0.0,0.0,0.0,0.0,0.0,0.0,0.0,0.0,-0.1082,0.0,0.0,0.0,0.0,0.0,0.0,0.0,0.0,0.0,0.0,0.0,-0.4376,-0.5067,-0.5308,-0.5475,-0.5564,-0.5584,-0.5814,0.0,0.0,0.0,0.0,0.0,0.0,0.0,0.0,0.0,0.0,0.0,0.0,0.0,0.0,-0.6317,-0.592,-0.5687,-0.5518,-0.5605,0.0,0.0,0.0,0.0,0.0,0.0,0.0,0.0,0.0,0.0,0.0,0.0,0.0,0.0,0.0,0.0,0.9853,0.0,0.0,0.0,0.0,0.0,0.0,0.0,0.0,1.0909,1.1054,1.0332,1.0957,1.0609,0.0,0.9135,0.7949,0.0,0.0,0.0,0.0,0.0,0.0,0.0,0.0,0.3108,0.3149,0.3628,0.3869,0.3833,0.3869,0.3899,0.3919,0.3899,0.3698,0.3262,0.2925,0.2673,0.0,0.0,0.0,0.0,0.0,0.0,0.0,0.0,0.0,0.0,0.0,0.0,0.0,0.0,0.0,0.0,0.0,0.0,0.0,0.0,0.0,0.0,0.0,-0.0776,0.0,0.0,0.0,0.0,0.0,0.0,0.0,0.0,0.0,-0.3634,-0.3987,-0.4348,-0.492,-0.5293,-0.5537,-0.5532,0.0,0.0,0.0,0.0,0.0,0.0,0.0,-0.6412,-0.6606,-0.6584,-0.6583,-0.6687,-0.6752,-0.6779,-0.6698,0.0,0.0,-0.6355,-0.6149,-0.6009,-0.61,-0.6132,-0.6143,-0.6247,-0.6637,-0.6966,0.0,0.0,0.0,0.0,0.0,0.0,0.0,0.0,1.4457,1.3447,0.0,1.2148,0.0,0.0,0.0,0.0,0.0,0.0,0.0,0.0,1.2758,1.3343,1.2805,1.2975,1.2975,1.2758,1.1833,1.0839,0.9613,0.8012,0.0,0.0,0.0,0.0,0.0,0.0,0.3178,0.321,0.3614,0.3824,0.3819,0.3768,0.3858,0.3916,0.386,0.3769,0.3589,0.3357,0.3125,0.2936,0.2597,0.0,0.0,0.0,0.0,0.0,0.0,0.0,0.0,0.0,0.0,0.0,0.0,0.0,0.0,0.0,0.0,0.0,0.0,0.0,0.0,-0.0211,0.0,0.0,0.0,0.0,0.0,0.0,0.0,0.0,0.0,0.0,-0.267,-0.3703,-0.4386,-0.4571,0.0,0.0,0.0,0.0,-0.5627,-0.5747,-0.5768,-0.588,-0.6223,-0.6098,-0.608,-0.6554,0.0,0.0,-0.7143,-0.7193,-0.7111,-0.685,-0.6991,-0.7177,-0.7056,-0.6768,-0.6654,-0.6757,-0.6676,-0.6665,-0.6815,-0.7148,-0.7543,1.596,0.0,0.0,0.0,0.0,1.4267,1.4994,1.6036,1.5888,1.5452,1.4824,1.4775,0.0,0.0,0.0,0.0,0.0,0.0,1.1548,1.1822,1.2654,1.3098,1.3221,1.3419,1.34,1.3202,1.2965,1.2599,1.21,1.1263,0.8792,0.4869,0.0,0.0,0.0,0.0,0.4518,0.4683,0.4077,0.3684,0.3697,0.3725,0.3798,0.3919,0.386,0.3733,0.3711,0.3463,0.3267,0.3023,0.2858,0.0,0.0,0.0,0.0,0.0,0.0,0.0,0.0,0.0,0.0,0.0,0.0,0.0,0.0,0.0,0.0,0.0,0.0,0.0,-0.0851,-0.0038,0.0342,0.0,0.0,0.0,0.0,0.0,0.0,0.0,0.0,0.0,-0.1385,-0.2338,-0.3332,0.0,0.0,-0.548,-0.5426,-0.5214,-0.5102,-0.5289,0.0,0.0,0.0,-0.5114,-0.5198,-0.5805,-0.6265,-0.6593,-0.6702,-0.6851,-0.691,-0.6926,-0.7051,-0.7165,-0.7214,-0.704,-0.6904,-0.6921,-0.6834,-0.6763,-0.6848,-0.7229,-0.7604,1.9057,1.7529,1.587,1.5657,1.633,1.6446,1.7224,1.8337,1.8231,1.7412,1.6254,1.6311,1.4705,1.1958,1.1911,0.0,0.0,0.0,1.2238,1.2654,1.2975,1.3268,1.3504,1.3636,1.3627,1.3504,1.3311,1.3208,1.3183,1.2496,1.0399,0.7098,0.0,0.0,0.5841,0.5931,0.6138,0.625,0.5367,0.4863,0.4815,0.4399,0.4095,0.3916,0.386,0.38,0.3679,0.3772,0.3716,0.3519,0.3563,0.3456,0.0,0.0,0.0,0.0,0.0,0.0,0.0,0.0,0.0,0.0,0.0,0.2828,0.2374,0.0,0.0,0.0,0.1462,0.0544,0.0,0.0767,0.0,0.0,0.0,0.0,0.0,0.0,0.0,-0.1024,-0.0299,0.0052,-0.0481,-0.1053,-0.1992,-0.3499,-0.4415,-0.4931,-0.5043,0.0,-0.476,-0.4825,-0.4641,-0.4488,-0.4697,-0.46,-0.4694,-0.5339,-0.5909,-0.6287,-0.6453,-0.6599,-0.678,-0.6959,-0.7027,-0.7152,-0.7336,-0.729,-0.7198,-0.7192,-0.7138,-0.7089,-0.7089,-0.7523,-0.7907,2.1759,2.1423,1.7689,1.7082,1.8577,1.859,1.9583,2.1174,2.0825,1.9388,1.7191,1.7256,1.5509,1.2395,1.1952,0.0,0.0,1.2709,1.3041,1.3419,1.3608,1.3693,1.3693,1.3693,1.3693,1.3684,1.3199,1.3116,1.3372,1.233,1.1345,1.0446,1.0079,0.9121,0.7732,0.7763,0.7827,0.7814,0.711,0.6745,0.6674,0.5491,0.4614,0.4082,0.3965,0.3896,0.3828,0.4276,0.4419,0.4205,0.4483,0.4568,0.4316,0.0,0.0,0.0,0.0,0.0,0.0,0.0,0.0,0.0,0.0,0.0,0.0,0.0,0.0,0.0,0.2939,0.0,0.1731,0.1848,0.0,0.0,0.0,0.0393,-0.0088,-0.0227,-0.0281,-0.0288,0.0,0.0,0.0,0.0,-0.045,-0.1998,-0.3223,-0.4092,-0.4369,-0.4415,-0.4438,-0.4379,-0.4362,-0.4362,-0.4267,-0.428,-0.4416,-0.4919,-0.5527,-0.597,-0.626,-0.6436,-0.6628,-0.6915,-0.694,-0.7067,-0.7359,-0.7418,-0.7487,-0.7423,-0.746,-0.7502,-0.7486,-0.7939,-0.8274,2.2271,2.1993,2.0744,2.0359,2.0514,2.0514,2.0757,2.1189,2.113,2.0701,2.0174,2.0187,1.9131,1.7172,1.5244,1.4445,1.4515,1.382,1.3523,1.3618,1.3665,1.3693,1.3693,1.3693,1.3693,1.3684,1.3577,1.3558,1.3599,1.304,1.2487,1.1908,1.1505,1.0449,0.886,0.8711,0.8802,0.8998,0.7818,0.7149,0.6934,0.6527,0.589,0.5165,0.5028,0.4864,0.4723,0.4805,0.4843,0.4719,0.4742,0.4892,0.5083,0.3987,0.0,0.0,0.0,0.0,0.0,0.0,0.0,0.0,0.0,0.3544,0.2825,0.0,0.3545,0.0,0.3839,0.3019,0.1542,0.1662,0.0,0.0,0.1181,0.0692,0.1094,0.0481,0.0,0.0,0.0997,0.1437,0.0755,0.1092,0.0991,-0.0166,-0.1895,-0.3138,-0.3418,-0.3223,-0.3163,-0.3354,-0.3221,-0.3054,-0.3186,-0.3514,-0.3874,-0.405,-0.4948,-0.5668,-0.5785,-0.621,-0.6521,-0.6584,-0.671,-0.6817,-0.6881,-0.695,-0.7059,-0.7054,-0.7293,-0.7519,-0.7519,-0.781,-0.816,2.281,2.2379,2.2068,2.1627,2.1203,2.1203,2.1203,2.1203,2.1203,2.0917,2.0328,1.9795,1.9052,1.8205,1.682,1.6251,1.6204,1.5633,1.5046,1.457,1.451,1.4282,1.3693,1.3693,1.3693,1.3693,1.3693,1.3693,1.3665,1.3268,1.2956,1.2578,1.2162,1.1289,1.0126,1.0002,1.0054,1.0193,0.9272,0.8501,0.791,0.7812,0.7073,0.5601,0.5927,0.5709,0.4875,0.5267,0.5449,0.5305,0.5061,0.516,0.5745,0.4753,0.4432,0.0,0.0,0.0,0.0,0.0,0.0,0.0,0.0,0.0,0.0,0.0,0.379,0.0,0.4034,0.0,0.2091,0.2509,0.2836,0.2751,0.2187,0.1835,0.1857,0.1368,0.1031,0.1061,0.1609,0.1954,0.171,0.1782,0.1627,0.113,-0.0171,-0.1371,-0.2155,-0.2249,-0.2307,-0.2456,-0.2333,-0.2332,-0.2495,-0.2886,-0.3263,-0.3661,-0.4347,-0.4913,-0.5182,-0.5562,-0.5885,-0.6188,-0.6288,-0.6445,-0.6691,-0.6855,-0.6898,-0.695,-0.7049,-0.7215,-0.7259,-0.7617,-0.8028,2.3338,2.2781,2.2466,2.1918,2.1377,2.1332,2.1275,2.1203,2.1203,2.0558,1.9435,1.8377,1.791,1.7852,1.7677,1.7618,1.7618,1.7443,1.6856,1.5865,1.5747,1.5105,1.3983,1.3933,1.3873,1.3813,1.3813,1.3813,1.3794,1.3384,1.3116,1.2887,1.2383,1.1807,1.1277,1.123,1.1181,1.1161,1.0705,1.0028,0.9091,0.9008,0.798,0.6018,0.6807,0.6586,0.5128,0.5847,0.6219,0.6064,0.5512,0.5626,0.6525,0.5777,0.5682,0.0,0.5719,0.0,0.0,0.0,0.0,0.0,0.0,0.0,0.0,0.4568,0.4037,0.2804,0.3903,0.4212,0.314,0.3738,0.3997,0.344,0.3466,0.3231,0.2571,0.239,0.2363,0.2427,0.2408,0.2499,0.2707,0.2345,0.2089,0.1992,0.1467,0.0585,-0.058,-0.1212,-0.1448,-0.153,-0.1594,-0.165,-0.195,-0.2213,-0.2588,-0.3279,-0.3749,-0.4046,-0.4603,-0.4764,-0.5053,-0.5605,-0.5724,-0.5974,-0.6535,-0.6591,-0.6596,-0.653,-0.6582,-0.6639,-0.6945,-0.7307,-0.775,2.3749,2.3414,2.3079,2.2701,2.2339,2.2066,2.166,2.1203,2.1203,2.1089,2.0859,2.0615,2.05,2.0385,1.9377,1.8971,1.8855,1.7852,1.7267,1.7032,1.6562,1.6042,1.558,1.5056,1.4709,1.4411,1.4411,1.4411,1.4401,1.4031,1.3668,1.3267,1.2603,1.2054,1.1642,0.0,0.0,0.0,1.0662,1.0106,0.927,0.8984,0.8295,0.7202,0.7631,0.0,0.7309,0.7278,0.7386,0.7486,0.6834,0.0,0.0,0.0,0.0,0.0,0.0,0.0,0.0,0.0,0.0,0.0,0.493,0.4643,0.4252,0.4669,0.4583,0.3685,0.4241,0.4577,0.4217,0.4177,0.4264,0.44,0.4073,0.3817,0.3743,0.3324,0.3138,0.3512,0.3535,0.3429,0.3323,0.3337,0.3228,0.2769,0.2414,0.1951,0.1373,0.0532,0.0,-0.0236,-0.0477,-0.066,-0.078,-0.1519,-0.2022,-0.2387,-0.3066,-0.3633,-0.3991,-0.4303,-0.4564,-0.4995,-0.506,-0.5118,-0.5302,-0.5302,-0.5302,-0.5302,-0.5302,-0.5609,-0.6653,-0.7025,-0.7266,2.4285,0.0,2.3469,2.3027,0.0,2.2253,2.1945,2.166,2.1489,2.1375,2.1203,2.1203,2.1203,2.1161,2.05,2.027,2.0199,1.9564,1.8971,1.8331,1.7864,1.722,1.6455,1.5876,1.5531,1.5353,1.5007,1.4888,1.4798,1.4252,1.381,1.3532,1.2921,1.2476,1.2202,1.1978,1.1664,1.124,1.095,1.065,1.0262,1.0054,0.9329,0.8175,0.0,0.0,0.0,0.0,0.0,0.0,0.0,0.0,0.0,0.0,0.0,0.8353,0.7724,0.7211,0.6941,0.6461,0.6034,0.5806,0.5506,0.5201,0.4868,0.5037,0.4971,0.4546,0.4752,0.4873,0.4814,0.4774,0.4816,0.48,0.4657,0.4514,0.4408,0.4192,0.4101,0.4276,0.4297,0.4251,0.4103,0.3931,0.3766,0.3427,0.2951,0.2658,0.2431,0.1625,0.0896,0.0602,0.0425,0.0183,-0.0183,-0.0614,-0.1234,-0.1665,-0.2342,-0.2837,-0.3145,-0.3453,-0.3822,-0.4133,-0.4195,-0.4256,-0.4376,-0.4376,-0.4438,-0.4376,-0.4376,-0.4622,-0.5548,-0.6039,-0.6469,2.4745,2.428,2.392,2.3414,2.2855,2.2517,2.2291,2.2173,0.0,0.0,0.0,2.1318,2.1375,2.1375,2.1375,2.1318,2.1332,2.1318,2.073,1.9622,1.9332,1.8577,1.7396,1.6762,1.6467,1.629,1.5698,1.5461,1.5391,1.4756,1.4272,1.4068,1.3578,1.3215,1.2967,1.2719,1.2384,1.1954,1.1345,1.0981,1.0957,1.087,1.0237,0.8952,1.0002,1.0061,0.8998,0.9234,0.9242,0.895,0.8049,0.7772,0.827,0.828,0.8658,0.9552,0.9193,0.8842,0.8699,0.7893,0.7089,0.6415,0.6163,0.5896,0.5649,0.5429,0.5344,0.5344,0.5309,0.5313,0.5264,0.5376,0.537,0.5032,0.5153,0.5178,0.502,0.4902,0.4906,0.4983,0.493,0.4889,0.4891,0.4479,0.4134,0.3932,0.3566,0.3207,0.3018,0.232,0.1702,0.1351,0.123,0.0987,0.0432,0.0062,-0.0309,-0.1049,-0.1541,-0.1911,-0.2281,-0.2529,-0.2837,-0.3207,-0.3207,-0.333,-0.3515,-0.3512,-0.3574,-0.3574,-0.3635,-0.3758,-0.4069,-0.481,-0.5486,2.5026,2.4947,2.4598,2.4249,2.3901,2.3494,2.3006,2.2513,2.2173,2.2002,2.2002,2.2002,2.1945,2.1945,2.1945,2.1831,2.166,2.1888,2.1603,0.0,2.0615,1.991,1.8971,1.8357,1.783,1.7303,1.6938,1.6762,1.6668,1.6136,1.5761,1.5468,1.5018,1.4545,1.4106,1.3784,1.3496,1.3209,1.1345,1.0224,1.0009,0.9798,0.9754,0.978,1.0357,1.0682,1.0671,1.0559,1.0453,1.0392,0.9686,0.9446,0.984,0.9494,0.9455,0.98,0.9549,0.9203,0.8808,0.8134,0.7602,0.7333,0.7292,0.6833,0.5792,0.5831,0.586,0.5865,0.6044,0.5996,0.5793,0.5899,0.5897,0.5548,0.5514,0.5558,0.5634,0.5402,0.5365,0.5673,0.551,0.5319,0.5269,0.5215,0.4909,0.4496,0.4192,0.4007,0.3453,0.3079,0.2647,0.2342,0.2034,0.1727,0.1235,0.0556,0.0062,-0.0185,-0.0741,-0.1234,-0.1541,-0.1726,-0.1911,-0.2157,-0.2282,-0.2282,-0.2282,-0.2281,-0.2342,-0.2342,-0.2527,-0.2714,-0.2837,-0.3453,-0.4256,2.5103,2.5071,2.4722,2.4372,2.4066,2.3483,2.3051,2.2796,2.2683,2.24,2.2116,2.2116,2.2116,2.2116,2.2116,2.2059,2.1945,2.2059,2.1945,2.166,2.1203,2.073,2.027,1.9519,1.8881,1.8473,1.8006,1.7642,1.7443,1.6982,1.6549,1.6266,1.5662,1.5123,1.4711,1.4493,1.4115,1.3715,1.2163,1.1209,1.0854,1.0611,1.0548,1.0704,1.1075,1.1343,1.157,1.151,1.141,1.1252,1.0934,1.07,1.0611,1.0538,1.0462,1.0424,1.0287,0.9957,0.9477,0.861,0.8046,0.8053,0.783,0.7475,0.6945,0.6674,0.6496,0.6394,0.6376,0.6318,0.626,0.6404,0.6314,0.6013,0.5996,0.5987,0.5843,0.5734,0.5685,0.5847,0.5794,0.5671,0.5671,0.5544,0.5298,0.493,0.4684,0.4256,0.3764,0.3579,0.3332,0.2837,0.2652,0.2344,0.1851,0.1419,0.0987,0.0617,0.0,-0.0494,-0.0679,-0.0925,-0.1234,-0.1419,-0.1481,-0.1481,-0.1419,-0.1419,-0.1481,-0.1481,-0.1542,-0.1789,-0.2159,-0.2775,-0.3576,2.5165,2.521,2.4878,2.4452,2.405,2.3308,2.3022,2.3022,2.3022,2.2724,2.2343,2.2286,2.2343,2.2286,2.2286,2.2286,2.223,2.2286,2.223,2.2059,2.1717,2.1375,2.1146,2.0457,1.9938,1.9533,1.8939,1.859,1.8319,1.784,1.7395,1.6937,1.6254,1.5731,1.5479,1.5112,1.4757,1.4344,1.3383,1.2556,1.2043,1.1677,1.1574,1.1687,1.1822,1.1977,1.2256,1.2256,1.2117,1.1874,1.1838,1.1651,1.1288,1.1439,1.1424,1.1153,1.1079,1.0744,1.0054,0.9259,0.8733,0.873,0.8475,0.8285,0.8208,0.781,0.7375,0.7086,0.7049,0.6937,0.6901,0.6951,0.6895,0.6533,0.6481,0.6394,0.6096,0.6039,0.5978,0.5916,0.5916,0.5855,0.5855,0.5671,0.5483,0.5298,0.4807,0.4318,0.4071,0.3951,0.3702,0.3394,0.3145,0.2899,0.2342,0.2157,0.1851,0.1296,0.0741,0.037,0.0185,-0.0247,-0.0494,-0.0494,-0.0494,-0.0494,-0.0556,-0.0494,-0.0494,-0.0494,-0.0556,-0.0864,-0.1481,-0.2221,-0.3022,2.5549,2.5488,2.5178,2.4674,2.405,2.3308,2.3022,2.3022,2.3022,2.295,2.2893,2.2893,2.2909,2.2909,2.2909,2.274,2.257,2.2796,2.2626,2.2173,2.2343,2.2002,2.1275,2.1089,2.0744,2.0213,1.9809,1.9635,1.9519,1.9234,1.8656,1.788,1.7325,1.6858,1.6511,1.6062,1.5731,1.5707,1.4931,1.3964,1.3007,1.2475,1.2343,1.2561,1.2412,1.2453,1.2743,1.2743,1.2598,1.2356,1.2356,1.2211,1.1989,1.2083,1.2114,1.1864,1.1795,1.1353,1.0319,1.0076,0.9842,0.9526,0.9448,0.9367,0.9237,0.9091,0.8778,0.8331,0.8347,0.8118,0.7676,0.7719,0.754,0.6991,0.6888,0.6714,0.6407,0.6342,0.6219,0.5916,0.5978,0.5916,0.5916,0.5855,0.5732,0.5421,0.493,0.4438,0.4318,0.4133,0.3889,0.3764,0.3579,0.3332,0.2899,0.2652,0.2344,0.1974,0.1603,0.1234,0.0988,0.0864,0.0803,0.0432,0.0617,0.0617,0.0679,0.0803,0.0741,0.0494,0.0308,0.0123,-0.0555,-0.1415,-0.2274,2.59,2.59,2.5778,2.5189,2.4359,2.3593,2.3191,2.3022,2.3022,2.3022,2.3022,2.3022,2.3022,2.3022,2.3022,2.2965,2.2853,2.2965,2.2893,2.2626,2.2626,2.24,2.2059,2.166,2.1261,2.0802,2.05,2.0256,2.0069,1.9745,1.9398,1.9027,1.8318,1.7808,1.7515,1.6932,1.659,1.6365,1.5895,1.5364,1.4751,1.3923,1.3471,1.3398,1.3323,1.3229,1.324,1.319,1.319,1.3089,1.3039,1.3028,1.2878,1.2821,1.272,1.2577,1.2135,1.1671,1.1107,1.079,1.0601,1.0458,1.0365,1.0218,1.0054,1.005,0.9954,0.9655,0.9058,0.8617,0.8455,0.8453,0.8244,0.7627,0.7505,0.7322,0.6775,0.6714,0.6653,0.6469,0.6346,0.6219,0.6158,0.6039,0.5794,0.5483,0.5114,0.493,0.4499,0.4256,0.4133,0.3951,0.3825,0.364,0.3332,0.3207,0.296,0.2652,0.2342,0.1974,0.1666,0.1419,0.1234,0.105,0.105,0.105,0.0926,0.0988,0.0988,0.0986,0.0673,0.0304,-0.0122,-0.0665,-0.1262,2.6388,2.6294,2.599,2.5353,2.4652,2.3951,2.3472,2.3247,2.3191,2.3135,2.3135,2.3022,2.3022,2.3022,2.3022,2.3022,2.3022,2.3022,2.3022,2.2965,2.2796,2.2683,2.257,2.2173,2.1774,2.1432,2.1189,2.096,2.0759,2.0459,2.0287,2.0089,1.9276,1.8698,1.8427,1.7795,1.7279,1.7054,1.6749,1.643,1.6156,1.5407,1.4705,1.4185,1.4055,1.3868,1.3623,1.3623,1.3572,1.3532,1.348,1.348,1.348,1.338,1.3288,1.3195,1.2673,1.2216,1.2049,1.1567,1.1307,1.1328,1.1072,1.0935,1.0884,1.0947,1.0957,1.0937,1.0108,0.9593,0.9249,0.922,0.8909,0.836,0.8238,0.7872,0.7266,0.7204,0.7082,0.6903,0.6653,0.653,0.653,0.6346,0.6101,0.5912,0.5728,0.5483,0.493,0.4745,0.4561,0.4133,0.4071,0.3889,0.3702,0.3579,0.3455,0.3209,0.2899,0.2652,0.2342,0.2034,0.1788,0.1789,0.1543,0.1358,0.1421,0.1359,0.123,0.1163,0.097,0.066,0.054,0.0059,-0.0295,2.7073,2.6849,2.5637,2.5118,2.4928,2.4234,2.3865,2.3809,2.3585,2.3472,2.3416,2.3191,2.3022,2.3078,2.3062,2.3022,2.3022,2.3022,2.3022,2.3022,2.2965,2.2853,2.2626,2.257,2.2343,2.2059,2.1945,2.1945,2.1945,2.1631,2.141,2.1056,2.019,1.9599,1.9288,1.8432,1.7964,1.7859,1.7437,1.7173,1.7067,1.6751,1.5915,1.4862,1.4424,1.4208,1.3941,1.3879,1.3788,1.3542,1.3564,1.3553,1.3513,1.3696,1.3742,1.3611,1.3372,1.3112,1.2797,1.2462,1.22,1.2001,1.1782,1.1652,1.1815,1.1762,1.1769,1.1904,1.1706,1.1193,1.0422,1.0065,0.964,0.9275,0.897,0.8549,0.7933,0.7872,0.7572,0.7143,0.6959,0.6898,0.6841,0.6903,0.678,0.6653,0.653,0.6158,0.579,0.5483,0.5114,0.4626,0.4379,0.4256,0.3948,0.3825,0.3702,0.3579,0.3394,0.3332,0.3145,0.2899,0.2714,0.2527,0.2337,0.2153,0.2036,0.1907,0.1831,0.1695,0.1491,0.1241,0.1002,0.0707,0.0352,2.7677,2.7589,2.6603,2.5983,2.5551,2.4839,2.4239,2.3921,2.3809,2.3753,2.3753,2.3641,2.3585,2.3585,2.3585,2.336,2.3022,2.3022,2.3022,2.3022,2.3022,2.2965,2.2853,2.2683,2.257,2.24,2.223,2.2116,2.2116,2.1945,2.1885,2.1688,2.1038,2.0476,2.0151,1.9468,1.8893,1.8527,1.8318,1.8055,1.7701,1.7424,1.6949,1.6346,1.5656,1.5083,1.4609,1.4609,1.4503,1.4239,1.4186,1.4134,1.3996,1.4008,1.3933,1.3738,1.3586,1.3423,1.3207,1.3044,1.2935,1.2881,1.2772,1.2707,1.288,1.2861,1.2855,1.2785,1.2731,1.2414,1.1872,1.1209,1.0543,1.0004,0.964,0.9335,0.8909,0.8665,0.8427,0.8183,0.7811,0.7388,0.7082,0.6903,0.6903,0.6903,0.678,0.6591,0.628,0.5912,0.5605,0.5176,0.4868,0.4687,0.4564,0.4136,0.3889,0.3825,0.3702,0.3579,0.3455,0.3328,0.3141,0.2823,0.2756,0.2614,0.231,0.2048,0.2038,0.1846,0.1701,0.1569,0.145,0.1099,0.0919,2.8379,2.8194,2.7401,2.6792,2.6341,2.5496,2.4851,2.4479,2.4239,2.4184,2.4184,2.3977,2.3921,2.3921,2.3921,2.3697,2.3304,2.3175,2.3191,2.3135,2.3078,2.3022,2.2965,2.2796,2.274,2.2683,2.2513,2.24,2.24,2.24,2.24,2.2353,2.1742,2.127,2.0924,2.0317,1.974,1.9324,1.9138,1.8893,1.8436,1.8108,1.7793,1.7437,1.6789,1.6045,1.5363,1.5309,1.5083,1.4761,1.4708,1.4665,1.4515,1.4461,1.4342,1.418,1.4126,1.4018,1.3856,1.3748,1.3748,1.3694,1.3542,1.3507,1.3742,1.3697,1.3626,1.363,1.3624,1.3504,1.3144,1.2543,1.176,1.0967,1.049,1.0126,0.964,0.9335,0.9098,0.8854,0.8488,0.8061,0.7633,0.7572,0.7572,0.751,0.7572,0.7388,0.6954,0.6709,0.6285,0.5851,0.5421,0.5241,0.4995,0.4626,0.4379,0.4318,0.4063,0.3943,0.3812,0.3748,0.3552,0.3237,0.2972,0.2765,0.2501,0.2242,0.2053,0.1929,0.1791,0.1713,0.1593,0.1529,0.1357,2.9253,2.8865,2.7806,2.7347,2.7125,2.6165,2.5679,2.5514,2.5072,2.4834,2.474,2.4239,2.4072,2.4033,2.4144,2.3977,2.3977,2.3753,2.3585,2.3472,2.3191,2.3078,2.3062,2.3062,2.3078,2.3078,2.3022,2.3022,2.3006,2.3022,2.3006,2.2902,2.2418,2.2018,2.1665,2.1008,2.0459,2.0141,1.9858,1.9583,1.9324,1.8945,1.8579,1.8069,1.774,1.7107,1.5992,1.5939,1.5618,1.5095,1.503,1.5041,1.4934,1.4934,1.4987,1.4934,1.4934,1.4934,1.4869,1.4654,1.4493,1.4439,1.4072,1.3991,1.4389,1.4267,1.429,1.4548,1.459,1.4471,1.4172,1.3744,1.3084,1.1993,1.145,1.0974,1.049,1.0004,0.9579,0.9153,0.897,0.8915,0.8915,0.8793,0.8732,0.8732,0.8671,0.8488,0.7933,0.775,0.7383,0.6709,0.6219,0.5974,0.5544,0.5176,0.5053,0.4926,0.4548,0.4297,0.4276,0.4143,0.3984,0.3727,0.3507,0.3298,0.2859,0.2545,0.2248,0.2064,0.1982,0.1859,0.1745,0.1631,0.1686,3.0039,2.9827,2.8727,2.8144,2.7825,2.6958,2.6391,2.5953,2.5789,2.5624,2.5404,2.5238,2.5128,2.5128,2.5128,2.5128,2.5128,2.4795,2.4351,2.3865,2.3641,2.3641,2.3641,2.3641,2.3641,2.3641,2.3641,2.3641,2.3585,2.3641,2.3641,2.3503,2.3226,2.2944,2.2727,2.198,2.137,2.105,2.0519,2.0101,1.9828,1.9569,1.9257,1.8907,1.8579,1.8042,1.7371,1.6789,1.6205,1.5672,1.563,1.5416,1.5095,1.5041,1.5041,1.5041,1.5041,1.5041,1.4987,1.4934,1.4869,1.4826,1.4665,1.4844,1.53,1.5276,1.5325,1.5574,1.5423,1.5186,1.4818,1.453,1.3863,1.2904,1.2242,1.1752,1.1269,1.0846,1.0308,0.9943,0.9883,0.9761,0.9579,0.9518,0.9457,0.9275,0.9214,0.9031,0.8665,0.8482,0.8233,0.7805,0.7322,0.6893,0.6587,0.6272,0.6014,0.5628,0.5183,0.4801,0.466,0.4438,0.4285,0.4124,0.3963,0.3698,0.3262,0.2961,0.2668,0.2323,0.2196,0.2021,0.1851,0.185,0.1851,3.0918,3.0742,2.9639,2.9047,2.8727,2.7782,2.7152,2.6772,2.65,2.6336,2.6172,2.6063,2.6063,2.6008,2.6063,2.5953,2.5844,2.5624,2.5183,2.459,2.42,2.4089,2.4033,2.3921,2.3921,2.3921,2.3921,2.3921,2.3921,2.3921,2.3921,2.3871,2.369,2.3492,2.3343,2.2638,2.212,2.1732,2.1151,2.0652,2.0395,2.0153,1.9843,1.9569,1.9309,1.8945,1.8436,1.7845,1.7147,1.6524,1.6258,1.5992,1.5672,1.5672,1.5618,1.5618,1.5618,1.5618,1.5523,1.5523,1.5416,1.5363,1.5256,1.5421,1.5825,1.5896,1.5886,1.6141,1.6065,1.5828,1.5591,1.5245,1.4699,1.4162,1.3324,1.2595,1.2062,1.1571,1.1209,1.0967,1.0846,1.0664,1.0422,1.0368,1.0247,0.9943,0.9883,0.9761,0.9457,0.9275,0.9092,0.8781,0.8233,0.7933,0.775,0.7423,0.7033,0.644,0.5854,0.5466,0.5141,0.4774,0.4486,0.4383,0.4221,0.4044,0.3672,0.3551,0.3319,0.2917,0.258,0.2412,0.2356,0.2076,0.202,3.1845,3.1667,3.0561,3.0036,2.9786,2.8583,2.7999,2.7799,2.7314,2.7043,2.6989,2.6772,2.6663,2.6663,2.6663,2.65,2.6227,2.6227,2.6118,2.5624,2.509,2.4701,2.4535,2.4312,2.4256,2.42,2.4089,2.4033,2.4128,2.4089,2.3977,2.4033,2.3983,2.3811,2.3535,2.3083,2.2683,2.2317,2.1732,2.1245,2.0925,2.0719,2.0411,2.0138,1.9894,1.962,1.9272,1.8893,1.8213,1.7331,1.6842,1.663,1.667,1.6683,1.6564,1.6511,1.663,1.6471,1.6324,1.6217,1.6152,1.5939,1.5797,1.5759,1.6251,1.6292,1.6321,1.6645,1.6596,1.6478,1.636,1.5946,1.5591,1.5423,1.4341,1.3324,1.2475,1.2294,1.2053,1.1872,1.1812,1.1692,1.139,1.139,1.1209,1.0974,1.0846,1.0732,1.049,1.0247,1.0004,0.97,0.9268,0.8903,0.872,0.8164,0.7823,0.7308,0.6719,0.6201,0.5701,0.5276,0.4986,0.4874,0.4729,0.4491,0.4316,0.426,0.3977,0.353,0.325,0.3029,0.2748,0.2468,0.23,3.2457,3.2338,3.1277,3.065,3.0309,2.9585,2.8985,2.8495,2.8121,2.7853,2.7638,2.7314,2.7206,2.7206,2.7206,2.7152,2.7098,2.7043,2.7043,2.6935,2.6554,2.5953,2.5476,2.5238,2.5183,2.5183,2.4906,2.4834,2.4851,2.4646,2.4535,2.459,2.4535,2.4501,2.4348,2.3813,2.3352,2.3001,2.2372,2.1835,2.152,2.1216,2.0976,2.0704,2.0411,2.0153,1.9879,1.9413,1.8632,1.7582,1.7226,1.6961,1.6776,1.6776,1.6776,1.6776,1.6736,1.6683,1.663,1.663,1.6577,1.6537,1.6592,1.6879,1.7216,1.7158,1.7301,1.7477,1.7197,1.6903,1.6844,1.6537,1.6242,1.5887,1.4937,1.3933,1.3444,1.3084,1.2784,1.2535,1.2483,1.2423,1.2354,1.2294,1.2174,1.1933,1.1752,1.1692,1.139,1.1329,1.1088,1.0846,1.0482,0.9997,0.9546,0.9039,0.8581,0.8154,0.7597,0.7054,0.656,0.6048,0.5938,0.5888,0.5669,0.5493,0.5322,0.5206,0.47,0.4201,0.3921,0.3757,0.325,0.2914,0.2805,3.3084,3.3006,3.2209,3.1532,3.099,3.0411,2.9748,2.9139,2.8761,2.8548,2.8388,2.8228,2.8121,2.8121,2.8121,2.8067,2.796,2.796,2.7906,2.7691,2.7476,2.6881,2.6227,2.5953,2.5844,2.5844,2.5569,2.5459,2.5348,2.5128,2.4962,2.4923,2.4868,2.483,2.4723,2.4272,2.3874,2.3569,2.2883,2.231,2.2127,2.1689,2.142,2.1216,2.0976,2.0652,2.0292,1.9879,1.9153,1.8318,1.7845,1.7582,1.7424,1.7424,1.7411,1.7424,1.7424,1.7411,1.7265,1.716,1.7001,1.6947,1.7111,1.7338,1.752,1.7673,1.7893,1.8027,1.7784,1.7608,1.7479,1.7185,1.6773,1.6301,1.5591,1.4948,1.4401,1.3983,1.3744,1.3564,1.3504,1.3444,1.3324,1.3204,1.2964,1.2655,1.2414,1.2354,1.2174,1.2174,1.2113,1.1812,1.1571,1.1088,1.0552,0.9979,0.9399,0.9013,0.8457,0.7906,0.737,0.6817,0.6685,0.6604,0.6548,0.6437,0.6214,0.5986,0.5541,0.5098,0.4819,0.4424,0.4033,0.3642,0.3477,3.3692,3.3593,3.3168,3.2513,3.1776,3.112,3.045,2.9773,2.9396,2.9237,2.9237,2.9237,2.9079,2.9185,2.8973,2.8973,2.8688,2.8654,2.8548,2.8388,2.8121,2.7618,2.7098,2.6554,2.6336,2.6282,2.5953,2.5844,2.5734,2.5459,2.5276,2.5183,2.5034,2.4868,2.4816,2.4487,2.4244,2.3985,2.3299,2.2822,2.2602,2.2112,2.1725,2.1674,2.142,2.1113,2.0704,2.0344,1.9864,1.9138,1.8736,1.8527,1.8475,1.8475,1.8475,1.8422,1.8318,1.8213,1.8069,1.7793,1.7622,1.7543,1.7499,1.7541,1.7974,1.8272,1.8416,1.8519,1.8473,1.8357,1.8181,1.783,1.742,1.695,1.6655,1.6183,1.5531,1.4937,1.4709,1.465,1.459,1.4471,1.4232,1.3992,1.3693,1.3504,1.3324,1.3264,1.3144,1.3144,1.2964,1.2664,1.2363,1.2113,1.1551,1.0979,1.0412,0.986,0.9265,0.8703,0.8146,0.7671,0.7443,0.7265,0.716,0.7104,0.6937,0.6659,0.6325,0.6102,0.5819,0.5429,0.5094,0.4648,0.4372,3.3974,3.3952,3.3586,3.2921,3.2166,3.1921,3.1381,3.0485,3.0256,3.0078,3.0078,2.9869,2.9679,2.9501,2.9501,2.9343,2.9112,2.9079,2.8973,2.8973,2.892,2.8814,2.8335,2.7638,2.7152,2.6989,2.6609,2.6445,2.6282,2.5898,2.5569,2.5569,2.5293,2.5128,2.5038,2.482,2.4466,2.4159,2.3679,2.3321,2.2962,2.2417,2.2046,2.1979,2.1725,2.1573,2.142,2.1165,2.096,2.0601,1.9916,1.9413,1.922,1.9116,1.9116,1.9049,1.8893,1.8722,1.8632,1.845,1.8323,1.8505,1.8727,1.9043,1.929,1.9293,1.9252,1.9171,1.8939,1.8765,1.8532,1.8369,1.8123,1.783,1.7479,1.7185,1.6832,1.6005,1.5364,1.5056,1.4828,1.459,1.453,1.4471,1.4351,1.4291,1.4232,1.4172,1.4112,1.4052,1.3753,1.3384,1.3324,1.3015,1.2457,1.182,1.1117,1.0633,1.0088,0.9699,0.9147,0.8706,0.8484,0.8152,0.7826,0.7715,0.7771,0.7493,0.7215,0.6993,0.6771,0.6376,0.5986,0.5596,0.5266,3.4311,3.4255,3.4086,3.3544,3.279,3.2512,3.1966,3.1189,3.0735,3.0547,3.0547,3.0412,3.0308,3.013,3.013,3.0026,2.9921,2.9921,2.9921,2.9869,2.9816,2.9711,2.9554,2.8867,2.8281,2.7853,2.7422,2.7152,2.6881,2.6445,2.6118,2.6063,2.5679,2.5459,2.5459,2.5238,2.5023,2.4706,2.436,2.3927,2.3374,2.2843,2.2316,2.2165,2.1928,2.1827,2.1674,2.1573,2.1471,2.1318,2.096,2.0447,2.0101,1.9946,1.9843,1.9791,1.9569,1.945,1.9361,1.9299,1.93,1.9488,1.9837,1.9973,2.0118,2.0145,2.0069,1.9809,1.9635,1.9403,1.9113,1.8881,1.8823,1.859,1.824,1.7948,1.7713,1.6832,1.6005,1.5769,1.5542,1.5423,1.5304,1.5067,1.4878,1.4759,1.453,1.4471,1.4411,1.4351,1.4351,1.4172,1.4172,1.3904,1.3351,1.27,1.1802,1.1372,1.0974,1.0633,1.0304,0.9919,0.9588,0.9147,0.8657,0.8657,0.8602,0.8325,0.8048,0.782,0.7543,0.7215,0.6882,0.6599,0.6265,3.4646,3.4646,3.4646,3.4195,3.3496,3.302,3.2362,3.1624,3.1123,3.0983,3.0931,3.0931,3.0879,3.0827,3.0827,3.0827,3.0776,3.0724,3.062,3.0568,3.0464,3.0339,3.0235,2.9869,2.9343,2.8654,2.8174,2.7853,2.7476,2.7043,2.6826,2.6663,2.6118,2.5898,2.5844,2.5679,2.5496,2.5188,2.4857,2.4506,2.4016,2.3548,2.3083,2.2639,2.2401,2.2283,2.2182,2.208,2.203,2.1979,2.1979,2.1758,2.1399,2.0873,2.0668,2.0668,2.0509,2.0467,2.0441,2.0415,2.0484,2.0491,2.0724,2.0803,2.0725,2.08,2.0745,2.0615,2.0443,2.027,1.9982,1.9751,1.9403,1.9171,1.8823,1.859,1.8357,1.7537,1.7009,1.6596,1.6242,1.5957,1.5898,1.5709,1.5472,1.5294,1.5007,1.4828,1.4828,1.4828,1.4948,1.4828,1.4769,1.4371,1.3878,1.3343,1.2531,1.208,1.1717,1.14,1.1181,1.0852,1.0414,0.9926,0.9596,0.9541,0.932,0.9044,0.8768,0.8595,0.8429,0.8159,0.7881,0.7604,0.7271,3.5257,3.5257,3.5257,3.4802,3.4075,3.359,3.299,3.2224,3.1736,3.1476,3.1476,3.1476,3.1343,3.1219,3.1116,3.1034,3.0983,3.0931,3.0879,3.0879,3.0776,3.0776,3.0724,3.062,3.0287,2.9869,2.9164,2.8548,2.8174,2.7853,2.753,2.7206,2.6772,2.65,2.6282,2.6008,2.5789,2.5643,2.5342,2.4986,2.4685,2.4369,2.4017,2.3545,2.3318,2.3178,2.3108,2.3073,2.3105,2.3088,2.3088,2.3197,2.3048,2.2196,2.1671,2.1566,2.1538,2.1494,2.149,2.1618,2.1735,2.1752,2.1843,2.1877,2.1835,2.1828,2.1702,2.1417,2.1189,2.0945,2.0601,2.05,2.0328,2.0097,1.9751,1.9461,1.9171,1.8706,1.8123,1.7596,1.7009,1.6478,1.6419,1.6301,1.6124,1.5946,1.5828,1.572,1.5769,1.5779,1.5779,1.5601,1.5353,1.4862,1.4318,1.3818,1.3192,1.2748,1.2339,1.1955,1.1728,1.1564,1.119,1.0696,1.0366,1.0147,0.9926,0.9706,0.9651,0.9533,0.932,0.9044,0.8823,0.8602,0.8208,3.5423,3.5423,3.5423,3.5178,3.4756,3.4311,3.3768,3.3144,3.2635,3.2259,3.2155,3.2088,3.1986,3.1885,3.1885,3.168,3.1476,3.1424,3.1322,3.127,3.1219,3.124,3.1189,3.1086,3.0909,3.0651,3.0078,2.9448,2.8973,2.8548,2.8174,2.7853,2.7476,2.7206,2.6989,2.6772,2.6391,2.6227,2.5973,2.5613,2.5165,2.4792,2.4472,2.4294,2.4134,2.4028,2.401,2.401,2.401,2.4028,2.401,2.4116,2.4015,2.3687,2.3014,2.2788,2.2557,2.2445,2.2441,2.2559,2.2743,2.2779,2.2918,2.2943,2.2846,2.278,2.2554,2.2214,2.2059,2.1759,2.1474,2.1303,2.1131,2.096,2.0615,2.027,1.9982,1.9635,1.9171,1.859,1.7935,1.7408,1.7009,1.6891,1.6655,1.6596,1.6537,1.6596,1.6655,1.6537,1.6431,1.6183,1.5935,1.5601,1.5019,1.452,1.4019,1.3552,1.3067,1.2621,1.2327,1.2228,1.19,1.1463,1.1135,1.097,1.0751,1.0633,1.0578,1.0414,1.0091,0.9816,0.9761,0.9541,0.9147,3.5753,3.573,3.5698,3.5621,3.5498,3.4994,3.4423,3.3899,3.3332,3.2891,3.2538,3.2493,3.2443,3.2493,3.2443,3.2342,3.2117,3.2066,3.1986,3.1834,3.1783,3.1783,3.1732,3.1578,3.1424,3.1322,3.1013,3.0568,2.9764,2.9237,2.8867,2.8548,2.8281,2.796,2.7691,2.7476,2.7206,2.6989,2.6754,2.6317,2.5649,2.5129,2.4896,2.4878,2.479,2.4752,2.4751,2.4733,2.4751,2.4751,2.4734,2.4788,2.4825,2.4808,2.458,2.419,2.3659,2.3412,2.3443,2.3695,2.3859,2.3706,2.3922,2.3871,2.3641,2.3416,2.336,2.2965,2.2853,2.274,2.24,2.2157,2.1945,2.1717,2.1417,2.1002,2.0788,2.05,2.0213,1.9622,1.8926,1.8402,1.8006,1.7596,1.7479,1.742,1.7361,1.7303,1.7361,1.7067,1.695,1.6714,1.6444,1.627,1.589,1.5412,1.4899,1.4449,1.3895,1.3446,1.3148,1.2935,1.2555,1.2228,1.2173,1.1946,1.1782,1.1455,1.1181,1.0907,1.0751,1.0641,1.0586,1.0366,1.0029,3.6928,3.6874,3.6657,3.644,3.6077,3.5426,3.4682,3.3974,3.3503,3.2965,3.2662,3.2544,3.2544,3.2544,3.2544,3.2493,3.2443,3.2443,3.2392,3.2291,3.2291,3.2291,3.2342,3.2392,3.2088,3.1885,3.1629,3.1064,3.0495,3.0026,2.9679,2.9343,2.892,2.8601,2.8475,2.8121,2.7853,2.7691,2.7476,2.7114,2.6678,2.6131,2.5859,2.575,2.5532,2.5316,2.537,2.537,2.5334,2.535,2.5313,2.5512,2.5697,2.5522,2.5631,2.5559,2.5271,2.4826,2.4842,2.4961,2.4989,2.4641,2.4706,2.4406,2.4184,2.4033,2.3977,2.3809,2.3753,2.3528,2.3304,2.3247,2.2965,2.2683,2.2343,2.2002,2.1702,2.1417,2.1074,2.0788,2.0141,1.9564,1.9042,1.8648,1.824,1.8181,1.8123,1.8123,1.7948,1.7713,1.7479,1.7303,1.7185,1.6997,1.6844,1.6356,1.5886,1.5378,1.4888,1.4329,1.3894,1.3614,1.3335,1.3064,1.2999,1.2663,1.2228,1.1846,1.1618,1.1509,1.1455,1.1463,1.1463,1.1181,1.0798,3.7655,3.7089,3.6958,3.6874,3.6719,3.6348,3.5871,3.5281,3.4595,3.4039,3.3508,3.311,3.2969,3.2969,3.2969,3.2869,3.2768,3.2718,3.2594,3.2544,3.2544,3.2493,3.2493,3.2493,3.2392,3.2291,3.219,3.2037,3.1424,3.0806,3.0308,3.0026,2.9659,2.9343,2.9237,2.8814,2.8528,2.8262,2.7906,2.753,2.7222,2.6821,2.6567,2.6567,2.6221,2.6094,2.6076,2.6059,2.6148,2.6254,2.6308,2.6363,2.653,2.6424,2.6389,2.6282,2.61,2.5775,2.552,2.5663,2.5533,2.5404,2.5293,2.5183,2.4962,2.4851,2.4684,2.4406,2.4406,2.4239,2.3848,2.3753,2.3585,2.3416,2.3191,2.2965,2.2626,2.2286,2.2002,2.1702,2.1417,2.0788,2.0155,1.9693,1.9229,1.8881,1.8752,1.8648,1.8532,1.824,1.8064,1.7948,1.7889,1.7818,1.7649,1.7329,1.6908,1.641,1.5964,1.5344,1.4647,1.4265,1.4069,1.3648,1.3335,1.2999,1.2609,1.25,1.2446,1.2337,1.2173,1.2119,1.1955,1.1627,1.1354,3.8315,3.7495,3.7411,3.7334,3.7281,3.7173,3.6784,3.6315,3.5596,3.4955,3.4416,3.375,3.3369,3.3369,3.3269,3.3119,3.2992,3.2992,3.2869,3.2768,3.2718,3.2768,3.2768,3.2745,3.2718,3.2594,3.2566,3.2443,3.219,3.1702,3.1116,3.0703,3.036,3.0099,2.9869,2.9606,2.927,2.89,2.8368,2.8014,2.7691,2.7349,2.7187,2.7079,2.6954,2.6791,2.6791,2.6754,2.6898,2.6987,2.7023,2.7004,2.7041,2.6987,2.6952,2.6845,2.6735,2.6572,2.63,2.6118,2.5898,2.5789,2.5679,2.5569,2.5624,2.5679,2.5569,2.5072,2.5017,2.4795,2.4462,2.4406,2.4295,2.4184,2.396,2.3809,2.3585,2.3191,2.2853,2.257,2.2271,2.1945,2.136,2.0788,2.027,1.9679,1.939,1.9274,1.91,1.8997,1.8881,1.8823,1.8765,1.8706,1.8409,1.8179,1.7823,1.7424,1.6956,1.6426,1.5701,1.5188,1.4922,1.4417,1.3951,1.3834,1.3779,1.3498,1.3207,1.2935,1.2718,1.2609,1.2391,1.2064,1.1846,3.8736,3.8631,3.8157,3.7974,3.7868,3.7334,3.6861,3.6596,3.5902,3.5333,3.4692,3.4023,3.3668,3.3641,3.3469,3.3392,3.3292,3.3269,3.322,3.3242,3.3242,3.3192,3.3119,3.3069,3.3069,3.2919,3.2891,3.2768,3.2544,3.2415,3.1936,3.1527,3.1034,3.0776,3.062,3.0339,2.9921,2.9501,2.9026,2.8581,2.8281,2.8014,2.7691,2.7422,2.7387,2.7333,2.7368,2.7314,2.7368,2.7422,2.7476,2.7422,2.7476,2.7495,2.7441,2.7225,2.7225,2.7116,2.6954,2.6682,2.6409,2.6118,2.5953,2.5898,2.5953,2.5789,2.5679,2.5624,2.5569,2.5514,2.5459,2.5514,2.5072,2.4851,2.4629,2.4462,2.4239,2.396,2.3641,2.3416,2.3078,2.274,2.24,2.1816,2.1189,2.0615,2.0328,2.0155,2.0083,1.9968,1.9866,1.9809,1.9751,1.9564,1.9274,1.9008,1.8814,1.8391,1.7964,1.7365,1.6762,1.6342,1.5893,1.5542,1.5119,1.5061,1.484,1.4375,1.3921,1.3488,1.3207,1.3098,1.2989,1.2718,1.25,3.9826,3.9826,3.944,3.8973,3.8473,3.8262,3.8036,3.7742,3.6976,3.5876,3.4769,3.4223,3.3965,3.3915,3.3889,3.3767,3.3767,3.3568,3.3592,3.3492,3.3442,3.3342,3.3292,3.3342,3.3242,3.3192,3.3142,3.3142,3.3019,3.2909,3.269,3.2263,3.1695,3.1373,3.1167,3.0879,3.0443,3.013,2.9711,2.9343,2.9079,2.8601,2.8281,2.796,2.7745,2.7584,2.7476,2.7584,2.7745,2.796,2.8067,2.8067,2.7979,2.7979,2.7799,2.753,2.753,2.753,2.7476,2.7225,2.7062,2.6954,2.6826,2.6663,2.6445,2.65,2.6227,2.6118,2.5953,2.5953,2.5752,2.5697,2.5514,2.5404,2.5293,2.5128,2.4906,2.4573,2.4406,2.4184,2.3809,2.3416,2.3135,2.2796,2.2173,2.1603,2.1318,2.1031,2.0902,2.0845,2.073,2.0673,2.0615,2.05,2.0199,1.9998,1.9811,1.9398,1.8915,1.8389,1.7811,1.7333,1.6908,1.6566,1.6251,1.6022,1.5674,1.5132,1.4633,1.4234,1.391,1.3694,1.3478,1.3315,1.3152,4.0744,4.0694,4.0516,3.9955,3.9206,3.9102,3.8998,3.8795,3.7993,3.6654,3.5144,3.4596,3.4261,3.4211,3.4113,3.4064,3.4014,3.3866,3.3817,3.3767,3.3668,3.3542,3.3519,3.3519,3.3592,3.3565,3.3627,3.3623,3.3646,3.3508,3.3566,3.3288,3.2632,3.2236,3.1732,3.1322,3.0909,3.0703,3.0412,3.0151,2.9764,2.9396,2.8973,2.8708,2.8441,2.8228,2.8121,2.8228,2.8388,2.8548,2.8654,2.8708,2.8601,2.8495,2.8281,2.8067,2.7906,2.7906,2.7853,2.753,2.7422,2.726,2.7314,2.7206,2.7152,2.7098,2.6826,2.6609,2.6445,2.6282,2.6063,2.6136,2.5971,2.5789,2.5734,2.5624,2.5459,2.5183,2.5128,2.4962,2.4573,2.4239,2.3848,2.3512,2.274,2.2173,2.1774,2.1588,2.1531,2.1474,2.1417,2.1417,2.1417,2.1303,2.1174,2.0931,2.0644,2.0357,1.9871,1.9442,1.892,1.8409,1.8008,1.7723,1.7408,1.7024,1.6643,1.6278,1.5623,1.4987,1.4665,1.4331,1.4126,1.3964,1.3694,4.1322,4.1272,4.1272,4.082,4.0134,3.9775,3.9594,3.9287,3.8662,3.7515,3.6012,3.5234,3.4701,3.4506,3.4408,3.4359,3.431,3.4211,3.4113,3.4113,3.4082,3.4085,3.4132,3.4106,3.4243,3.4152,3.4283,3.4388,3.4411,3.4508,3.4607,3.4435,3.3834,3.3118,3.251,3.1885,3.1578,3.1476,3.1034,3.0703,3.0443,3.0078,2.9764,2.9501,2.9237,2.9026,2.8973,2.9026,2.9132,2.9185,2.929,2.929,2.9185,2.9185,2.9079,2.8973,2.8973,2.9026,2.8973,2.8014,2.7745,2.7691,2.7799,2.7638,2.7476,2.7422,2.7314,2.7098,2.6989,2.6935,2.6826,2.6736,2.6464,2.6336,2.6282,2.6172,2.6008,2.5844,2.5734,2.5514,2.5293,2.5072,2.4629,2.4128,2.3344,2.2724,2.2286,2.2101,2.2157,2.2271,2.2328,2.2328,2.2328,2.2101,2.1987,2.1759,2.1474,2.1203,2.0845,2.0386,2.0028,1.9642,1.9263,1.8918,1.8589,1.818,1.7844,1.7566,1.6909,1.6247,1.5398,1.4987,1.4826,1.4645,1.4472,4.1819,4.1819,4.1819,4.167,4.1322,4.0744,4.0338,3.9982,3.9145,3.8116,3.7097,3.6235,3.5624,3.5284,3.5114,3.5042,3.4993,3.4652,3.4555,3.4602,3.4617,3.4534,3.4678,3.4967,3.5105,3.5098,3.5184,3.5231,3.5231,3.5352,3.5357,3.5189,3.4809,3.3897,3.287,3.224,3.219,3.2088,3.168,3.127,3.1167,3.0754,3.0412,3.0183,3.0026,2.9869,2.9711,2.9816,2.9921,2.9973,3.0026,3.0078,2.9973,2.9973,2.9869,2.9784,2.9732,2.9711,2.9679,2.9237,2.8973,2.8708,2.8441,2.8281,2.8067,2.8014,2.7818,2.7549,2.7422,2.7314,2.7206,2.7152,2.7043,2.7043,2.6989,2.6881,2.6718,2.6445,2.6227,2.5953,2.5679,2.5348,2.4962,2.4795,2.4072,2.3624,2.3287,2.3119,2.3175,2.3287,2.3344,2.3344,2.336,2.3062,2.278,2.2554,2.2214,2.1888,2.1603,2.1231,2.096,2.0673,2.0386,2.0032,1.968,1.9316,1.8888,1.849,1.8192,1.7569,1.673,1.5911,1.5576,1.5495,1.537,4.2387,4.2387,4.2387,4.2338,4.2141,4.1571,4.1097,4.0641,3.9751,3.8792,3.7866,3.7144,3.6403,3.5911,3.574,3.5668,3.5572,3.5284,3.5308,3.5308,3.5375,3.5589,3.5803,3.5965,3.6168,3.618,3.6141,3.6161,3.6185,3.6143,3.6062,3.5864,3.5694,3.4837,3.38,3.3271,3.2887,3.2689,3.2316,3.1936,3.1732,3.1424,3.1034,3.0806,3.0651,3.0464,3.0464,3.0547,3.0754,3.0806,3.0909,3.1034,3.0858,3.0806,3.0703,3.0599,3.0464,3.0443,3.0412,3.0256,2.9973,2.9764,2.9501,2.9079,2.8708,2.8601,2.8388,2.8174,2.7906,2.7799,2.7745,2.7691,2.7584,2.7584,2.7422,2.7314,2.7206,2.6935,2.6826,2.65,2.6227,2.5789,2.5348,2.5183,2.4851,2.4573,2.4351,2.4184,2.4016,2.3977,2.3977,2.3977,2.3921,2.3641,2.34,2.3287,2.3006,2.2611,2.2343,2.2059,2.1831,2.1531,2.136,2.1117,2.063,2.0203,1.9752,1.9417,1.9098,1.8699,1.8129,1.7319,1.6555,1.6326,1.6251,4.29,4.29,4.29,4.2755,4.2435,4.219,4.1796,4.1272,4.0475,3.9537,3.8532,3.7975,3.7203,3.6318,3.6123,3.6077,3.6033,3.5889,3.6185,3.6431,3.6628,3.6874,3.7119,3.7315,3.741,3.7358,3.73,3.7228,3.7276,3.723,3.6967,3.659,3.6572,3.5905,3.5121,3.4418,3.3931,3.3572,3.2977,3.2616,3.2469,3.198,3.168,3.1476,3.127,3.1167,3.1219,3.1322,3.1424,3.1527,3.1629,3.1629,3.1629,3.1629,3.1629,3.1578,3.1322,3.127,3.1219,3.1086,3.0931,3.0703,3.0235,2.9659,2.929,2.9237,2.9079,2.892,2.8708,2.8495,2.8388,2.8121,2.7906,2.7853,2.7691,2.7584,2.753,2.7422,2.7368,2.7206,2.6989,2.6609,2.6063,2.5789,2.5569,2.5183,2.4906,2.4684,2.4462,2.42,2.4144,2.4144,2.4089,2.4033,2.3921,2.3809,2.3641,2.3191,2.3078,2.2853,2.2626,2.2343,2.2101,2.1816,2.1489,2.1086,2.0685,2.0315,2.0033,1.9612,1.9444,1.8645,1.7825,1.7418,1.7266,4.29,4.29,4.29,4.2852,4.2776,4.2679,4.2338,4.1842,4.1386,4.0821,4.0099,3.9165,3.8357,3.7749,3.7534,3.7391,3.74,3.7531,3.7734,3.7888,3.8015,3.8216,3.8466,3.8589,3.8686,3.8632,3.8472,3.8313,3.8334,3.8315,3.7974,3.7623,3.7474,3.7067,3.6485,3.5894,3.5207,3.448,3.3788,3.3407,3.3124,3.2661,3.2396,3.2177,3.2053,3.2002,3.2037,3.2088,3.219,3.224,3.224,3.224,3.224,3.224,3.224,3.224,3.2139,3.2139,3.2088,3.2037,3.1834,3.1629,3.13,3.0785,3.037,2.9973,2.9869,2.9659,2.9501,2.9237,2.9079,2.8814,2.8654,2.8548,2.8441,2.8281,2.8228,2.8014,2.796,2.7584,2.7422,2.7152,2.6663,2.6445,2.6172,2.5789,2.5459,2.5238,2.4906,2.4629,2.4423,2.4368,2.4368,2.4312,2.4256,2.42,2.4033,2.3809,2.3697,2.3528,2.336,2.3135,2.2853,2.2513,2.2116,2.1858,2.1628,2.1267,2.0867,2.1082,2.0881,1.9948,1.9167,1.8744,1.8333,4.3211,4.3184,4.3163,4.3115,4.3067,4.3046,4.2776,4.2435,4.2141,4.1674,4.0971,4.0311,3.9647,3.9081,3.8839,3.8744,3.8626,3.8736,3.8971,3.9308,3.9343,3.9522,3.9677,3.9727,3.9726,3.9672,3.9517,3.9287,3.9258,3.8998,3.8712,3.8319,3.8291,3.7974,3.7459,3.7009,3.6532,3.5719,3.4889,3.4314,3.3908,3.352,3.326,3.296,3.2887,3.2819,3.2864,3.2864,3.2942,3.3069,3.3147,3.3147,3.317,3.317,3.317,3.3119,3.2896,3.2818,3.2718,3.2566,3.2392,3.2313,3.2263,3.1863,3.1373,3.0961,3.0651,3.0391,3.0183,2.9973,2.9764,2.9606,2.9501,2.9469,2.929,2.9132,2.892,2.8708,2.8335,2.7906,2.7638,2.7422,2.7206,2.7043,2.6772,2.6336,2.6008,2.5789,2.5459,2.5072,2.4812,2.4646,2.4646,2.4646,2.4607,2.4552,2.4423,2.4256,2.4144,2.4033,2.4033,2.3753,2.336,2.3022,2.2683,2.2425,2.2184,2.2029,2.1813,2.1945,2.1945,2.121,2.0414,1.9891,1.9535,4.3614,4.3614,4.3614,4.3471,4.3355,4.3307,4.3163,4.2949,4.2658,4.2091,4.1443,4.1261,4.0723,4.0182,3.9986,3.9891,3.9847,3.9908,4.0249,4.0612,4.0444,4.0579,4.0739,4.0744,4.0593,4.0491,4.0338,4.0109,3.9981,3.9724,3.9362,3.8893,3.8893,3.8631,3.8214,3.8031,3.7546,3.6903,3.6069,3.5491,3.4987,3.4612,3.4243,3.3834,3.3646,3.3504,3.354,3.3581,3.3707,3.4056,3.4179,3.4199,3.4223,3.4196,3.4223,3.4123,3.3866,3.3765,3.3637,3.3485,3.3214,3.2994,3.278,3.2989,3.2824,3.187,3.1395,3.1116,3.0961,3.0754,3.0599,3.0412,3.0329,3.0276,3.0201,3.0146,3.0056,2.9769,2.9299,2.8883,2.8569,2.8315,2.7691,2.7476,2.726,2.6881,2.65,2.6282,2.6008,2.5569,2.5293,2.509,2.5034,2.5034,2.4868,2.4812,2.4757,2.4646,2.4535,2.4423,2.4368,2.4089,2.3753,2.3472,2.3135,2.2909,2.2611,2.257,2.2513,2.2456,2.2343,2.2173,2.1672,2.1001,2.053,4.3614,4.3614,4.3614,4.3566,4.3519,4.3519,4.3403,4.3211,4.3115,4.284,4.2409,4.1812,4.1448,4.1218,4.1,4.0904,4.0909,4.1148,4.1546,4.1625,4.1554,4.1482,4.1693,4.1448,4.1348,4.1348,4.1121,4.087,4.0694,4.0338,4.0083,3.9775,3.962,3.931,3.8945,3.8788,3.8344,3.782,3.7421,3.6677,3.6121,3.5596,3.5165,3.5095,3.4946,3.4899,3.4918,3.4992,3.509,3.5239,3.5239,3.5239,3.5216,3.5192,3.5243,3.5216,3.4996,3.4871,3.4797,3.462,3.4518,3.4639,3.4662,3.4783,3.4342,3.2983,3.2183,3.198,3.1746,3.1592,3.146,3.1297,3.1184,3.122,3.1233,3.1232,3.1228,3.0789,3.0316,2.9978,2.9621,2.9064,2.8418,2.7999,2.7691,2.7422,2.7043,2.6772,2.65,2.6172,2.5953,2.5734,2.5514,2.5459,2.5238,2.5128,2.509,2.4979,2.4812,2.4757,2.4718,2.4479,2.4184,2.3921,2.3641,2.3416,2.3247,2.3304,2.3191,2.3022,2.2796,2.2626,2.24,2.1843,2.146,4.3946,4.3974,4.3946,4.3851,4.3804,4.3757,4.3662,4.3471,4.3423,4.3355,4.3136,4.2521,4.2193,4.2166,4.2049,4.1898,4.1979,4.2296,4.2377,4.2382,4.2338,4.2213,4.219,4.2043,4.1895,4.1769,4.172,4.1521,4.1248,4.1147,4.0896,4.0542,4.0287,4.0032,3.9724,3.9362,3.8998,3.8554,3.8473,3.7911,3.7173,3.6677,3.6138,3.6062,3.5921,3.5902,3.5746,3.5774,3.5876,3.5928,3.5931,3.5931,3.5907,3.5884,3.5931,3.588,3.5829,3.5774,3.577,3.5793,3.5714,3.5737,3.5667,3.5371,3.5273,3.417,3.3891,3.3634,3.3116,3.2878,3.2856,3.2721,3.2743,3.277,3.255,3.2393,3.2234,3.1836,3.1416,3.0975,3.0635,3.0167,2.9587,2.9084,2.8736,2.8033,2.7657,2.7406,2.7081,2.6826,2.6609,2.6391,2.6172,2.5844,2.5514,2.5404,2.5404,2.5238,2.5145,2.509,2.5034,2.4868,2.4684,2.4368,2.4144,2.3977,2.3865,2.3865,2.3753,2.3528,2.3304,2.3022,2.2853,2.2683,2.223,4.449,4.449,4.449,4.435,4.4115,4.4115,4.3926,4.3662,4.3662,4.3614,4.3519,4.3136,4.3018,4.2949,4.29,4.29,4.2873,4.2749,4.2825,4.2776,4.2631,4.2582,4.2484,4.2338,4.2289,4.2239,4.2115,4.1993,4.1796,4.1647,4.1448,4.1071,4.092,4.0719,4.0338,3.9981,3.9672,3.9362,3.9102,3.8788,3.8291,3.7708,3.7109,3.6738,3.6543,3.6488,3.6335,3.6319,3.6422,3.6521,3.6668,3.6692,3.6716,3.674,3.6692,3.6665,3.6586,3.651,3.6411,3.6355,3.6204,3.6029,3.586,3.586,3.5883,3.5728,3.5445,3.5138,3.4614,3.4193,3.414,3.4035,3.4057,3.4109,3.3843,3.3643,3.3343,3.302,3.2598,3.2175,3.1755,3.1304,3.0751,3.0242,2.9661,2.8912,2.8379,2.8091,2.7822,2.7549,2.7314,2.7098,2.6826,2.6445,2.5953,2.5844,2.5844,2.5569,2.5404,2.5404,2.5348,2.5238,2.509,2.4812,2.459,2.4518,2.4351,2.4312,2.4144,2.4089,2.3697,2.3416,2.336,2.3191,2.2909,4.4926,4.4954,4.4972,4.4815,4.463,4.463,4.4397,4.3974,4.3926,4.3804,4.3709,4.3566,4.3375,4.3238,4.2997,4.2949,4.3018,4.297,4.2949,4.2852,4.2776,4.2803,4.2803,4.2631,4.2728,4.2631,4.2484,4.2387,4.2239,4.2092,4.1993,4.1845,4.1597,4.1398,4.1097,4.0744,4.044,4.0083,3.9724,3.9413,3.905,3.8554,3.8056,3.7801,3.7671,3.7676,3.7657,3.7632,3.7632,3.7685,3.7641,3.7541,3.7517,3.7469,3.7469,3.7397,3.734,3.734,3.7264,3.7211,3.7135,3.7159,3.7159,3.7183,3.7154,3.7096,3.6814,3.6667,3.6133,3.5486,3.5213,3.4923,3.4841,3.5062,3.5007,3.4971,3.4734,3.4416,3.4098,3.3595,3.3071,3.2487,3.1734,3.1283,3.0936,3.0248,2.9573,2.9283,2.8987,2.8555,2.8145,2.7968,2.7717,2.7098,2.6609,2.6445,2.6336,2.6008,2.5789,2.5844,2.5789,2.5624,2.5476,2.52,2.5293,2.5293,2.5128,2.4795,2.474,2.4573,2.4089,2.3809,2.3809,2.3641,2.336]}]]